[[{"header":{"parameterUnit":"m.s-1","parameterCategory":2,"la1":30.8641,"la2":29.7642,"lo1":-88.4676,"lo2":-86.9344,"dy":0.0333,"dx":0.0333,"nx":47,"ny":34,"refTime":"2023-03-24T00:00:00:Z","depth":"0","parameterNumber":2,"parameterNumberName":"U-component_of_CURRENTS"},"data":[0,0,0,0,0,0,0,0,0,0,0,0,0,0,0,0,0,0,0,0,0,0,0,0,0,0,0,0,0,0,0,0,0,0,0,0,0,0,0,0,0,0,0,0,0,0,0,0,0,0,0,0,0,0,0,0,0,0,0,0,0,0,0,0,0,0,0,0,0,0,0,0,0,0,0,0,0,0,0,0,0,0,0,0,0,0,0,0,0,0,0,0,0,0,0,0,0,0,0,0,0,0,0,0,0,0,0,0,0,0,0,0,0,0,0,0,0,0,0,0,0,0,0,0,0,0,0,0,0,0,0,0,0,0,0,0,0,0,0,0,0,0,0,0,0,0,0,0,0,0,0,0,0,0,0,0,0,0,0,0,0,0,0,0,0,0,0,0,0,0,0,0,0,0,0,0,0,0,0,0,0,0,0,0,0,0,0,0,0,0,0,0,0,0,0,0,0,0,0,0,0,0,0,0,0,0,0,0,0,0,0,0,0,0,0,0,0,0,0,0,0,0,0,0,0,0,0,0,0,0,0,0,0,0,0,0,0,0,0,0,0,0,0,0,0,0,0,0,0,0,0,0,0,0,0,0,0,0,0,0,0,0,0,0,0,0,0,0,0,0,0,0,0,0,0,0,0,0,0,0,0,0,0,0,0,0,0,0,0,0,0,0,0,0,0,0,0.0816,0.1634,0,0,0,0,0,0,0,0,0,0,0,0,0,0,0,0,0,0,0,0,0,0,0,0,0,0,0,0,0,0,0,0,0,0,0,0,0,0,0,0,0,0,0,0,0.0151,0.0978,0.1664,0.1675,0,0,0,0,0,0,0,0,0,0,0,0,0,0,0,0,0,0,0,0,0,0,0,0,0,0,0,0,0,0,0,0,0,0,0,0,0,0,0,0,0,0,0,-0.0744,-0.0717,0.0242,0.0431,0,0,0,0,0,0,0,0,0,0,0,0,0,0,0,0,0,0,0,0,0,0,0,0,0,0,0,0,0,0,0,0,0,0,0,0,0,0,0,0,0,0,-0.067,-0.1544,-0.1483,-0.0816,-0.0415,0,0,0,0,0,0,0,0,0,0,0,0,0,0,0,0,0,0,0,0,0,0,0,0,0,0,0,0,0,0,0,0,0,0,0,0,0,0,0,0,0,0,-0.0816,-0.2318,-0.2477,-0.1173,-0.0393,0,0,0,0,0,0,0,0,0,0,0,0,0,0,0,0,0,0,0,0,0,0,0,0,0,0,0,0,0,0,0,0,0,0,0,0,0,0,0,0,0,0,0.0288,0.0187,-0.1299,-0.1563,-0.0728,0,0,0,0,0,0,0,0,0,0,0,0,0,0,0,0,0,0,0,0,0,0,0,0,0,0,0,0,0,0,0,0,0,0,0,0,0,0,0,0,0,0,0.1335,0.2079,0.1574,-0.0019,-0.0728,0,0,0,0,0,0,0,0,0,0,0,0,0,0,0,0,0,0,0,0,0,0,0,0,0,0,-0.0195,-0.0387,0,0,0,0,0,0,0,0,0,0,0,0,0,0.0192,0.0593,0.0912,0.0558,-0.0228,-0.0552,0,0,0,0,0,0,0,0,0,0,0,0,0,0,0,0,0,0,0,0,0,0,-0.0247,-0.111,-0.1426,0.0368,0.2002,0.2137,0,0,0,0,0,0,0,0,0,0,0,0,0,-0.0264,-0.0365,-0.0143,-0.0255,-0.0588,-0.0266,0.0214,0,0,0,0,0,0,0,0,0,0,0,0,0,0,0,0,0,0,0,0,-0.0005,0.0255,0.0725,0.0928,0,0,0,0,0,0,0,0,-0.0275,-0.0363,-0.0179,0,0,0,0,0,-0.0525,-0.1066,-0.0986,-0.0769,-0.0588,-0.0005,0.0486,0.0571,0,0,0,0,0,0,0,0,0,0,0,0,0,0,0,0,0,0,-0.0297,-0.0228,0,0,0,0,0,0,0,0.0184,0,-0.0225,-0.0168,0.0118,-0.0198,-0.0516,0,0,0,0,0,-0.0643,-0.1406,-0.1313,-0.0868,-0.0456,0.0192,0.0681,0.0681,0.0659,0,0,0,0,0,0,0,0,0,0,0,0,0,0,0,0,0.0146,0.0187,0,0,0.1145,0.1261,0.0967,0.0588,0.0349,0.0181,-0.0041,0.0228,-0.0082,-0.0541,-0.0934,-0.1846,-0.2656,-0.2593,-0.1766,-0.0747,-0.0467,-0.0582,-0.0239,-0.0623,-0.1187,-0.0802,-0.031,0.0266,0.0549,0.0536,0.0593,0.0604,0,0,0,0,0,0,0,0,0,0,0,0,-0.0038,-0.0305,-0.0448,-0.0014,0.0659,0.1016,0.0986,0.0821,0.0467,0.0159,-0.0044,-0.0316,-0.0483,-0.0555,-0.114,-0.1588,-0.1486,-0.1645,-0.1722,-0.0602,0.0233,0.0019,-0.0066,0,0,0,-0.0667,-0.0945,-0.0393,0.0047,0.0725,0.1255,0.1544,0.2208,0.2711,0,0,0,0,0,0,0,0.0025,0.0236,0.0478,0.0555,0.0439,0.022,-0.0005,-0.0236,-0.0082,0.0437,0.0802,0.0764,0.0374,-0.0118,-0.0363,-0.0516,-0.0742,-0.081,-0.0717,0.0181,0.0003,-0.0722,-0.084,-0.0876,0,0,-0.0703,-0.1958,-0.1876,-0.0563,0.0412,0.1066,0.1423,0,0,0,0,0,0,0,0,0.014,0.0176,0.0014,0.0352,0.0596,0.0387,0.0159,0.022,0.0371,0.0387,0.0349,0.0066,0.0214,0.0385,0.0198,0.0187,0.028,0.0231,-0.0236,-0.0569,-0.0678,-0.0851,-0.0854,-0.0766,-0.0645,0,0,-0.0275,-0.0873,-0.1338,-0.17,-0.1483,-0.0338,0.0132,-0.0126,-0.0071,0.0008,0,-0.0107,-0.0148,-0.0211,-0.0349,-0.0401,-0.033,-0.0143,0.0011,0.0099,0.008,-0.0033,-0.0222,-0.0294,-0.0286,-0.0472,-0.0676,-0.0511,-0.017,-0.0041,0.011,0.028,0.0239,0.0088,-0.008,-0.0096,-0.0096,-0.0247,-0.0665,-0.0893,-0.0868,-0.0854,-0.0717,-0.0623,-0.0626,-0.1689,-0.0997,-0.1162,-0.1192,-0.1049,-0.1519,-0.1719,-0.0992,-0.0772,-0.1154,-0.1491,-0.1755,-0.1241,-0.0527,-0.053,-0.0731,-0.0698,-0.0634,-0.0659,-0.0599,-0.0552,-0.0582,-0.0599,-0.058,-0.0604,-0.0604,-0.0659,-0.0761,-0.0684,-0.0604,-0.0711,-0.0632,-0.0492,-0.0472,-0.0396,-0.0442,-0.0492,-0.0404,-0.0321,-0.0475,-0.07,-0.0753,-0.0692,-0.056,-0.0522,-0.0621,-0.0786,-0.2145,-0.1854,-0.161,-0.1332,-0.1546,-0.2192,-0.2107,-0.1601,-0.1607,-0.1887,-0.2082,-0.1925,-0.1502,-0.1187,-0.122,-0.1239,-0.086,-0.0676,-0.0755,-0.0766,-0.0802,-0.0849,-0.0876,-0.0893,-0.0923,-0.0819,-0.0552,-0.0382,-0.039,-0.0431,-0.0536,-0.0799,-0.1008,-0.1044,-0.0915,-0.0651,-0.0431,-0.0327,-0.0426,-0.0626,-0.0602,-0.0599,-0.0678,-0.0654,-0.0684,-0.0761,-0.0843,-0.1684,-0.139,-0.1077,-0.1252,-0.1851,-0.2296,-0.2228,-0.1725,-0.1263,-0.1288,-0.184,-0.2087,-0.1876,-0.1697,-0.1415,-0.0827,-0.0563,-0.0687,-0.0714,-0.0753,-0.0827,-0.0906,-0.0986,-0.1046,-0.1041,-0.0901,-0.0643,-0.0385,-0.0206,-0.0206,-0.0387,-0.0497,-0.0538,-0.0656,-0.0736,-0.0676,-0.0533,-0.0516,-0.0654,-0.0662,-0.0519,-0.0615,-0.0879,-0.1,-0.103,-0.103,-0.0992,-0.0423,-0.0181,-0.0288,-0.0764,-0.1099,-0.1209,-0.1296,-0.1305,-0.1123,-0.0879,-0.0821,-0.1134,-0.1305,-0.0912,-0.0475,-0.0516,-0.0692,-0.0698,-0.0703,-0.0728,-0.0761,-0.0805,-0.0846,-0.0846,-0.0775,-0.0634,-0.0456,-0.0286,-0.0214,-0.0258,-0.031,-0.0302,-0.0302,-0.0431,-0.0623,-0.0673,-0.0645,-0.0695,-0.0769,-0.075,-0.0739,-0.0766,-0.0838,-0.0939,-0.0912,-0.0747,-0.0558,-0.0041,0.0038,-0.0184,-0.0368,-0.0404,-0.0514,-0.0662,-0.0821,-0.0862,-0.0819,-0.072,-0.0563,-0.0459,-0.0467,-0.0494,-0.0525,-0.0541,-0.0536,-0.0547,-0.0558,-0.0549,-0.0527,-0.05,-0.0467,-0.0426,-0.039,-0.0382,-0.0398,-0.0398,-0.0363,-0.0302,-0.0233,-0.019,-0.0264,-0.0497,-0.0692,-0.075,-0.078,-0.0802,-0.0797,-0.086,-0.0915,-0.0835,-0.0648,-0.0412,-0.0206,-0.0102,-0.0135,0.0118,0.017,0.0091,0.0036,-0.0118,-0.0239,-0.0343,-0.0483,-0.0621,-0.0692,-0.0689,-0.0613,-0.0505,-0.0423,-0.0382,-0.0341,-0.0283,-0.0242,-0.0228,-0.0247,-0.028,-0.0321,-0.0382,-0.0456,-0.0544,-0.0607,-0.0613,-0.0566,-0.0486,-0.0365,-0.0239,-0.0184,-0.0277,-0.0497,-0.0698,-0.0805,-0.0824,-0.0832,-0.0868,-0.0843,-0.0695,-0.0494,-0.0291,-0.0126,-0.0022,0.0052,0.0173,0.0882,0.0926,0.0615,0.0434,0.0291,0.0184,0.0099,-0.0055,-0.0291,-0.0525,-0.0651,-0.0662,-0.0585,-0.0461,-0.0368,-0.0299,-0.022,-0.0159,-0.0148,-0.0192,-0.0275,-0.0407,-0.0585,-0.0728,-0.0783,-0.0772,-0.0731,-0.0665,-0.0555,-0.0407,-0.0269,-0.0239,-0.039,-0.0629,-0.0794,-0.0857,-0.0849,-0.0791,-0.0709,-0.061,-0.0475,-0.0379,-0.0363,-0.0302,-0.0151,0.0025,0.0739,0.1222,0.0909,0.0607,0.0481,0.0409,0.0349,0.0206,-0.0016,-0.0214,-0.0357,-0.045,-0.0508,-0.0492,-0.0404,-0.033,-0.0286,-0.025,-0.025,-0.028,-0.0302,-0.0354,-0.0489,-0.0651,-0.0728,-0.0689,-0.0604,-0.0552,-0.0527,-0.0478,-0.0393,-0.0338,-0.0415,-0.0607,-0.0786,-0.0862,-0.0813,-0.0667,-0.0525,-0.0464,-0.0519,-0.064,-0.0634,-0.039,-0.0022,0.0308,0.0514,0.1049,0.095,0.0401,0.0206,0.0214,0.0203,0.0102,-0.0085,-0.0239,-0.0316,-0.0341,-0.033,-0.0316,-0.0316,-0.0288,-0.0261,-0.0277,-0.0321,-0.0365,-0.0376,-0.0365,-0.0354,-0.036,-0.0352,-0.0272,-0.0143,-0.0041,-0.0047,-0.0132,-0.0244,-0.0332,-0.0409,-0.0533,-0.07,-0.0805,-0.0747,-0.0544,-0.036,-0.0382,-0.0569,-0.0687,-0.0533,-0.014,0.0332,0.0722,0.0928,0.0942,0.103,0.0634,0.011,-0.0044,-0.0077,-0.0137,-0.0275,-0.0385,-0.0415,-0.0396,-0.0349,-0.0305,-0.0299,-0.033,-0.0343,-0.0338,-0.0354,-0.0396,-0.0437,-0.045,-0.039,-0.0261,-0.0107,0.0069,0.028,0.0486,0.0571,0.0508,0.0319,0.0038,-0.0211,-0.0352,-0.0459,-0.0569,-0.0569,-0.0343,-0.011,-0.0157,-0.0354,-0.0439,-0.0275,0.0085,0.0475,0.078,0.0956,0.0975,0.0849,0.0934,0.0549,0.0135,-0.0058,-0.0143,-0.0187,-0.0217,-0.025,-0.0294,-0.0324,-0.0324,-0.033,-0.0371,-0.0442,-0.0483,-0.0475,-0.0448,-0.0434,-0.0437,-0.0412,-0.0305,-0.0113,0.0121,0.0374,0.0621,0.0783,0.0772,0.0643,0.0453,0.0195,-0.0044,-0.0198,-0.0294,-0.0291,-0.0049,0.0233,0.0206,-0.0066,-0.0239,-0.0157,0.0102,0.0407,0.0659,0.0838,0.0934,0.0879,0.0667,0.0884,0.072,0.0461,0.0247,0.0176,0.0203,0.025,0.0228,0.0082,-0.0102,-0.0231,-0.0313,-0.0385,-0.0472,-0.0538,-0.0533,-0.0478,-0.0409,-0.0349,-0.0277,-0.0151,0.0052,0.0305,0.0536,0.0676,0.0654,0.053,0.0415,0.0294,0.0176,0.0099,0.0005,-0.0016,0.0206,0.0541,0.0648,0.0387,0.0036,-0.0052,0.0132,0.0371,0.0566,0.0714,0.0816,0.0893,0.0873,0.0689,0.0898,0.0997,0.0948,0.0744,0.061,0.0599,0.0637,0.0629,0.0453,0.0192,-0.0003,-0.0121,-0.0203,-0.0302,-0.0407,-0.045,-0.0412,-0.033,-0.0225,-0.011,0.0014,0.019,0.0385,0.05,0.047,0.0352,0.0269,0.0217,0.0113,0.0049,0.0091,0.0217,0.0461,0.0821,0.1093,0.1057,0.0843,0.0577,0.042,0.0525,0.072,0.0846,0.0893,0.0873,0.0824,0.0788,0.0687]},{"header":{"parameterUnit":"m.s-1","parameterCategory":2,"la1":30.8641,"la2":29.7642,"lo1":-88.4676,"lo2":-86.9344,"dy":0.0333,"dx":0.0333,"nx":47,"ny":34,"refTime":"2023-03-24T00:00:00:Z","depth":"0","parameterNumber":3,"parameterNumberName":"V-component_of_CURRENTS"},"data":[0,0,0,0,0,0,0,0,0,0,0,0,0,0,0,0,0,0,0,0,0,0,0,0,0,0,0,0,0,0,0,0,0,0,0,0,0,0,0,0,0,0,0,0,0,0,0,0,0,0,0,0,0,0,0,0,0,0,0,0,0,0,0,0,0,0,0,0,0,0,0,0,0,0,0,0,0,0,0,0,0,0,0,0,0,0,0,0,0,0,0,0,0,0,0,0,0,0,0,0,0,0,0,0,0,0,0,0,0,0,0,0,0,0,0,0,0,0,0,0,0,0,0,0,0,0,0,0,0,0,0,0,0,0,0,0,0,0,0,0,0,0,0,0,0,0,0,0,0,0,0,0,0,0,0,0,0,0,0,0,0,0,0,0,0,0,0,0,0,0,0,0,0,0,0,0,0,0,0,0,0,0,0,0,0,0,0,0,0,0,0,0,0,0,0,0,0,0,0,0,0,0,0,0,0,0,0,0,0,0,0,0,0,0,0,0,0,0,0,0,0,0,0,0,0,0,0,0,0,0,0,0,0,0,0,0,0,0,0,0,0,0,0,0,0,0,0,0,0,0,0,0,0,0,0,0,0,0,0,0,0,0,0,0,0,0,0,0,0,0,0,0,0,0,0,0,0,0,0,0,0,0,0,0,0,0,0,0,0,0,0,0,0,0,0,0,0.2085,-0.0332,0,0,0,0,0,0,0,0,0,0,0,0,0,0,0,0,0,0,0,0,0,0,0,0,0,0,0,0,0,0,0,0,0,0,0,0,0,0,0,0,0,0,0,0,0.1022,0.0607,-0.0865,-0.1077,0,0,0,0,0,0,0,0,0,0,0,0,0,0,0,0,0,0,0,0,0,0,0,0,0,0,0,0,0,0,0,0,0,0,0,0,0,0,0,0,0,0,0,0.1132,-0.0135,-0.1426,-0.1351,0,0,0,0,0,0,0,0,0,0,0,0,0,0,0,0,0,0,0,0,0,0,0,0,0,0,0,0,0,0,0,0,0,0,0,0,0,0,0,0,0,0,-0.0461,0.0931,0.0162,-0.1401,-0.1524,0,0,0,0,0,0,0,0,0,0,0,0,0,0,0,0,0,0,0,0,0,0,0,0,0,0,0,0,0,0,0,0,0,0,0,0,0,0,0,0,0,0,-0.1255,0.0192,0.0107,-0.1112,-0.1362,0,0,0,0,0,0,0,0,0,0,0,0,0,0,0,0,0,0,0,0,0,0,0,0,0,0,0,0,0,0,0,0,0,0,0,0,0,0,0,0,0,0,-0.0986,-0.0286,0.0511,-0.0181,-0.1283,0,0,0,0,0,0,0,0,0,0,0,0,0,0,0,0,0,0,0,0,0,0,0,0,0,0,0,0,0,0,0,0,0,0,0,0,0,0,0,0,0,0,0.1456,0.0505,0.053,0.0184,-0.1527,0,0,0,0,0,0,0,0,0,0,0,0,0,0,0,0,0,0,0,0,0,0,0,0,0,0,-0.0239,0.1269,0,0,0,0,0,0,0,0,0,0,0,0,0,0.2508,0.2348,0.1041,0.025,-0.0623,-0.2217,0,0,0,0,0,0,0,0,0,0,0,0,0,0,0,0,0,0,0,0,0,0,-0.0016,0.0173,0.1035,0.0,-0.0121,0.0634,0,0,0,0,0,0,0,0,0,0,0,0,0,0.2233,0.1599,0.0623,-0.0132,-0.1096,-0.2541,0.0591,0,0,0,0,0,0,0,0,0,0,0,0,0,0,0,0,0,0,0,0,0.0585,-0.0008,0.0085,0.0519,0,0,0,0,0,0,0,0,-0.0063,0.0481,0.0582,0,0,0,0,0,0.1519,0.1159,0.0376,-0.031,-0.0912,-0.1912,0.0563,0.0651,0,0,0,0,0,0,0,0,0,0,0,0,0,0,0,0,0,0,0.0157,0.0294,0,0,0,0,0,0,0,0.0033,0,-0.0011,0.1714,0.0327,0.103,0.1041,0,0,0,0,0,0.0431,0.1148,0.0354,-0.0327,-0.0519,-0.1025,0.0025,0.0379,-0.0393,0,0,0,0,0,0,0,0,0,0,0,0,0,0,0,0,-0.0365,-0.0363,0,0,0.0577,-0.0349,-0.0802,-0.0299,-0.0038,-0.0201,-0.0203,0.0972,0.0849,0.1513,0.0398,0.0492,0.0494,0.0492,0.2178,0.1681,0.0,0.0,-0.0102,0.1255,0.0393,-0.006,-0.0118,-0.0417,-0.0439,0.0049,-0.0341,0.1338,0,0,0,0,0,0,0,0,0,0,0,0,0.0555,0.0549,0.0239,-0.0494,-0.0777,0.0206,0.0698,0.0151,-0.0659,-0.0731,-0.0135,-0.0115,-0.0277,-0.0417,-0.0044,0.075,0.1129,-0.0236,-0.0884,-0.0255,0.0244,0.2362,0.1681,0,0,0,0.0588,0.1206,0.0074,0.0033,-0.0082,-0.0195,-0.0005,-0.0038,0.0667,0,0,0,0,0,0,0,0.0332,-0.0709,0.0338,0.0085,-0.0173,0.0569,0.0742,0.0341,-0.003,-0.0486,-0.0047,-0.0176,-0.0634,-0.0819,-0.0332,-0.0063,-0.0231,-0.0291,-0.0255,-0.053,-0.0104,0.1085,-0.042,-0.0838,0,0,0.1165,0.1538,0.161,0.206,0.2785,-0.0014,0.1621,0,0,0,0,0,0,0,0,0.0396,0.028,0.0332,0.0302,0.0558,0.0632,0.0275,-0.0379,0.008,-0.014,0.0047,0.1003,0.1038,0.0689,0.0398,-0.0261,-0.0544,-0.0917,-0.0934,-0.0324,-0.0025,-0.0203,-0.0203,-0.011,-0.0003,0,0,0.014,-0.0563,-0.0472,0.1154,0.0992,-0.0107,0.1371,0.2159,0.303,0.3156,0,0.1063,0.1382,0.0931,0.0492,0.0338,0.0365,0.0335,0.033,0.0472,0.0288,0.0192,0.0341,0.0382,0.039,0.0272,-0.0132,-0.0426,-0.0066,0.0396,0.0805,0.1332,0.0997,0.0711,0.0288,-0.0393,-0.086,-0.1068,-0.0464,0.008,-0.0049,-0.0151,-0.0014,0.0069,0.0099,0.0967,-0.0472,-0.1,-0.0824,-0.0115,0.1519,0.1272,0.0398,0.1434,0.2672,0.3749,0.3389,0.1961,0.1156,0.1343,0.0794,0.0453,0.0407,0.039,0.0365,0.0382,0.0456,0.0264,0.0233,0.0385,0.0332,0.008,-0.0074,-0.0033,0.0206,0.0703,0.109,0.1077,0.0937,0.0623,0.0357,-0.006,-0.0544,-0.0736,-0.0423,0.0096,0.0192,0.0077,0.0115,0.017,0.011,0.0063,0.0777,-0.0486,-0.095,-0.0505,0.0541,0.1464,0.1206,0.0923,0.1382,0.217,0.306,0.2947,0.1903,0.1379,0.1321,0.0692,0.0497,0.0588,0.0489,0.0478,0.0492,0.0489,0.0439,0.0437,0.0396,0.0192,0.0104,0.0297,0.0593,0.0805,0.0983,0.0851,0.0689,0.0555,0.0415,0.0206,-0.0025,-0.0198,-0.0118,0.0173,0.0151,0.0228,0.0266,0.0412,0.0343,0.0195,0.0159,0.0475,-0.0233,-0.0398,0.0297,0.0799,0.0879,0.0937,0.111,0.1156,0.1393,0.2002,0.2065,0.1741,0.1338,0.106,0.0753,0.0764,0.0717,0.0629,0.0599,0.0549,0.0533,0.0544,0.0514,0.0407,0.0316,0.0415,0.0618,0.0659,0.0558,0.0519,0.0481,0.0508,0.0703,0.0873,0.0733,0.0453,0.0316,0.0286,0.0165,0.0107,0.0297,0.0308,0.0363,0.0316,0.0288,0.0374,0.0159,0.0154,0.0335,0.0794,0.0772,0.089,0.1222,0.1343,0.1285,0.1258,0.1329,0.1324,0.1299,0.1025,0.0917,0.0904,0.0904,0.0755,0.0717,0.0654,0.056,0.0508,0.0503,0.0492,0.0464,0.0494,0.0555,0.056,0.0514,0.0503,0.0393,0.0242,0.0357,0.0747,0.1052,0.0961,0.0599,0.0313,0.0143,0.0036,0.0247,0.0481,0.0492,0.0428,0.0379,0.0379,0.0489,-0.011,0.0231,0.0571,0.0711,0.0838,0.1003,0.131,0.1415,0.1458,0.1472,0.136,0.1222,0.1063,0.095,0.1049,0.0994,0.0865,0.078,0.0728,0.0654,0.0563,0.0497,0.047,0.0472,0.0478,0.0505,0.0519,0.0541,0.0563,0.0525,0.0379,0.0233,0.0291,0.0536,0.0665,0.0555,0.0272,0.0033,0.0008,0.0217,0.0596,0.0802,0.0777,0.0563,0.0261,0.0038,0.0038,-0.0277,0.0192,0.0604,0.0695,0.0868,0.0931,0.1148,0.1244,0.1324,0.1398,0.1401,0.1329,0.1206,0.1129,0.1071,0.1016,0.0939,0.0835,0.0758,0.0665,0.058,0.0522,0.0478,0.0453,0.0428,0.0434,0.0483,0.0591,0.0662,0.0621,0.0483,0.0352,0.036,0.0497,0.0461,0.0264,0.0038,-0.0019,0.0247,0.0687,0.0948,0.0827,0.0401,-0.0082,-0.0417,-0.0494,-0.0266,-0.0272,0.0426,0.0923,0.0871,0.0857,0.0901,0.1063,0.1137,0.1167,0.1184,0.1236,0.1296,0.1274,0.1228,0.1173,0.1145,0.109,0.0961,0.0846,0.0722,0.0607,0.0503,0.0412,0.0363,0.0341,0.0374,0.0505,0.0681,0.0791,0.0788,0.0667,0.05,0.0456,0.0503,0.0346,0.0091,0.0,0.0239,0.0687,0.0901,0.0651,0.0151,-0.0253,-0.0401,-0.0233,0.0181,0.0755,0.025,0.0978,0.12,0.0978,0.0832,0.0862,0.097,0.1035,0.1079,0.1079,0.1079,0.1173,0.1285,0.1332,0.1294,0.1258,0.1222,0.1093,0.0931,0.0777,0.0613,0.0423,0.0275,0.0239,0.0277,0.0382,0.0566,0.0761,0.0898,0.0942,0.0827,0.0632,0.0571,0.0525,0.0269,0.003,0.0173,0.0571,0.0753,0.0522,0.0137,-0.0107,-0.0011,0.0376,0.0939,0.1557,0.2101,0.0769,0.1277,0.1206,0.0961,0.0821,0.0819,0.0884,0.0972,0.1049,0.1071,0.1057,0.1148,0.1329,0.1442,0.1415,0.134,0.1283,0.1162,0.0986,0.0827,0.0632,0.0385,0.0214,0.0206,0.0305,0.0461,0.0673,0.0854,0.0981,0.1033,0.0912,0.0731,0.0645,0.0475,0.0198,0.0168,0.047,0.0689,0.0522,0.0228,0.0099,0.0203,0.0514,0.0997,0.1557,0.2065,0.2442,0.0862,0.122,0.1134,0.0906,0.075,0.0714,0.0816,0.0937,0.1035,0.1082,0.111,0.1233,0.1428,0.1563,0.1544,0.1434,0.131,0.1167,0.1011,0.0873,0.0695,0.0461,0.031,0.0324,0.0456,0.0651,0.0879,0.1016,0.1074,0.1052,0.092,0.0755,0.0599,0.0409,0.0286,0.039,0.0629,0.0591,0.0313,0.0102,0.003,0.0162,0.0503,0.0906,0.1296,0.1612,0.1835,0.081,0.1176,0.1055,0.0797,0.0588,0.0566,0.0731,0.0898,0.1016,0.1126,0.1217,0.1324,0.1472,0.161,0.1618,0.1511,0.1354,0.1184,0.1033,0.0917,0.078,0.0615,0.0525,0.058,0.0758,0.0989,0.1165,0.1206,0.1148,0.1,0.0824,0.0662,0.0525,0.0387,0.0236,0.019,0.0319,0.0236,-0.0036,-0.0242,-0.0275,-0.0041,0.0272,0.0514,0.0711,0.0838,0.0895,0.0744,0.1115,0.0989,0.0706,0.0467,0.0445,0.0623,0.0868,0.1022,0.1154,0.1269,0.1338,0.1431,0.1566,0.1621,0.1552,0.1406,0.1231,0.1074,0.0961,0.0871,0.0805,0.0799,0.0923,0.114,0.131,0.1332,0.1266,0.1151,0.0926,0.0643,0.0486,0.0431,0.0253,-0.0148,-0.0324,-0.0099,-0.0011,-0.0247,-0.0448,-0.0404,-0.0195,-0.0099,-0.0093,-0.0113,-0.0121,-0.0129,0.0681,0.1008,0.0948,0.072,0.0511,0.0453,0.058,0.0849,0.1066,0.1187,0.1269,0.1302,0.1349,0.1469,0.1557,0.153,0.1415,0.1263,0.1123,0.1022,0.0992,0.1016,0.1088,0.125,0.1393,0.1395,0.1294,0.1225,0.114,0.0887,0.0582,0.0459,0.0349,0.0066,-0.0349,-0.0508,-0.0255,-0.0041,-0.0211,-0.0445,-0.0489,-0.0492,-0.061,-0.0786,-0.0961,-0.1044,-0.0992]}],[{"header":{"parameterUnit":"m.s-1","parameterCategory":2,"la1":30.8641,"la2":29.7642,"lo1":-88.4676,"lo2":-86.9344,"dy":0.0333,"dx":0.0333,"nx":47,"ny":34,"refTime":"2023-03-24T00:00:00:Z","depth":"2","parameterNumber":2,"parameterNumberName":"U-component_of_CURRENTS"},"data":[0,0,0,0,0,0,0,0,0,0,0,0,0,0,0,0,0,0,0,0,0,0,0,0,0,0,0,0,0,0,0,0,0,0,0,0,0,0,0,0,0,0,0,0,0,0,0,0,0,0,0,0,0,0,0,0,0,0,0,0,0,0,0,0,0,0,0,0,0,0,0,0,0,0,0,0,0,0,0,0,0,0,0,0,0,0,0,0,0,0,0,0,0,0,0,0,0,0,0,0,0,0,0,0,0,0,0,0,0,0,0,0,0,0,0,0,0,0,0,0,0,0,0,0,0,0,0,0,0,0,0,0,0,0,0,0,0,0,0,0,0,0,0,0,0,0,0,0,0,0,0,0,0,0,0,0,0,0,0,0,0,0,0,0,0,0,0,0,0,0,0,0,0,0,0,0,0,0,0,0,0,0,0,0,0,0,0,0,0,0,0,0,0,0,0,0,0,0,0,0,0,0,0,0,0,0,0,0,0,0,0,0,0,0,0,0,0,0,0,0,0,0,0,0,0,0,0,0,0,0,0,0,0,0,0,0,0,0,0,0,0,0,0,0,0,0,0,0,0,0,0,0,0,0,0,0,0,0,0,0,0,0,0,0,0,0,0,0,0,0,0,0,0,0,0,0,0,0,0,0,0,0,0,0,0,0,0,0,0,0,0,0,0,0,0,0,0.0266,0.0533,0,0,0,0,0,0,0,0,0,0,0,0,0,0,0,0,0,0,0,0,0,0,0,0,0,0,0,0,0,0,0,0,0,0,0,0,0,0,0,0,0,0,0,0,0.0211,0.0385,0.0464,0.0596,0,0,0,0,0,0,0,0,0,0,0,0,0,0,0,0,0,0,0,0,0,0,0,0,0,0,0,0,0,0,0,0,0,0,0,0,0,0,0,0,0,0,0,-0.0538,-0.0764,-0.031,-0.0168,0,0,0,0,0,0,0,0,0,0,0,0,0,0,0,0,0,0,0,0,0,0,0,0,0,0,0,0,0,0,0,0,0,0,0,0,0,0,0,0,0,0,-0.0615,-0.1393,-0.1549,-0.1214,-0.0893,0,0,0,0,0,0,0,0,0,0,0,0,0,0,0,0,0,0,0,0,0,0,0,0,0,0,0,0,0,0,0,0,0,0,0,0,0,0,0,0,0,0,-0.0744,-0.1849,-0.189,-0.1285,-0.1005,0,0,0,0,0,0,0,0,0,0,0,0,0,0,0,0,0,0,0,0,0,0,0,0,0,0,0,0,0,0,0,0,0,0,0,0,0,0,0,0,0,0,0.0253,0.0195,-0.0824,-0.0865,-0.0201,0,0,0,0,0,0,0,0,0,0,0,0,0,0,0,0,0,0,0,0,0,0,0,0,0,0,0,0,0,0,0,0,0,0,0,0,0,0,0,0,0,0,0.1354,0.1906,0.1453,0.0464,0.022,0,0,0,0,0,0,0,0,0,0,0,0,0,0,0,0,0,0,0,0,0,0,0,0,0,0,-0.0417,-0.0835,0,0,0,0,0,0,0,0,0,0,0,0,0,0.0275,0.0417,0.047,0.033,-0.0011,-0.0033,0,0,0,0,0,0,0,0,0,0,0,0,0,0,0,0,0,0,0,0,0,0,-0.0571,-0.1143,-0.0706,-0.0115,0.0077,0.0129,0,0,0,0,0,0,0,0,0,0,0,0,0,-0.0209,-0.0571,-0.0571,-0.0558,-0.0717,-0.0709,-0.0684,0,0,0,0,0,0,0,0,0,0,0,0,0,0,0,0,0,0,0,0,-0.0201,-0.0192,0.0363,0.0722,0,0,0,0,0,0,0,0,-0.0335,-0.0472,-0.0272,0,0,0,0,0,-0.0514,-0.1305,-0.1494,-0.1307,-0.0975,-0.0566,-0.0678,-0.0769,0,0,0,0,0,0,0,0,0,0,0,0,0,0,0,0,0,0,-0.0258,-0.0233,0,0,0,0,0,0,0,-0.0129,0,-0.0201,-0.0143,0.0107,-0.0102,-0.0308,0,0,0,0,0,-0.0692,-0.1549,-0.1794,-0.153,-0.0709,0.0154,0.0074,-0.0431,-0.0486,0,0,0,0,0,0,0,0,0,0,0,0,0,0,0,0,0.0148,0.028,0,0,0.0027,0.0217,0.0085,0.0055,0.0115,0.0008,-0.0236,-0.0819,-0.0412,-0.0541,-0.0791,-0.1209,-0.1601,-0.1865,-0.1502,-0.0376,0.0107,-0.0052,-0.0071,-0.0365,-0.0827,-0.0731,-0.014,0.0107,-0.0313,-0.0288,-0.0113,-0.0261,0,0,0,0,0,0,0,0,0,0,0,0,-0.0071,-0.0107,-0.008,0.0129,-0.006,-0.0417,-0.0489,-0.0275,-0.0201,-0.0247,-0.0192,-0.0343,-0.0508,-0.0599,-0.2098,-0.1953,-0.1719,-0.1942,-0.1783,-0.0626,-0.0085,-0.0151,0.0058,0,0,0,-0.058,-0.07,-0.014,0.0258,0.0678,0.0615,0.0478,0.1088,0.1648,0,0,0,0,0,0,0,-0.0008,-0.0027,-0.011,-0.0187,-0.0102,-0.0022,-0.003,-0.0118,0.0008,0.022,-0.0014,-0.0428,-0.0602,-0.0514,-0.0434,-0.0525,-0.0742,-0.0813,-0.0722,-0.039,-0.0291,-0.0827,-0.109,-0.1225,0,0,-0.0794,-0.1873,-0.1464,-0.0222,0.1143,0.1651,0.1343,0,0,0,0,0,0,0,0,0.0074,0.0099,-0.0011,0.0247,0.0492,0.0357,0.0093,0.0,-0.0047,-0.0077,0.0052,-0.0033,0.0209,0.0393,0.0261,0.006,-0.0365,-0.0684,-0.0835,-0.0717,-0.0695,-0.0851,-0.0854,-0.0766,-0.0645,0,0,-0.0662,-0.167,-0.2093,-0.1722,-0.1143,-0.0423,-0.0341,-0.0401,-0.0019,0.0272,0,-0.0819,-0.1491,-0.1126,-0.0722,-0.0407,-0.0206,-0.0107,0.0025,0.014,0.0085,-0.0047,-0.0214,-0.0288,-0.0299,-0.0481,-0.0703,-0.0692,-0.0407,-0.0165,0.006,0.0264,0.0247,0.0113,-0.0085,-0.0346,-0.0593,-0.0711,-0.0871,-0.092,-0.0871,-0.0857,-0.072,-0.0626,-0.0629,-0.1632,-0.1404,-0.1719,-0.1961,-0.1862,-0.1615,-0.1464,-0.1167,-0.1126,-0.1132,-0.1112,-0.1261,-0.1008,-0.0536,-0.092,-0.1217,-0.1,-0.0692,-0.0637,-0.0574,-0.0527,-0.0552,-0.0571,-0.0555,-0.058,-0.0582,-0.0651,-0.0777,-0.0731,-0.0648,-0.0725,-0.0629,-0.0486,-0.0464,-0.039,-0.0445,-0.0549,-0.0544,-0.0497,-0.0591,-0.0744,-0.0764,-0.0695,-0.0563,-0.0525,-0.0623,-0.0788,-0.2299,-0.2315,-0.223,-0.2115,-0.2063,-0.2189,-0.203,-0.1838,-0.1857,-0.1827,-0.175,-0.153,-0.1373,-0.1365,-0.1442,-0.145,-0.1035,-0.0714,-0.0747,-0.0753,-0.0786,-0.0832,-0.0857,-0.0873,-0.0901,-0.081,-0.0563,-0.0387,-0.0393,-0.0434,-0.0536,-0.0794,-0.1,-0.1035,-0.0906,-0.0648,-0.0439,-0.0349,-0.045,-0.0651,-0.0626,-0.0613,-0.0684,-0.0656,-0.0687,-0.0764,-0.0846,-0.1854,-0.1898,-0.1783,-0.1736,-0.1994,-0.2326,-0.2318,-0.1906,-0.1442,-0.1393,-0.1816,-0.1854,-0.1599,-0.1632,-0.1579,-0.1077,-0.0698,-0.0687,-0.0706,-0.0742,-0.0816,-0.0893,-0.097,-0.103,-0.1027,-0.0893,-0.0637,-0.0385,-0.0206,-0.0203,-0.0382,-0.0489,-0.0536,-0.0651,-0.0731,-0.0673,-0.0538,-0.053,-0.0676,-0.0689,-0.0541,-0.0626,-0.0884,-0.1008,-0.1038,-0.1038,-0.1,-0.058,-0.0511,-0.0665,-0.0953,-0.1148,-0.1239,-0.1318,-0.1321,-0.114,-0.0898,-0.0868,-0.1225,-0.1524,-0.1406,-0.0898,-0.0615,-0.0695,-0.0695,-0.0698,-0.0717,-0.075,-0.0794,-0.0832,-0.0835,-0.0764,-0.0626,-0.045,-0.028,-0.0209,-0.0253,-0.0305,-0.0299,-0.0302,-0.0434,-0.0626,-0.0676,-0.0656,-0.0717,-0.0791,-0.0769,-0.0753,-0.0775,-0.0846,-0.0948,-0.092,-0.0755,-0.0569,-0.0082,-0.0055,-0.0302,-0.0448,-0.0456,-0.056,-0.0698,-0.0843,-0.0879,-0.0832,-0.0731,-0.0571,-0.047,-0.0483,-0.0503,-0.0525,-0.0538,-0.053,-0.0538,-0.0549,-0.0538,-0.0519,-0.0492,-0.0459,-0.0417,-0.0382,-0.0376,-0.0393,-0.0393,-0.0357,-0.0299,-0.0233,-0.0192,-0.0266,-0.0497,-0.0695,-0.0758,-0.0794,-0.0816,-0.0808,-0.0871,-0.0923,-0.0846,-0.0659,-0.0423,-0.022,-0.0118,-0.0211,0.0038,0.0102,0.0036,-0.0005,-0.0151,-0.0266,-0.0365,-0.0503,-0.0634,-0.0706,-0.07,-0.0618,-0.0508,-0.0426,-0.0379,-0.0338,-0.0277,-0.0236,-0.022,-0.0242,-0.0275,-0.0313,-0.0374,-0.045,-0.0536,-0.0599,-0.0604,-0.056,-0.0481,-0.036,-0.0242,-0.0187,-0.0283,-0.05,-0.0703,-0.081,-0.0832,-0.0843,-0.0876,-0.0854,-0.0706,-0.0508,-0.0308,-0.0143,-0.0036,0.0038,0.011,0.0824,0.0884,0.0577,0.0396,0.0258,0.0157,0.0077,-0.0071,-0.0305,-0.0533,-0.0656,-0.0667,-0.0588,-0.0461,-0.0365,-0.0294,-0.0217,-0.0154,-0.014,-0.0187,-0.0269,-0.0401,-0.058,-0.0722,-0.0777,-0.0766,-0.0725,-0.0659,-0.0549,-0.0404,-0.0269,-0.0242,-0.0396,-0.0634,-0.0802,-0.0868,-0.086,-0.0802,-0.0717,-0.0621,-0.0489,-0.0393,-0.0376,-0.0313,-0.0162,0.0011,0.0684,0.1181,0.0868,0.0571,0.0448,0.0385,0.033,0.019,-0.003,-0.0222,-0.0363,-0.0456,-0.0511,-0.0492,-0.0404,-0.0327,-0.0283,-0.0244,-0.0244,-0.0275,-0.0297,-0.0349,-0.0483,-0.0645,-0.0725,-0.0684,-0.0602,-0.0549,-0.0522,-0.0475,-0.039,-0.0338,-0.0417,-0.0613,-0.0794,-0.0871,-0.0824,-0.0678,-0.0536,-0.0475,-0.053,-0.0651,-0.0645,-0.0401,-0.0033,0.0294,0.05,0.1003,0.0912,0.0371,0.0179,0.0192,0.0187,0.0091,-0.0093,-0.0247,-0.0321,-0.0346,-0.0332,-0.0319,-0.0313,-0.0286,-0.0258,-0.0272,-0.0316,-0.036,-0.0371,-0.036,-0.0349,-0.0357,-0.0349,-0.0269,-0.014,-0.0038,-0.0044,-0.0129,-0.0242,-0.033,-0.0409,-0.0536,-0.0706,-0.0813,-0.0755,-0.0555,-0.0368,-0.039,-0.058,-0.0695,-0.0544,-0.0154,0.0319,0.0709,0.0912,0.0926,0.0994,0.0607,0.0088,-0.0063,-0.0093,-0.0151,-0.0283,-0.039,-0.0417,-0.0398,-0.0352,-0.0305,-0.0297,-0.0327,-0.0341,-0.0332,-0.0349,-0.0387,-0.0431,-0.0445,-0.0385,-0.0255,-0.0104,0.0071,0.0283,0.0486,0.0574,0.0508,0.0319,0.0041,-0.0209,-0.0354,-0.0464,-0.0574,-0.0577,-0.0352,-0.0121,-0.0165,-0.0363,-0.045,-0.0286,0.0074,0.0461,0.0769,0.0942,0.0961,0.0838,0.0904,0.0525,0.0118,-0.0071,-0.0154,-0.0195,-0.0225,-0.0253,-0.0294,-0.0324,-0.0324,-0.0327,-0.0368,-0.0437,-0.0478,-0.047,-0.0442,-0.0426,-0.0431,-0.0407,-0.0299,-0.011,0.0124,0.0374,0.0621,0.0783,0.0772,0.0643,0.0453,0.0195,-0.0044,-0.0201,-0.0299,-0.0297,-0.0058,0.0225,0.0195,-0.0074,-0.0247,-0.0165,0.0093,0.0396,0.0648,0.0827,0.0923,0.0871,0.0659,0.0857,0.0698,0.0445,0.0236,0.017,0.0198,0.0247,0.0225,0.0082,-0.0099,-0.0228,-0.031,-0.0379,-0.0467,-0.053,-0.0525,-0.047,-0.0404,-0.0343,-0.0272,-0.0146,0.0058,0.0305,0.0536,0.0676,0.0654,0.0533,0.0415,0.0291,0.0176,0.0096,0.0003,-0.0019,0.0201,0.053,0.0637,0.0379,0.0027,-0.006,0.0124,0.0363,0.0558,0.0703,0.0808,0.0884,0.0865,0.0681,0.0876,0.0978,0.0934,0.0736,0.0607,0.0596,0.0637,0.0626,0.0453,0.0195,0.0003,-0.0115,-0.0195,-0.0294,-0.0396,-0.0442,-0.0404,-0.0321,-0.0217,-0.0104,0.0019,0.0192,0.0387,0.0503,0.047,0.0352,0.0269,0.0217,0.0113,0.0047,0.0088,0.0214,0.0459,0.0816,0.1088,0.1049,0.0835,0.0569,0.0415,0.0519,0.0711,0.084,0.0884,0.0865,0.0819,0.078,0.0678]},{"header":{"parameterUnit":"m.s-1","parameterCategory":2,"la1":30.8641,"la2":29.7642,"lo1":-88.4676,"lo2":-86.9344,"dy":0.0333,"dx":0.0333,"nx":47,"ny":34,"refTime":"2023-03-24T00:00:00:Z","depth":"2","parameterNumber":3,"parameterNumberName":"V-component_of_CURRENTS"},"data":[0,0,0,0,0,0,0,0,0,0,0,0,0,0,0,0,0,0,0,0,0,0,0,0,0,0,0,0,0,0,0,0,0,0,0,0,0,0,0,0,0,0,0,0,0,0,0,0,0,0,0,0,0,0,0,0,0,0,0,0,0,0,0,0,0,0,0,0,0,0,0,0,0,0,0,0,0,0,0,0,0,0,0,0,0,0,0,0,0,0,0,0,0,0,0,0,0,0,0,0,0,0,0,0,0,0,0,0,0,0,0,0,0,0,0,0,0,0,0,0,0,0,0,0,0,0,0,0,0,0,0,0,0,0,0,0,0,0,0,0,0,0,0,0,0,0,0,0,0,0,0,0,0,0,0,0,0,0,0,0,0,0,0,0,0,0,0,0,0,0,0,0,0,0,0,0,0,0,0,0,0,0,0,0,0,0,0,0,0,0,0,0,0,0,0,0,0,0,0,0,0,0,0,0,0,0,0,0,0,0,0,0,0,0,0,0,0,0,0,0,0,0,0,0,0,0,0,0,0,0,0,0,0,0,0,0,0,0,0,0,0,0,0,0,0,0,0,0,0,0,0,0,0,0,0,0,0,0,0,0,0,0,0,0,0,0,0,0,0,0,0,0,0,0,0,0,0,0,0,0,0,0,0,0,0,0,0,0,0,0,0,0,0,0,0,0,0.0382,-0.1214,0,0,0,0,0,0,0,0,0,0,0,0,0,0,0,0,0,0,0,0,0,0,0,0,0,0,0,0,0,0,0,0,0,0,0,0,0,0,0,0,0,0,0,0,0.0928,-0.0261,-0.1373,-0.1431,0,0,0,0,0,0,0,0,0,0,0,0,0,0,0,0,0,0,0,0,0,0,0,0,0,0,0,0,0,0,0,0,0,0,0,0,0,0,0,0,0,0,0,0.0714,-0.0843,-0.173,-0.1684,0,0,0,0,0,0,0,0,0,0,0,0,0,0,0,0,0,0,0,0,0,0,0,0,0,0,0,0,0,0,0,0,0,0,0,0,0,0,0,0,0,0,-0.0846,0.0426,-0.0665,-0.1758,-0.1818,0,0,0,0,0,0,0,0,0,0,0,0,0,0,0,0,0,0,0,0,0,0,0,0,0,0,0,0,0,0,0,0,0,0,0,0,0,0,0,0,0,0,-0.1404,0.0154,-0.0027,-0.1187,-0.142,0,0,0,0,0,0,0,0,0,0,0,0,0,0,0,0,0,0,0,0,0,0,0,0,0,0,0,0,0,0,0,0,0,0,0,0,0,0,0,0,0,0,-0.1052,-0.0269,0.0363,-0.0426,-0.1483,0,0,0,0,0,0,0,0,0,0,0,0,0,0,0,0,0,0,0,0,0,0,0,0,0,0,0,0,0,0,0,0,0,0,0,0,0,0,0,0,0,0,0.0934,0.0151,0.0091,-0.0821,-0.2186,0,0,0,0,0,0,0,0,0,0,0,0,0,0,0,0,0,0,0,0,0,0,0,0,0,0,-0.095,0.0415,0,0,0,0,0,0,0,0,0,0,0,0,0,0.2087,0.1607,0.0563,-0.0387,-0.2093,-0.2513,0,0,0,0,0,0,0,0,0,0,0,0,0,0,0,0,0,0,0,0,0,0,-0.0753,-0.0519,0.0706,0.0,-0.0475,0.0209,0,0,0,0,0,0,0,0,0,0,0,0,0,0.1758,0.0978,0.0146,-0.0959,-0.251,-0.1868,0.1453,0,0,0,0,0,0,0,0,0,0,0,0,0,0,0,0,0,0,0,0,-0.0168,-0.0376,-0.0261,0.0354,0,0,0,0,0,0,0,0,-0.0313,-0.0005,-0.0434,0,0,0,0,0,0.0926,0.0662,-0.0118,-0.1167,-0.2104,-0.0948,0.1313,0.0319,0,0,0,0,0,0,0,0,0,0,0,0,0,0,0,0,0,0,-0.0044,-0.0082,0,0,0,0,0,0,0,-0.0483,0,-0.036,0.1263,-0.0044,0.0247,-0.0176,0,0,0,0,0,-0.0033,0.0742,-0.0143,-0.0887,-0.1351,-0.0277,0.0978,0.0393,-0.0857,0,0,0,0,0,0,0,0,0,0,0,0,0,0,0,0,-0.086,0.0052,0,0,-0.0165,-0.0794,-0.0975,-0.0772,-0.0497,-0.0566,-0.0585,0.0744,0.0354,0.1052,-0.0126,-0.0321,-0.028,0.031,0.1637,0.1214,0.0,0.0,-0.0228,0.0692,0.0019,-0.0272,-0.0527,0.0036,0.0354,0.0184,-0.0681,0.0687,0,0,0,0,0,0,0,0,0,0,0,0,-0.0195,0.0157,-0.0165,-0.0692,-0.0085,0.0717,0.0074,-0.0396,-0.1093,-0.1077,-0.0533,-0.0396,-0.0519,-0.0621,-0.0077,0.0483,0.0731,-0.0687,-0.1228,-0.0324,0.0157,0.1544,0.0989,0,0,0,0.0066,0.1143,0.0036,-0.0088,0.0,-0.0036,-0.0049,-0.0277,0.0343,0,0,0,0,0,0,0,-0.0198,-0.1011,0.0179,0.0162,-0.0437,0.0157,0.0538,0.0157,-0.0577,-0.0569,0.0286,-0.0102,-0.0953,-0.1151,-0.0607,-0.0225,-0.0338,-0.0398,-0.0365,-0.045,-0.0052,0.0415,-0.0777,-0.0607,0,0,0.0678,0.1272,0.1022,0.1415,0.1758,-0.0173,0.1986,0,0,0,0,0,0,0,0,-0.0099,-0.0165,-0.0003,-0.0126,-0.0047,-0.0093,-0.0195,-0.0662,-0.0121,-0.0277,-0.0291,0.0772,0.0882,0.0547,-0.0242,-0.0717,-0.0426,-0.0953,-0.1313,-0.0604,-0.0157,-0.0286,-0.0277,-0.0184,-0.0082,0,0,-0.0305,-0.0434,0.0332,0.0574,0.0467,0.0192,0.167,0.1502,0.1991,0.1835,0,0.1373,0.1093,0.0093,-0.0261,-0.0148,0.0011,-0.0113,-0.0159,0.0019,-0.0077,-0.0096,0.0088,0.0036,-0.0047,-0.0181,-0.0387,-0.0607,-0.0217,0.0187,0.0656,0.1217,0.0854,0.0492,-0.0159,-0.0783,-0.1052,-0.1288,-0.0775,-0.0074,-0.0121,-0.022,-0.0082,0.0,0.0027,-0.0346,-0.1121,-0.0873,-0.0258,0.0319,0.0983,0.086,0.0698,0.1467,0.2076,0.259,0.1887,0.0703,0.0665,0.084,0.0206,-0.0118,0.0085,0.0176,0.0129,0.0118,0.0201,0.0085,0.0099,0.0236,0.0121,-0.0162,-0.0266,-0.0211,0.008,0.0599,0.103,0.1016,0.0846,0.05,0.019,-0.0302,-0.081,-0.0953,-0.0637,-0.0088,0.0091,0.0014,0.0044,0.0099,0.0036,-0.0011,0.0071,-0.0755,-0.0629,-0.0082,0.0492,0.1057,0.0997,0.097,0.1206,0.1722,0.2167,0.1777,0.0882,0.0755,0.0898,0.0382,0.0074,0.0439,0.0396,0.0382,0.0385,0.0376,0.0327,0.0327,0.0275,0.0049,-0.0027,0.0181,0.0503,0.0736,0.0928,0.0805,0.0637,0.0486,0.0346,0.0121,-0.0135,-0.0335,-0.0258,0.0033,0.0008,0.0132,0.0195,0.0332,0.0264,0.0115,0.0082,0.028,-0.0179,-0.0179,0.0288,0.0602,0.0673,0.0775,0.0978,0.0964,0.1162,0.1439,0.1346,0.114,0.0909,0.0703,0.0283,0.0442,0.064,0.0536,0.0505,0.0453,0.0439,0.0445,0.0423,0.0313,0.022,0.0327,0.053,0.058,0.0489,0.0461,0.0428,0.0453,0.0648,0.0819,0.0662,0.036,0.0203,0.0151,0.003,-0.0016,0.0203,0.0222,0.0277,0.0231,0.0206,0.0288,-0.0055,0.0014,0.022,0.0569,0.0626,0.0797,0.1137,0.1261,0.1195,0.1173,0.111,0.1016,0.0953,0.0621,0.05,0.0577,0.0769,0.0687,0.0632,0.0569,0.0472,0.0423,0.042,0.0415,0.0393,0.0423,0.0481,0.0483,0.0439,0.0428,0.0321,0.0176,0.0294,0.0684,0.0989,0.0887,0.0494,0.0201,0.0019,-0.0082,0.0151,0.0387,0.0401,0.0338,0.0291,0.0294,0.0404,-0.0261,0.0055,0.0396,0.0533,0.0695,0.0879,0.1187,0.1302,0.1349,0.139,0.1296,0.1176,0.0972,0.0725,0.0851,0.0937,0.0808,0.0711,0.0656,0.0577,0.0486,0.0423,0.0398,0.0407,0.0415,0.0442,0.0453,0.047,0.0486,0.0448,0.0299,0.0157,0.0214,0.0461,0.0591,0.0475,0.0176,-0.0066,-0.0088,0.0121,0.0503,0.0706,0.0687,0.0472,0.017,-0.0049,-0.0049,-0.0448,0.0027,0.0442,0.0538,0.0717,0.0791,0.1008,0.1121,0.1217,0.131,0.1332,0.1274,0.1162,0.1082,0.1022,0.0967,0.0882,0.0772,0.0692,0.0596,0.0508,0.045,0.0407,0.0385,0.036,0.0365,0.0412,0.0516,0.0585,0.0541,0.0401,0.0266,0.0275,0.0412,0.0376,0.0179,-0.0049,-0.011,0.0151,0.0588,0.0851,0.0731,0.0305,-0.0176,-0.0511,-0.0585,-0.0354,-0.0442,0.0266,0.0764,0.0717,0.0709,0.0761,0.0934,0.1035,0.1077,0.111,0.1176,0.1241,0.1222,0.1178,0.1121,0.1088,0.1027,0.0893,0.0775,0.0651,0.0536,0.0428,0.0338,0.0288,0.0266,0.0302,0.0431,0.0604,0.0711,0.0706,0.0582,0.0412,0.0365,0.0412,0.0255,-0.0003,-0.0093,0.0143,0.0588,0.0799,0.0552,0.0052,-0.0349,-0.0494,-0.0327,0.0088,0.0662,0.0096,0.0824,0.1041,0.0829,0.0689,0.0731,0.0854,0.0948,0.1008,0.1022,0.1027,0.1118,0.1228,0.1269,0.1231,0.1189,0.1151,0.1019,0.0857,0.07,0.0536,0.0343,0.0195,0.0159,0.0201,0.0305,0.0489,0.0681,0.0816,0.0857,0.0742,0.0541,0.0481,0.0431,0.0176,-0.0069,0.0074,0.047,0.0651,0.0423,0.0038,-0.0203,-0.0107,0.028,0.0846,0.1461,0.2002,0.0626,0.1132,0.1055,0.0824,0.0684,0.07,0.0788,0.0904,0.0997,0.1022,0.1,0.1085,0.1261,0.1371,0.134,0.1266,0.1206,0.1082,0.0906,0.0744,0.0549,0.0302,0.0129,0.0121,0.022,0.0379,0.0591,0.0769,0.0895,0.0945,0.0821,0.0637,0.0552,0.0379,0.0102,0.0069,0.0371,0.0588,0.0423,0.0132,0.0005,0.0107,0.042,0.0904,0.1458,0.1967,0.2343,0.0728,0.1085,0.0997,0.0786,0.0626,0.061,0.0742,0.0884,0.0989,0.1033,0.1052,0.1165,0.1354,0.1486,0.1464,0.1351,0.1225,0.1082,0.0926,0.0788,0.061,0.0374,0.022,0.0233,0.0363,0.056,0.0786,0.0926,0.0983,0.0961,0.0827,0.0659,0.0503,0.031,0.0187,0.0288,0.0527,0.0492,0.0214,0.0003,-0.0063,0.0069,0.0409,0.081,0.12,0.1519,0.1747,0.0678,0.1055,0.0931,0.0692,0.0492,0.0486,0.067,0.0851,0.097,0.1074,0.1156,0.1252,0.1398,0.1527,0.1535,0.1426,0.1266,0.1096,0.0945,0.0829,0.0689,0.0522,0.0428,0.0483,0.0662,0.089,0.1066,0.1107,0.1052,0.0904,0.0728,0.0566,0.0426,0.0288,0.0132,0.0088,0.0217,0.014,-0.0132,-0.0335,-0.0368,-0.0135,0.0176,0.0417,0.0621,0.0753,0.0819,0.0613,0.1003,0.0882,0.0623,0.0396,0.039,0.0574,0.0819,0.097,0.1096,0.1203,0.1263,0.1354,0.1486,0.1535,0.1464,0.1318,0.114,0.0983,0.0868,0.0777,0.0709,0.07,0.0821,0.1038,0.1211,0.1233,0.1167,0.1055,0.0829,0.0547,0.0387,0.033,0.0151,-0.025,-0.0426,-0.0201,-0.0107,-0.0341,-0.0538,-0.0494,-0.0288,-0.0192,-0.0181,-0.0195,-0.0201,-0.0203,0.0555,0.0893,0.0843,0.0645,0.0453,0.0404,0.0527,0.0797,0.1008,0.1123,0.1198,0.1228,0.1272,0.139,0.1472,0.1442,0.1327,0.1173,0.1033,0.0928,0.0898,0.092,0.0989,0.1148,0.1291,0.1294,0.1192,0.1126,0.1044,0.0791,0.0486,0.0363,0.025,-0.0033,-0.045,-0.061,-0.0354,-0.0137,-0.0302,-0.0533,-0.0577,-0.0582,-0.07,-0.0868,-0.1041,-0.1118,-0.1063]}],[{"header":{"parameterUnit":"m.s-1","parameterCategory":2,"la1":30.8641,"la2":29.7642,"lo1":-88.4676,"lo2":-86.9344,"dy":0.0333,"dx":0.0333,"nx":47,"ny":34,"refTime":"2023-03-24T00:00:00:Z","depth":"4","parameterNumber":2,"parameterNumberName":"U-component_of_CURRENTS"},"data":[0,0,0,0,0,0,0,0,0,0,0,0,0,0,0,0,0,0,0,0,0,0,0,0,0,0,0,0,0,0,0,0,0,0,0,0,0,0,0,0,0,0,0,0,0,0,0,0,0,0,0,0,0,0,0,0,0,0,0,0,0,0,0,0,0,0,0,0,0,0,0,0,0,0,0,0,0,0,0,0,0,0,0,0,0,0,0,0,0,0,0,0,0,0,0,0,0,0,0,0,0,0,0,0,0,0,0,0,0,0,0,0,0,0,0,0,0,0,0,0,0,0,0,0,0,0,0,0,0,0,0,0,0,0,0,0,0,0,0,0,0,0,0,0,0,0,0,0,0,0,0,0,0,0,0,0,0,0,0,0,0,0,0,0,0,0,0,0,0,0,0,0,0,0,0,0,0,0,0,0,0,0,0,0,0,0,0,0,0,0,0,0,0,0,0,0,0,0,0,0,0,0,0,0,0,0,0,0,0,0,0,0,0,0,0,0,0,0,0,0,0,0,0,0,0,0,0,0,0,0,0,0,0,0,0,0,0,0,0,0,0,0,0,0,0,0,0,0,0,0,0,0,0,0,0,0,0,0,0,0,0,0,0,0,0,0,0,0,0,0,0,0,0,0,0,0,0,0,0,0,0,0,0,0,0,0,0,0,0,0,0,0,0,0,0,0,0.0162,0.0327,0,0,0,0,0,0,0,0,0,0,0,0,0,0,0,0,0,0,0,0,0,0,0,0,0,0,0,0,0,0,0,0,0,0,0,0,0,0,0,0,0,0,0,0,0.028,0.0645,0.0415,0.0102,0,0,0,0,0,0,0,0,0,0,0,0,0,0,0,0,0,0,0,0,0,0,0,0,0,0,0,0,0,0,0,0,0,0,0,0,0,0,0,0,0,0,0,-0.0074,-0.0192,-0.0107,0.0022,0,0,0,0,0,0,0,0,0,0,0,0,0,0,0,0,0,0,0,0,0,0,0,0,0,0,0,0,0,0,0,0,0,0,0,0,0,0,0,0,0,0,-0.0415,-0.0651,-0.0371,-0.0027,0.0211,0,0,0,0,0,0,0,0,0,0,0,0,0,0,0,0,0,0,0,0,0,0,0,0,0,0,0,0,0,0,0,0,0,0,0,0,0,0,0,0,0,0,-0.0091,-0.0137,0.0126,0.0478,0.0607,0,0,0,0,0,0,0,0,0,0,0,0,0,0,0,0,0,0,0,0,0,0,0,0,0,0,0,0,0,0,0,0,0,0,0,0,0,0,0,0,0,0,0.0481,0.0739,0.0808,0.1068,0.1038,0,0,0,0,0,0,0,0,0,0,0,0,0,0,0,0,0,0,0,0,0,0,0,0,0,0,0,0,0,0,0,0,0,0,0,0,0,0,0,0,0,0,0.1236,0.1409,0.1137,0.075,0.0654,0,0,0,0,0,0,0,0,0,0,0,0,0,0,0,0,0,0,0,0,0,0,0,0,0,0,-0.0192,-0.0382,0,0,0,0,0,0,0,0,0,0,0,0,0,-0.0069,-0.0489,-0.0873,-0.0538,-0.0071,0.0025,0,0,0,0,0,0,0,0,0,0,0,0,0,0,0,0,0,0,0,0,0,0,-0.0242,-0.025,-0.0005,-0.0121,-0.0385,-0.053,0,0,0,0,0,0,0,0,0,0,0,0,0,-0.0211,-0.0978,-0.1689,-0.15,-0.0895,-0.0744,-0.0843,0,0,0,0,0,0,0,0,0,0,0,0,0,0,0,0,0,0,0,0,0.0349,0.0665,0.0335,0.0041,0,0,0,0,0,0,0,0,-0.0231,0.0058,0.0569,0,0,0,0,0,-0.0277,-0.0843,-0.131,-0.1148,-0.039,0.0124,-0.0038,-0.0107,0,0,0,0,0,0,0,0,0,0,0,0,0,0,0,0,0,0,0.136,0.1805,0,0,0,0,0,0,0,-0.0272,0,-0.0225,-0.0187,0.0041,-0.0052,-0.0104,0,0,0,0,0,-0.0022,0.011,0.017,0.0132,0.0352,0.0662,0.056,0.0291,0.0266,0,0,0,0,0,0,0,0,0,0,0,0,0,0,0,0,0.0873,0.095,0,0,-0.0104,-0.025,-0.0409,-0.0415,-0.0363,-0.0514,-0.07,-0.1291,-0.0791,-0.0761,-0.1063,-0.0945,-0.0769,-0.0651,0.0154,0.1689,0.2442,0.1892,0.1187,0.1003,0.131,0.1469,0.1277,0.0953,0.0398,0.0011,-0.0332,-0.0645,0,0,0,0,0,0,0,0,0,0,0,0,-0.0102,0.0217,0.0659,0.0409,-0.0352,-0.0602,-0.0294,-0.0431,-0.0678,-0.0659,-0.0618,-0.0681,-0.0849,-0.0939,-0.1167,-0.1524,-0.1365,-0.0851,-0.0179,0.017,0.0077,0.0231,0.0459,0,0,0,0.0621,0.1577,0.122,0.0596,0.0426,0.0093,-0.0027,0.0135,0.0324,0,0,0,0,0,0,0,0.0038,-0.0063,-0.0176,-0.0222,-0.033,-0.0151,0.0146,0.0327,0.0231,0.0203,0.0244,-0.0346,-0.0975,-0.1014,-0.0821,-0.0764,-0.0876,-0.1008,-0.0972,-0.0764,-0.0648,-0.0613,-0.0093,0.0258,0,0,-0.0327,-0.0618,-0.0316,0.0651,0.2574,0.3046,0.2329,0,0,0,0,0,0,0,0,-0.003,-0.0159,-0.0104,0.0115,0.033,0.0211,0.0247,0.0461,0.056,0.0426,0.0165,0.0297,0.0555,0.0305,0.0143,0.0321,-0.0085,-0.1014,-0.1395,-0.1162,-0.092,-0.0898,-0.0904,-0.086,-0.0747,0,0,-0.0431,-0.1035,-0.1373,-0.1198,-0.0203,0.0409,0.0255,0.0093,0.0387,0.0742,0,-0.0681,-0.1068,-0.0637,-0.0508,-0.0412,-0.0214,-0.0082,-0.0008,0.0074,-0.0011,-0.0217,-0.0247,-0.0176,-0.0124,-0.0104,-0.0008,-0.0038,-0.0203,-0.028,-0.0297,-0.0115,0.0069,0.0016,0.014,0.0022,-0.0709,-0.1269,-0.1406,-0.1181,-0.095,-0.0868,-0.0733,-0.0643,-0.0645,-0.0846,-0.0714,-0.0868,-0.0992,-0.1401,-0.1195,-0.0508,-0.0242,-0.0396,-0.045,-0.0324,-0.0423,-0.0511,-0.0261,-0.0214,-0.0549,-0.0758,-0.0698,-0.0602,-0.0591,-0.0602,-0.0596,-0.0596,-0.0596,-0.0541,-0.0409,-0.0255,-0.0283,-0.0423,-0.0651,-0.0824,-0.0772,-0.0618,-0.0547,-0.0475,-0.0305,-0.0272,-0.0574,-0.0937,-0.1085,-0.1041,-0.0871,-0.07,-0.0574,-0.0538,-0.0634,-0.0802,-0.1228,-0.114,-0.1159,-0.1527,-0.1912,-0.1722,-0.1181,-0.0832,-0.0731,-0.0678,-0.0667,-0.0659,-0.064,-0.0648,-0.0681,-0.0747,-0.0898,-0.0851,-0.0731,-0.0728,-0.0753,-0.0808,-0.0846,-0.0843,-0.0791,-0.0615,-0.0297,-0.0154,-0.0211,-0.0467,-0.0676,-0.0791,-0.0945,-0.092,-0.0728,-0.0558,-0.0577,-0.0731,-0.0928,-0.095,-0.0802,-0.072,-0.0689,-0.0665,-0.0698,-0.0775,-0.086,-0.0758,-0.0824,-0.136,-0.1903,-0.2164,-0.2164,-0.1931,-0.1574,-0.1384,-0.1423,-0.1346,-0.1003,-0.0618,-0.0547,-0.0717,-0.0972,-0.0934,-0.0714,-0.0703,-0.0725,-0.0788,-0.0865,-0.0939,-0.0983,-0.0961,-0.0829,-0.061,-0.0514,-0.0516,-0.0426,-0.0412,-0.0486,-0.0558,-0.0689,-0.0758,-0.0766,-0.0805,-0.0895,-0.0975,-0.1033,-0.0827,-0.0703,-0.0904,-0.1025,-0.1057,-0.106,-0.1022,-0.0645,-0.0689,-0.1107,-0.1412,-0.1335,-0.1258,-0.1313,-0.1291,-0.1137,-0.095,-0.0948,-0.1173,-0.1145,-0.1019,-0.1035,-0.089,-0.0722,-0.0692,-0.0689,-0.0709,-0.0742,-0.0786,-0.0829,-0.0846,-0.0829,-0.0777,-0.0648,-0.0464,-0.0299,-0.0275,-0.0313,-0.0321,-0.0346,-0.0511,-0.0747,-0.0854,-0.1003,-0.1184,-0.125,-0.1066,-0.0854,-0.0797,-0.0862,-0.0964,-0.0939,-0.0777,-0.0588,-0.07,-0.0824,-0.0942,-0.0797,-0.0591,-0.0566,-0.0698,-0.0843,-0.0879,-0.0832,-0.0731,-0.0604,-0.0582,-0.0599,-0.0552,-0.0533,-0.0536,-0.0527,-0.0536,-0.0544,-0.0536,-0.0516,-0.0489,-0.0459,-0.042,-0.0387,-0.0379,-0.0396,-0.0396,-0.036,-0.0305,-0.0244,-0.0206,-0.028,-0.0533,-0.0824,-0.0994,-0.1049,-0.0983,-0.0879,-0.0893,-0.0939,-0.0868,-0.0689,-0.0461,-0.0264,-0.0165,-0.0769,-0.0538,-0.0407,-0.0302,-0.0148,-0.0187,-0.028,-0.0376,-0.0505,-0.0632,-0.0703,-0.07,-0.0621,-0.0508,-0.0426,-0.0379,-0.0335,-0.0275,-0.0231,-0.0217,-0.0239,-0.0272,-0.0313,-0.0374,-0.0448,-0.0536,-0.0599,-0.0604,-0.0558,-0.0481,-0.0365,-0.0255,-0.0214,-0.0305,-0.0511,-0.0714,-0.0846,-0.0868,-0.0868,-0.0893,-0.0871,-0.0728,-0.0538,-0.0343,-0.0179,-0.0071,0.0005,-0.0327,0.0483,0.0728,0.0492,0.0335,0.0222,0.0137,0.006,-0.0085,-0.031,-0.0536,-0.0656,-0.0667,-0.0588,-0.0461,-0.0365,-0.0291,-0.0211,-0.0151,-0.014,-0.0187,-0.0269,-0.0404,-0.058,-0.0722,-0.0777,-0.0766,-0.0725,-0.0659,-0.0549,-0.0409,-0.0283,-0.0264,-0.0417,-0.0654,-0.0824,-0.089,-0.0879,-0.0819,-0.0736,-0.0645,-0.0514,-0.0415,-0.0396,-0.0335,-0.0184,-0.0011,0.028,0.0945,0.075,0.0497,0.0398,0.036,0.0313,0.0176,-0.0041,-0.0233,-0.0371,-0.0459,-0.0514,-0.0494,-0.0404,-0.0327,-0.0277,-0.0242,-0.0242,-0.0272,-0.0297,-0.0354,-0.0489,-0.0651,-0.0728,-0.0687,-0.0604,-0.0549,-0.0522,-0.0472,-0.0393,-0.0343,-0.0428,-0.0629,-0.081,-0.0893,-0.0846,-0.0698,-0.0555,-0.0494,-0.0549,-0.0667,-0.0662,-0.042,-0.0055,0.0266,0.0467,0.0604,0.0714,0.0272,0.0118,0.0162,0.0173,0.008,-0.0107,-0.0258,-0.0327,-0.0352,-0.0335,-0.0321,-0.0316,-0.0288,-0.0258,-0.0269,-0.0313,-0.0357,-0.0371,-0.036,-0.0354,-0.0365,-0.0357,-0.028,-0.0148,-0.0047,-0.0049,-0.0132,-0.0242,-0.0332,-0.0415,-0.0547,-0.0722,-0.0827,-0.0775,-0.0574,-0.0385,-0.0404,-0.0591,-0.0709,-0.056,-0.0173,0.0294,0.0676,0.0876,0.0887,0.0698,0.0478,0.0036,-0.0091,-0.0107,-0.0162,-0.0294,-0.0398,-0.0423,-0.0404,-0.0354,-0.0308,-0.0299,-0.0327,-0.0341,-0.0332,-0.0346,-0.0387,-0.0431,-0.0445,-0.0387,-0.0264,-0.0115,0.0055,0.0266,0.0472,0.056,0.05,0.0313,0.0038,-0.0211,-0.0363,-0.0475,-0.0588,-0.0591,-0.0368,-0.0137,-0.0179,-0.0379,-0.0464,-0.0302,0.0055,0.0437,0.0739,0.0909,0.0928,0.081,0.0731,0.0456,0.0085,-0.0088,-0.0168,-0.0211,-0.0236,-0.0261,-0.0299,-0.0327,-0.0327,-0.033,-0.0368,-0.0437,-0.0475,-0.0467,-0.0439,-0.0426,-0.0431,-0.0407,-0.0302,-0.0118,0.0107,0.0357,0.0604,0.0766,0.0758,0.0629,0.0442,0.019,-0.0049,-0.0206,-0.031,-0.0316,-0.0082,0.0198,0.0176,-0.0091,-0.0264,-0.0181,0.0077,0.0376,0.0623,0.0802,0.0898,0.0849,0.064,0.0733,0.064,0.0412,0.0217,0.0154,0.0181,0.0233,0.0214,0.0074,-0.0104,-0.0233,-0.031,-0.0379,-0.0464,-0.0527,-0.0522,-0.047,-0.0404,-0.0343,-0.0275,-0.0151,0.0044,0.0288,0.0516,0.0659,0.064,0.0519,0.0404,0.0283,0.0168,0.0091,-0.0003,-0.003,0.0179,0.05,0.061,0.0357,0.0011,-0.0074,0.0107,0.0343,0.0538,0.0684,0.0788,0.0865,0.0846,0.0659,0.0791,0.0926,0.0893,0.0709,0.0591,0.0585,0.0626,0.0615,0.0439,0.0187,-0.0003,-0.0115,-0.0195,-0.0291,-0.0393,-0.0439,-0.0401,-0.0321,-0.022,-0.0107,0.0014,0.0184,0.0374,0.0489,0.0459,0.0343,0.0258,0.0206,0.0102,0.0038,0.008,0.0206,0.0445,0.0797,0.1063,0.1022,0.0808,0.0547,0.0398,0.0503,0.0695,0.0821,0.0868,0.0851,0.0802,0.0764,0.0656]},{"header":{"parameterUnit":"m.s-1","parameterCategory":2,"la1":30.8641,"la2":29.7642,"lo1":-88.4676,"lo2":-86.9344,"dy":0.0333,"dx":0.0333,"nx":47,"ny":34,"refTime":"2023-03-24T00:00:00:Z","depth":"4","parameterNumber":3,"parameterNumberName":"V-component_of_CURRENTS"},"data":[0,0,0,0,0,0,0,0,0,0,0,0,0,0,0,0,0,0,0,0,0,0,0,0,0,0,0,0,0,0,0,0,0,0,0,0,0,0,0,0,0,0,0,0,0,0,0,0,0,0,0,0,0,0,0,0,0,0,0,0,0,0,0,0,0,0,0,0,0,0,0,0,0,0,0,0,0,0,0,0,0,0,0,0,0,0,0,0,0,0,0,0,0,0,0,0,0,0,0,0,0,0,0,0,0,0,0,0,0,0,0,0,0,0,0,0,0,0,0,0,0,0,0,0,0,0,0,0,0,0,0,0,0,0,0,0,0,0,0,0,0,0,0,0,0,0,0,0,0,0,0,0,0,0,0,0,0,0,0,0,0,0,0,0,0,0,0,0,0,0,0,0,0,0,0,0,0,0,0,0,0,0,0,0,0,0,0,0,0,0,0,0,0,0,0,0,0,0,0,0,0,0,0,0,0,0,0,0,0,0,0,0,0,0,0,0,0,0,0,0,0,0,0,0,0,0,0,0,0,0,0,0,0,0,0,0,0,0,0,0,0,0,0,0,0,0,0,0,0,0,0,0,0,0,0,0,0,0,0,0,0,0,0,0,0,0,0,0,0,0,0,0,0,0,0,0,0,0,0,0,0,0,0,0,0,0,0,0,0,0,0,0,0,0,0,0,0.0525,-0.0876,0,0,0,0,0,0,0,0,0,0,0,0,0,0,0,0,0,0,0,0,0,0,0,0,0,0,0,0,0,0,0,0,0,0,0,0,0,0,0,0,0,0,0,0,0.0895,0.0014,-0.0967,-0.0146,0,0,0,0,0,0,0,0,0,0,0,0,0,0,0,0,0,0,0,0,0,0,0,0,0,0,0,0,0,0,0,0,0,0,0,0,0,0,0,0,0,0,0,0.0201,-0.0464,-0.0873,0.0036,0,0,0,0,0,0,0,0,0,0,0,0,0,0,0,0,0,0,0,0,0,0,0,0,0,0,0,0,0,0,0,0,0,0,0,0,0,0,0,0,0,0,-0.0923,0.0055,0.0093,-0.0453,0.0288,0,0,0,0,0,0,0,0,0,0,0,0,0,0,0,0,0,0,0,0,0,0,0,0,0,0,0,0,0,0,0,0,0,0,0,0,0,0,0,0,0,0,-0.1025,0.0684,0.1057,-0.0206,0.0168,0,0,0,0,0,0,0,0,0,0,0,0,0,0,0,0,0,0,0,0,0,0,0,0,0,0,0,0,0,0,0,0,0,0,0,0,0,0,0,0,0,0,-0.0563,0.0426,0.084,-0.0478,-0.0442,0,0,0,0,0,0,0,0,0,0,0,0,0,0,0,0,0,0,0,0,0,0,0,0,0,0,0,0,0,0,0,0,0,0,0,0,0,0,0,0,0,0,0.0461,0.0085,-0.0239,-0.1272,-0.0797,0,0,0,0,0,0,0,0,0,0,0,0,0,0,0,0,0,0,0,0,0,0,0,0,0,0,-0.0346,0.0066,0,0,0,0,0,0,0,0,0,0,0,0,0,0.1011,0.1165,0.0217,-0.092,-0.1486,-0.0222,0,0,0,0,0,0,0,0,0,0,0,0,0,0,0,0,0,0,0,0,0,0,-0.0544,0.036,0.0489,0.0,-0.0173,0.0033,0,0,0,0,0,0,0,0,0,0,0,0,0,0.0761,0.1247,0.0417,-0.0981,-0.1003,0.0382,0.1398,0,0,0,0,0,0,0,0,0,0,0,0,0,0,0,0,0,0,0,0,0.1272,-0.0272,0.0181,0.0244,0,0,0,0,0,0,0,0,-0.0203,-0.011,-0.0464,0,0,0,0,0,0.0291,0.0939,0.047,-0.0492,-0.0656,0.033,0.1283,0.017,0,0,0,0,0,0,0,0,0,0,0,0,0,0,0,0,0,0,0.1549,0.0634,0,0,0,0,0,0,0,-0.0335,0,-0.0382,0.0464,-0.0236,-0.0242,-0.0508,0,0,0,0,0,-0.0047,0.0953,0.0511,-0.0104,-0.0305,0.0327,0.1162,0.0442,0.0233,0,0,0,0,0,0,0,0,0,0,0,0,0,0,0,0,0.0503,0.1555,0,0,0.0299,0.0277,-0.008,-0.0107,-0.0316,-0.0294,-0.033,0.0275,-0.0162,0.019,-0.0396,-0.0676,-0.0588,0.0266,0.153,0.192,0.0,0.0,0.0022,0.07,0.1288,0.0121,-0.0173,0.0374,0.1052,0.0613,0.045,0.0802,0,0,0,0,0,0,0,0,0,0,0,0,-0.0135,0.0461,0.008,0.0407,0.0835,0.0659,0.0143,0.0456,0.006,-0.0283,-0.028,-0.0431,-0.0407,-0.0379,0.0258,0.0324,0.0192,-0.0129,0.0115,-0.0313,0.0135,0.1475,0.1783,0,0,0,0.1046,0.3354,0.0118,-0.0129,0.014,0.047,0.025,0.0173,0.0401,0,0,0,0,0,0,0,-0.0085,0.0102,0.047,0.0591,0.0516,-0.0121,0.05,0.0044,-0.0074,0.0192,0.0665,0.0832,0.0374,-0.0151,-0.05,-0.0415,-0.0489,-0.0467,-0.0393,0.0121,0.0288,0.056,0.0673,0.1689,0,0,0.0989,0.1563,0.0981,0.1041,0.1887,0.0923,0.365,0,0,0,0,0,0,0,0,0.0016,0.0137,0.0113,0.0019,0.0148,-0.006,-0.0157,0.0126,0.0739,0.0797,0.0538,0.0555,0.0799,0.0082,-0.036,0.0066,0.0725,0.0706,-0.0066,-0.017,-0.0437,-0.039,-0.0382,-0.0297,-0.0206,0,0,0.0761,0.1206,0.1975,0.111,0.0895,0.0511,0.1239,0.0917,0.1071,0.1541,0,0.1653,0.0407,0.0286,0.036,0.014,0.0071,0.0088,0.0102,0.0115,0.0069,0.0077,0.008,0.0132,0.0179,-0.0014,0.0113,0.0519,0.0997,0.0967,0.0755,0.0695,0.0258,-0.025,-0.0195,0.0313,0.0585,0.0192,-0.0165,-0.0242,-0.0242,-0.0272,-0.0137,-0.0066,-0.0044,0.0085,0.0231,0.0533,0.131,0.1758,0.1214,0.081,0.064,0.12,0.1412,0.1489,0.1143,0.0492,0.0544,0.0541,0.0481,0.0453,0.0159,0.0102,0.0132,0.0157,0.0159,0.0135,0.003,0.0107,0.0214,0.0201,0.0264,0.0582,0.0871,0.1035,0.0983,0.0709,0.0431,0.019,0.0014,0.025,0.0363,0.0209,0.0071,0.0,-0.0168,-0.0005,-0.0011,0.0047,-0.0019,-0.0071,0.0283,0.0423,0.0906,0.1643,0.1667,0.136,0.1082,0.1187,0.1365,0.1544,0.1574,0.1241,0.0648,0.0571,0.0744,0.0821,0.0547,0.0269,0.0371,0.0338,0.0341,0.0321,0.0225,0.0198,0.0236,0.0291,0.039,0.056,0.0714,0.0821,0.0758,0.0695,0.0514,0.036,0.0319,0.0313,0.0341,0.0269,0.0179,0.0157,-0.0129,-0.0077,0.0168,0.0275,0.0203,0.0049,0.0011,0.0629,0.0893,0.1313,0.1404,0.1025,0.0953,0.1209,0.1384,0.1198,0.1176,0.1294,0.1269,0.1055,0.1077,0.1112,0.0854,0.047,0.0525,0.0533,0.0475,0.0417,0.0382,0.0354,0.031,0.0319,0.0396,0.0544,0.0613,0.0415,0.0343,0.0346,0.0374,0.0354,0.0588,0.078,0.0681,0.0489,0.0341,0.0222,-0.0049,-0.0242,0.0052,0.0165,0.0206,0.0159,0.0129,0.0214,0.0582,0.0978,0.1121,0.0876,0.0558,0.0838,0.1178,0.1294,0.1159,0.1107,0.1093,0.1044,0.1077,0.1134,0.0904,0.07,0.0651,0.0678,0.0607,0.0522,0.0426,0.0374,0.0357,0.0316,0.0275,0.0327,0.0385,0.0357,0.0266,0.0313,0.0255,0.011,0.0201,0.0618,0.0851,0.0714,0.0428,0.0132,-0.011,-0.0283,-0.0041,0.0302,0.0319,0.0255,0.0206,0.0209,0.0319,0.0286,0.0692,0.07,0.0571,0.0533,0.0871,0.1159,0.1283,0.1332,0.1382,0.1285,0.1055,0.0931,0.0981,0.0849,0.0838,0.0794,0.0695,0.0621,0.0538,0.0445,0.0379,0.0357,0.036,0.0352,0.0371,0.0376,0.0398,0.042,0.0385,0.0239,0.0082,0.0143,0.0404,0.0467,0.0305,0.0027,-0.0214,-0.0264,-0.0027,0.0404,0.0623,0.0599,0.0382,0.008,-0.014,-0.0137,-0.0088,0.0168,0.0374,0.0404,0.056,0.0733,0.0953,0.1074,0.117,0.1283,0.1302,0.1233,0.1143,0.1068,0.1008,0.0948,0.0851,0.0731,0.0645,0.0549,0.0461,0.0401,0.0357,0.0335,0.0316,0.0319,0.0368,0.0467,0.0533,0.0486,0.0338,0.0192,0.0192,0.0338,0.0313,0.011,-0.0151,-0.0214,0.0058,0.05,0.0769,0.0645,0.0222,-0.0258,-0.0596,-0.0673,-0.0445,-0.0091,0.0159,0.0632,0.058,0.0599,0.0678,0.086,0.0961,0.1019,0.1066,0.114,0.1206,0.1192,0.1151,0.1085,0.1049,0.0978,0.084,0.072,0.0596,0.0481,0.0374,0.028,0.0233,0.0217,0.0255,0.0385,0.0555,0.0659,0.0651,0.0522,0.0338,0.0286,0.0332,0.0184,-0.0074,-0.0168,0.0069,0.0511,0.0717,0.047,-0.0025,-0.0426,-0.0571,-0.0407,0.0003,0.0563,0.025,0.0659,0.0898,0.0698,0.0591,0.0651,0.078,0.0879,0.0953,0.0972,0.0983,0.1071,0.1178,0.122,0.1173,0.1132,0.1093,0.0961,0.0797,0.0643,0.0478,0.0283,0.0132,0.0102,0.0143,0.0253,0.0439,0.0632,0.0764,0.0802,0.0678,0.0472,0.0407,0.0357,0.0102,-0.0143,0.0,0.0393,0.0574,0.0346,-0.0033,-0.0277,-0.0179,0.0203,0.0758,0.1362,0.1887,0.0494,0.0972,0.092,0.0706,0.0602,0.0632,0.0725,0.0851,0.095,0.0975,0.0953,0.103,0.1198,0.1305,0.1274,0.1203,0.1143,0.1016,0.0843,0.0684,0.0489,0.0239,0.006,0.0052,0.0154,0.0316,0.053,0.0709,0.0835,0.0887,0.0758,0.0569,0.0478,0.0308,0.003,-0.0005,0.0291,0.0508,0.0346,0.006,-0.0063,0.0038,0.0341,0.0816,0.136,0.1854,0.2228,0.053,0.0959,0.0893,0.07,0.0563,0.0558,0.0689,0.0843,0.095,0.0989,0.1003,0.1104,0.1285,0.1412,0.1393,0.1285,0.1159,0.1016,0.0862,0.0725,0.0547,0.0305,0.014,0.0154,0.0286,0.0483,0.0709,0.0849,0.0909,0.0895,0.0761,0.0588,0.0428,0.0233,0.0107,0.0209,0.045,0.0417,0.0143,-0.0063,-0.0132,-0.0005,0.0321,0.0709,0.1093,0.1415,0.1651,0.0514,0.095,0.0851,0.0626,0.0437,0.0434,0.0621,0.081,0.0928,0.1025,0.1101,0.1189,0.1329,0.1456,0.1461,0.1354,0.1198,0.1027,0.0876,0.0761,0.0623,0.0445,0.0341,0.039,0.0574,0.0805,0.0978,0.1022,0.097,0.0829,0.0656,0.0494,0.0352,0.0209,0.0044,0.0,0.0137,0.0066,-0.0198,-0.0404,-0.0439,-0.022,0.008,0.0316,0.0525,0.0667,0.0742,0.0475,0.0904,0.0805,0.0552,0.0341,0.0335,0.0519,0.0769,0.0917,0.1038,0.1143,0.12,0.1288,0.1417,0.1467,0.1395,0.125,0.1071,0.0915,0.0799,0.0706,0.0626,0.0607,0.0725,0.0948,0.1118,0.1143,0.1079,0.097,0.075,0.0472,0.0313,0.0255,0.0066,-0.0343,-0.0522,-0.0286,-0.0184,-0.0409,-0.061,-0.0574,-0.0379,-0.0288,-0.0275,-0.0277,-0.0275,-0.0275,0.0426,0.0791,0.0758,0.056,0.0387,0.0341,0.047,0.0736,0.0945,0.1057,0.1134,0.1162,0.1209,0.1327,0.1409,0.1379,0.1261,0.1107,0.0964,0.086,0.0824,0.0838,0.0901,0.1057,0.1203,0.1206,0.1107,0.1041,0.0961,0.0711,0.0412,0.0288,0.0173,-0.0121,-0.0544,-0.0706,-0.045,-0.0222,-0.0379,-0.061,-0.0662,-0.0673,-0.0791,-0.095,-0.1115,-0.1192,-0.1137]}],[{"header":{"parameterUnit":"m.s-1","parameterCategory":2,"la1":30.8641,"la2":29.7642,"lo1":-88.4676,"lo2":-86.9344,"dy":0.0333,"dx":0.0333,"nx":47,"ny":34,"refTime":"2023-03-24T00:00:00:Z","depth":"6","parameterNumber":2,"parameterNumberName":"U-component_of_CURRENTS"},"data":[0,0,0,0,0,0,0,0,0,0,0,0,0,0,0,0,0,0,0,0,0,0,0,0,0,0,0,0,0,0,0,0,0,0,0,0,0,0,0,0,0,0,0,0,0,0,0,0,0,0,0,0,0,0,0,0,0,0,0,0,0,0,0,0,0,0,0,0,0,0,0,0,0,0,0,0,0,0,0,0,0,0,0,0,0,0,0,0,0,0,0,0,0,0,0,0,0,0,0,0,0,0,0,0,0,0,0,0,0,0,0,0,0,0,0,0,0,0,0,0,0,0,0,0,0,0,0,0,0,0,0,0,0,0,0,0,0,0,0,0,0,0,0,0,0,0,0,0,0,0,0,0,0,0,0,0,0,0,0,0,0,0,0,0,0,0,0,0,0,0,0,0,0,0,0,0,0,0,0,0,0,0,0,0,0,0,0,0,0,0,0,0,0,0,0,0,0,0,0,0,0,0,0,0,0,0,0,0,0,0,0,0,0,0,0,0,0,0,0,0,0,0,0,0,0,0,0,0,0,0,0,0,0,0,0,0,0,0,0,0,0,0,0,0,0,0,0,0,0,0,0,0,0,0,0,0,0,0,0,0,0,0,0,0,0,0,0,0,0,0,0,0,0,0,0,0,0,0,0,0,0,0,0,0,0,0,0,0,0,0,0,0,0,0,0,0,0.0102,0.0201,0,0,0,0,0,0,0,0,0,0,0,0,0,0,0,0,0,0,0,0,0,0,0,0,0,0,0,0,0,0,0,0,0,0,0,0,0,0,0,0,0,0,0,0,0.0277,0.0379,-0.0176,-0.0566,0,0,0,0,0,0,0,0,0,0,0,0,0,0,0,0,0,0,0,0,0,0,0,0,0,0,0,0,0,0,0,0,0,0,0,0,0,0,0,0,0,0,0,0.0357,0.0777,0.0739,0.0637,0,0,0,0,0,0,0,0,0,0,0,0,0,0,0,0,0,0,0,0,0,0,0,0,0,0,0,0,0,0,0,0,0,0,0,0,0,0,0,0,0,0,0.0132,0.0563,0.0939,0.0865,0.0725,0,0,0,0,0,0,0,0,0,0,0,0,0,0,0,0,0,0,0,0,0,0,0,0,0,0,0,0,0,0,0,0,0,0,0,0,0,0,0,0,0,0,0.0327,0.0827,0.1011,0.0953,0.0898,0,0,0,0,0,0,0,0,0,0,0,0,0,0,0,0,0,0,0,0,0,0,0,0,0,0,0,0,0,0,0,0,0,0,0,0,0,0,0,0,0,0,0.0555,0.1222,0.1555,0.1456,0.1126,0,0,0,0,0,0,0,0,0,0,0,0,0,0,0,0,0,0,0,0,0,0,0,0,0,0,0,0,0,0,0,0,0,0,0,0,0,0,0,0,0,0,0.1258,0.1112,0.1145,0.1156,0.0772,0,0,0,0,0,0,0,0,0,0,0,0,0,0,0,0,0,0,0,0,0,0,0,0,0,0,0.0118,0.0236,0,0,0,0,0,0,0,0,0,0,0,0,0,-0.0324,-0.0363,-0.0173,0.0022,0.0297,0.0299,0,0,0,0,0,0,0,0,0,0,0,0,0,0,0,0,0,0,0,0,0,0,0.0132,0.0582,0.0959,0.0571,0.0148,0.0187,0,0,0,0,0,0,0,0,0,0,0,0,0,-0.006,-0.0121,-0.0195,-0.0255,-0.0437,-0.0939,-0.1233,0,0,0,0,0,0,0,0,0,0,0,0,0,0,0,0,0,0,0,0,0.1019,0.1818,0.1217,0.084,0,0,0,0,0,0,0,0,0.0264,0.0398,0.0288,0,0,0,0,0,-0.011,0.0027,0.0244,0.0206,0.0027,-0.0146,-0.0082,0.0016,0,0,0,0,0,0,0,0,0,0,0,0,0,0,0,0,0,0,0.1231,0.2093,0,0,0,0,0,0,0,-0.0203,0,-0.0041,0.0184,0.0385,0.0426,0.0527,0,0,0,0,0,0.0368,0.1132,0.167,0.1538,0.0959,0.0536,0.0352,0.0283,0.0266,0,0,0,0,0,0,0,0,0,0,0,0,0,0,0,0,0.0426,0.0113,0,0,-0.0154,-0.0107,-0.0231,-0.0324,-0.0363,-0.0453,-0.042,-0.1035,-0.0912,-0.0618,-0.0319,0.0016,-0.0272,-0.0316,0.0555,0.1588,0.1997,0.2326,0.2612,0.231,0.2631,0.2749,0.1835,0.1041,0.0621,0.0113,-0.0255,-0.0335,0,0,0,0,0,0,0,0,0,0,0,0,0.0088,0.0632,0.1038,0.0503,-0.0231,-0.0618,-0.0154,-0.0069,-0.0338,-0.0533,-0.061,-0.0676,-0.0709,-0.0687,-0.0159,-0.0766,-0.0563,0.0244,0.1068,0.0942,0.0124,0.0096,0.033,0,0,0,0.0365,0.1777,0.2491,0.1577,0.0758,0.0376,0.0016,-0.0497,-0.0819,0,0,0,0,0,0,0,0.0082,-0.0211,-0.0316,0.0071,0.0286,0.0264,0.0321,0.0508,0.014,-0.0173,-0.0005,0.0036,-0.0294,-0.0728,-0.0854,-0.0882,-0.0964,-0.0961,-0.0893,-0.0882,-0.0673,-0.0143,0.014,0.0187,0,0,0.0016,-0.0008,0.0272,0.0838,0.1714,0.1401,0.0456,0,0,0,0,0,0,0,0,0.0016,0.0093,0.019,-0.0022,0.0008,0.0472,0.0472,0.0343,0.0607,0.0692,0.0607,0.0736,0.0846,0.0352,-0.0157,0.0055,0.0165,-0.0313,-0.0755,-0.1011,-0.1074,-0.1055,-0.1044,-0.0981,-0.0909,0,0,-0.0203,-0.0302,-0.0211,-0.022,0.0634,0.1112,0.0678,0.0596,0.0761,0.0772,0,-0.0431,-0.0621,-0.031,-0.0135,0.0036,0.0162,0.0239,0.0269,0.0398,0.053,0.0387,0.0255,0.0214,0.006,-0.0088,0.0025,0.0253,0.0203,0.0184,-0.0027,-0.0261,-0.0088,-0.0148,0.0025,0.0319,-0.0047,-0.0662,-0.1068,-0.1209,-0.114,-0.1033,-0.092,-0.0827,-0.0791,-0.0459,-0.0371,-0.0324,-0.0162,-0.0074,-0.0162,-0.0019,-0.003,-0.0102,-0.0129,-0.0132,-0.0277,-0.0316,-0.0475,-0.0393,-0.0137,-0.0157,-0.0118,0.0027,0.0069,0.0025,0.0016,-0.0003,-0.0071,-0.0041,-0.0041,-0.0036,-0.0008,-0.0085,-0.0181,-0.0363,-0.0695,-0.0819,-0.0651,-0.0376,0.0019,0.0244,0.0038,-0.0379,-0.0665,-0.0939,-0.1008,-0.0824,-0.0676,-0.0613,-0.0689,-0.0865,-0.103,-0.0678,-0.0393,-0.05,-0.0717,-0.0736,-0.0626,-0.0401,-0.0198,-0.0077,-0.0016,-0.0217,-0.045,-0.0365,-0.0217,-0.0184,-0.0324,-0.042,-0.0382,-0.0357,-0.0349,-0.036,-0.0382,-0.0343,-0.0242,-0.0157,-0.0025,0.0074,0.0033,-0.017,-0.0426,-0.0569,-0.0662,-0.0558,-0.0239,-0.006,-0.0176,-0.0387,-0.0494,-0.0588,-0.0797,-0.084,-0.0709,-0.0695,-0.075,-0.0851,-0.0953,-0.0788,-0.0654,-0.0662,-0.097,-0.1241,-0.1343,-0.1148,-0.0854,-0.0736,-0.0794,-0.07,-0.0486,-0.0305,-0.019,-0.0236,-0.0461,-0.0643,-0.0645,-0.0599,-0.0588,-0.0593,-0.0577,-0.0544,-0.0472,-0.0365,-0.025,-0.0129,-0.0121,-0.028,-0.0439,-0.0448,-0.0338,-0.0242,-0.0269,-0.0297,-0.028,-0.0327,-0.0448,-0.0602,-0.0805,-0.0873,-0.0832,-0.0942,-0.1071,-0.1129,-0.1154,-0.1121,-0.0423,-0.0494,-0.0651,-0.0923,-0.1121,-0.1244,-0.1272,-0.1203,-0.1093,-0.0964,-0.0931,-0.0906,-0.0692,-0.0569,-0.0733,-0.0797,-0.0709,-0.0667,-0.0662,-0.0681,-0.0725,-0.0731,-0.0654,-0.0541,-0.0453,-0.0434,-0.0467,-0.0505,-0.045,-0.0379,-0.0382,-0.0472,-0.0602,-0.0689,-0.0651,-0.0558,-0.0599,-0.0802,-0.1068,-0.1222,-0.1055,-0.0862,-0.0906,-0.1025,-0.1022,-0.089,-0.0709,-0.0376,-0.0448,-0.047,-0.0629,-0.0731,-0.0684,-0.0736,-0.0843,-0.0879,-0.0829,-0.0747,-0.0711,-0.0689,-0.0615,-0.0585,-0.0566,-0.0536,-0.0519,-0.0519,-0.0538,-0.0558,-0.056,-0.056,-0.0574,-0.0574,-0.0577,-0.056,-0.0497,-0.0426,-0.0374,-0.0343,-0.036,-0.0385,-0.0467,-0.0711,-0.0945,-0.1132,-0.1313,-0.1349,-0.1118,-0.0961,-0.0975,-0.0934,-0.0805,-0.0632,-0.0439,-0.0308,-0.0519,-0.0591,-0.0585,-0.0563,-0.0393,-0.0264,-0.0294,-0.0385,-0.0505,-0.0623,-0.0706,-0.0709,-0.0629,-0.0519,-0.0434,-0.0382,-0.0332,-0.0272,-0.0228,-0.0214,-0.0239,-0.028,-0.033,-0.0401,-0.0467,-0.0541,-0.0602,-0.0604,-0.0558,-0.0483,-0.039,-0.0332,-0.0313,-0.0376,-0.0569,-0.0843,-0.1077,-0.1137,-0.1014,-0.0939,-0.0906,-0.0797,-0.0673,-0.0505,-0.0305,-0.017,-0.0071,-0.0176,0.0085,0.0176,0.0025,0.0077,0.0143,0.0107,0.0038,-0.0104,-0.0324,-0.0544,-0.0665,-0.0684,-0.0604,-0.0472,-0.0368,-0.0288,-0.0211,-0.0154,-0.0143,-0.0192,-0.0283,-0.0423,-0.0602,-0.0744,-0.0794,-0.0775,-0.0728,-0.0659,-0.0549,-0.042,-0.0321,-0.0321,-0.047,-0.0698,-0.089,-0.0961,-0.0926,-0.0851,-0.0777,-0.0709,-0.0604,-0.0503,-0.0448,-0.0374,-0.0217,-0.0044,0.0198,0.0461,0.0324,0.0151,0.0195,0.0297,0.0283,0.0148,-0.0066,-0.025,-0.0376,-0.0461,-0.0519,-0.0503,-0.0409,-0.0327,-0.0275,-0.0239,-0.0242,-0.0275,-0.0308,-0.0374,-0.0516,-0.0676,-0.0747,-0.07,-0.0613,-0.0555,-0.0522,-0.0472,-0.0396,-0.0357,-0.0453,-0.0667,-0.0865,-0.0959,-0.0893,-0.0736,-0.0593,-0.0538,-0.0585,-0.0695,-0.0684,-0.0445,-0.0088,0.0225,0.0412,0.0261,0.0214,-0.0074,-0.014,0.0041,0.014,0.0052,-0.0135,-0.0283,-0.0346,-0.036,-0.0343,-0.0327,-0.0321,-0.0297,-0.0261,-0.0269,-0.0313,-0.0357,-0.0376,-0.0374,-0.0374,-0.0398,-0.0401,-0.0327,-0.0179,-0.0063,-0.0063,-0.0137,-0.0244,-0.0335,-0.0426,-0.0571,-0.0758,-0.0879,-0.0816,-0.061,-0.0415,-0.0431,-0.0615,-0.0728,-0.0582,-0.0206,0.025,0.0621,0.081,0.0821,0.0261,0.0102,-0.0181,-0.0198,-0.0146,-0.0195,-0.0335,-0.0428,-0.0434,-0.0409,-0.0357,-0.031,-0.0302,-0.0332,-0.0346,-0.0335,-0.0346,-0.0387,-0.0434,-0.0453,-0.0401,-0.0291,-0.017,-0.0019,0.0195,0.0423,0.0525,0.047,0.0297,0.0033,-0.0217,-0.0374,-0.0497,-0.0626,-0.064,-0.042,-0.0181,-0.0217,-0.0417,-0.0503,-0.033,0.0022,0.0396,0.0684,0.0849,0.0868,0.0755,0.0233,0.0187,-0.0019,-0.0137,-0.0198,-0.0255,-0.0283,-0.0283,-0.031,-0.0335,-0.0332,-0.0335,-0.0374,-0.0439,-0.0478,-0.047,-0.0442,-0.0431,-0.0439,-0.042,-0.0324,-0.0165,0.0019,0.0255,0.0525,0.0709,0.0709,0.0591,0.0415,0.0176,-0.0055,-0.022,-0.0341,-0.0376,-0.0173,0.0113,0.0121,-0.0132,-0.0302,-0.022,0.0044,0.0343,0.0582,0.0755,0.0857,0.081,0.0596,0.0264,0.0407,0.0321,0.0173,0.0113,0.0132,0.0192,0.0184,0.0047,-0.0126,-0.025,-0.0321,-0.0385,-0.0467,-0.0527,-0.0527,-0.0475,-0.0412,-0.0357,-0.0291,-0.0173,-0.0005,0.0201,0.0426,0.0585,0.0582,0.0472,0.0368,0.0258,0.0148,0.0077,-0.0019,-0.0063,0.0104,0.0393,0.0516,0.0299,-0.0027,-0.011,0.0071,0.031,0.0503,0.0645,0.0753,0.0829,0.0799,0.0596,0.036,0.0706,0.0783,0.0648,0.0555,0.0552,0.0591,0.0577,0.0401,0.0157,-0.0022,-0.0129,-0.0203,-0.0297,-0.0396,-0.0442,-0.0409,-0.0332,-0.0233,-0.0121,-0.0003,0.0151,0.0324,0.0439,0.0415,0.0305,0.0228,0.0176,0.0074,0.0011,0.0058,0.0184,0.0409,0.0731,0.0978,0.0937,0.0728,0.0492,0.036,0.0467,0.0659,0.0783,0.0832,0.0821,0.0769,0.0709,0.058]},{"header":{"parameterUnit":"m.s-1","parameterCategory":2,"la1":30.8641,"la2":29.7642,"lo1":-88.4676,"lo2":-86.9344,"dy":0.0333,"dx":0.0333,"nx":47,"ny":34,"refTime":"2023-03-24T00:00:00:Z","depth":"6","parameterNumber":3,"parameterNumberName":"V-component_of_CURRENTS"},"data":[0,0,0,0,0,0,0,0,0,0,0,0,0,0,0,0,0,0,0,0,0,0,0,0,0,0,0,0,0,0,0,0,0,0,0,0,0,0,0,0,0,0,0,0,0,0,0,0,0,0,0,0,0,0,0,0,0,0,0,0,0,0,0,0,0,0,0,0,0,0,0,0,0,0,0,0,0,0,0,0,0,0,0,0,0,0,0,0,0,0,0,0,0,0,0,0,0,0,0,0,0,0,0,0,0,0,0,0,0,0,0,0,0,0,0,0,0,0,0,0,0,0,0,0,0,0,0,0,0,0,0,0,0,0,0,0,0,0,0,0,0,0,0,0,0,0,0,0,0,0,0,0,0,0,0,0,0,0,0,0,0,0,0,0,0,0,0,0,0,0,0,0,0,0,0,0,0,0,0,0,0,0,0,0,0,0,0,0,0,0,0,0,0,0,0,0,0,0,0,0,0,0,0,0,0,0,0,0,0,0,0,0,0,0,0,0,0,0,0,0,0,0,0,0,0,0,0,0,0,0,0,0,0,0,0,0,0,0,0,0,0,0,0,0,0,0,0,0,0,0,0,0,0,0,0,0,0,0,0,0,0,0,0,0,0,0,0,0,0,0,0,0,0,0,0,0,0,0,0,0,0,0,0,0,0,0,0,0,0,0,0,0,0,0,0,0,0.0313,0.0102,0,0,0,0,0,0,0,0,0,0,0,0,0,0,0,0,0,0,0,0,0,0,0,0,0,0,0,0,0,0,0,0,0,0,0,0,0,0,0,0,0,0,0,0,0.0099,0.0157,0.0135,0.148,0,0,0,0,0,0,0,0,0,0,0,0,0,0,0,0,0,0,0,0,0,0,0,0,0,0,0,0,0,0,0,0,0,0,0,0,0,0,0,0,0,0,0,0.0255,0.0091,0.0118,0.1368,0,0,0,0,0,0,0,0,0,0,0,0,0,0,0,0,0,0,0,0,0,0,0,0,0,0,0,0,0,0,0,0,0,0,0,0,0,0,0,0,0,0,-0.0343,0.0577,0.0387,0.0146,0.111,0,0,0,0,0,0,0,0,0,0,0,0,0,0,0,0,0,0,0,0,0,0,0,0,0,0,0,0,0,0,0,0,0,0,0,0,0,0,0,0,0,0,0.0085,0.0687,0.0571,0.0091,0.0937,0,0,0,0,0,0,0,0,0,0,0,0,0,0,0,0,0,0,0,0,0,0,0,0,0,0,0,0,0,0,0,0,0,0,0,0,0,0,0,0,0,0,0.0733,0.0769,0.0585,0.008,0.1035,0,0,0,0,0,0,0,0,0,0,0,0,0,0,0,0,0,0,0,0,0,0,0,0,0,0,0,0,0,0,0,0,0,0,0,0,0,0,0,0,0,0,0.0648,0.0343,-0.0321,0.0027,0.1417,0,0,0,0,0,0,0,0,0,0,0,0,0,0,0,0,0,0,0,0,0,0,0,0,0,0,0.0132,0.0088,0,0,0,0,0,0,0,0,0,0,0,0,0,0.0445,0.0731,0.022,-0.0722,0.0352,0.1714,0,0,0,0,0,0,0,0,0,0,0,0,0,0,0,0,0,0,0,0,0,0,0.0025,0.0126,0.0459,0.0,0.0066,0.0044,0,0,0,0,0,0,0,0,0,0,0,0,0,0.0731,0.1074,0.0742,0.011,0.0607,0.1283,0.0552,0,0,0,0,0,0,0,0,0,0,0,0,0,0,0,0,0,0,0,0,0.2373,0.0011,0.0063,0.0228,0,0,0,0,0,0,0,0,-0.0019,0.0005,0.0203,0,0,0,0,0,0.0895,0.1332,0.111,0.0571,0.0549,0.0865,0.0626,-0.0217,0,0,0,0,0,0,0,0,0,0,0,0,0,0,0,0,0,0,0.1667,0.1187,0,0,0,0,0,0,0,-0.0283,0,0.0063,0.0272,-0.0242,-0.0439,-0.0184,0,0,0,0,0,0.1,0.1794,0.175,0.0964,0.0728,0.0827,0.0588,-0.0239,0.0417,0,0,0,0,0,0,0,0,0,0,0,0,0,0,0,0,0.1266,0.1445,0,0,0.0099,0.0319,0.036,0.0338,0.0063,0.0033,-0.0146,0.0115,-0.0258,0.0088,-0.0077,-0.0206,-0.0365,0.0511,0.1101,0.1912,0.0,0.0,0.0538,0.1964,0.2516,0.1129,0.033,0.031,0.0319,-0.0077,0.0198,0.0302,0,0,0,0,0,0,0,0,0,0,0,0,0.011,0.0269,0.0585,0.0912,0.0876,0.0327,-0.0143,0.0319,0.0516,0.0233,0.0102,-0.0038,0.0014,0.0049,0.0294,-0.0187,0.0374,0.1016,0.1288,-0.008,0.0255,0.1549,0.1969,0,0,0,0.2197,0.3032,0.0585,-0.0041,-0.0033,0.0077,0.0071,0.0055,0.0151,0,0,0,0,0,0,0,0.0376,0.0393,0.0143,-0.0168,0.0365,-0.0047,0.0148,-0.0247,-0.0027,0.0327,0.0423,0.0448,0.0684,0.047,-0.0044,-0.0181,-0.0162,0.0022,0.0093,0.0236,0.0093,0.1458,0.2013,0.1879,0,0,0.1835,0.1618,0.1178,0.1252,0.1651,0.1233,0.2574,0,0,0,0,0,0,0,0,0.0159,0.0192,-0.0052,-0.0104,0.0003,0.0016,0.0011,0.0115,0.0376,0.0365,0.0629,0.0253,0.0008,-0.0494,-0.0426,0.0181,0.0459,0.0761,0.064,0.033,-0.0225,-0.0299,-0.0159,-0.0025,0.0005,0,0,0.1758,0.1898,0.1241,0.1159,0.0428,0.0813,0.0744,0.0692,0.0797,0.106,0,0.1189,0.0222,0.0211,0.0269,0.0319,0.0214,0.0157,0.0184,0.0088,0.0091,0.0162,-0.0027,-0.0157,-0.0016,0.0008,-0.0102,0.0374,0.0986,0.0926,0.0766,0.0453,-0.0038,-0.045,-0.0404,0.0146,0.0621,0.0667,0.0374,0.0124,-0.0233,-0.025,-0.0102,-0.0069,-0.0099,-0.0038,0.0634,0.1129,0.1222,0.1395,0.1151,0.0527,0.0354,0.0574,0.0615,0.0448,0.0211,0.0014,0.0398,0.0244,0.0255,0.0417,0.0379,0.0253,0.0203,0.0236,0.0222,0.0272,0.0244,0.0093,0.0025,0.0019,0.0085,0.0305,0.0742,0.1118,0.0972,0.0527,0.0244,-0.008,-0.006,0.0157,0.05,0.056,0.0376,0.0264,-0.003,-0.006,-0.0071,-0.0049,-0.0115,-0.017,-0.0049,0.0492,0.0879,0.1387,0.1508,0.1382,0.0882,0.0736,0.089,0.1011,0.0994,0.0602,0.0222,0.0335,0.0343,0.0549,0.0681,0.0519,0.0434,0.0426,0.0439,0.0461,0.0453,0.0341,0.0261,0.0195,0.0143,0.0324,0.0525,0.0794,0.0791,0.058,0.039,0.0423,0.0428,0.0434,0.0544,0.0516,0.0327,0.0233,0.0157,-0.0124,0.0126,0.019,0.0099,-0.0047,-0.0069,0.0132,0.0412,0.0964,0.1247,0.1318,0.1379,0.1434,0.1395,0.1239,0.1217,0.1239,0.1022,0.061,0.0656,0.0769,0.0879,0.0753,0.0602,0.053,0.0492,0.0478,0.0511,0.0508,0.045,0.0439,0.0448,0.0456,0.0516,0.0456,0.0442,0.0363,0.0283,0.0533,0.0788,0.0777,0.0555,0.0423,0.0327,0.0233,0.0154,-0.0022,-0.0055,0.011,0.0118,0.0055,0.003,0.0118,0.0437,0.0511,0.0827,0.0865,0.1005,0.1156,0.1387,0.145,0.1305,0.1195,0.1129,0.1057,0.1019,0.0992,0.0997,0.0898,0.0733,0.0665,0.061,0.0497,0.0385,0.0412,0.047,0.0527,0.0558,0.0602,0.0569,0.0445,0.033,0.0255,0.0132,0.0,0.0335,0.0714,0.084,0.0613,0.0371,0.0242,0.0159,-0.0041,-0.0124,0.0184,0.0222,0.0135,0.0071,0.0077,0.0198,0.0665,0.0755,0.0808,0.0742,0.0684,0.0835,0.1107,0.128,0.1332,0.1362,0.1211,0.1003,0.1052,0.1049,0.0953,0.0802,0.0786,0.0676,0.0596,0.0497,0.0393,0.0324,0.0291,0.033,0.0387,0.0396,0.0349,0.0302,0.033,0.0327,0.0148,-0.0038,0.0093,0.0365,0.0478,0.0327,0.0209,0.0033,-0.014,-0.0124,0.0261,0.0519,0.0472,0.0231,-0.006,-0.0253,-0.0242,0.0769,0.0775,0.0758,0.0659,0.0467,0.0676,0.0915,0.1044,0.114,0.1247,0.1247,0.1154,0.1066,0.1005,0.0956,0.0909,0.0832,0.0706,0.0613,0.0519,0.0426,0.0352,0.0283,0.0253,0.0239,0.0239,0.0305,0.0426,0.0492,0.0448,0.0255,0.008,0.0085,0.0236,0.0222,-0.0033,-0.0184,-0.0253,-0.0082,0.0376,0.0659,0.0522,0.0077,-0.0404,-0.0717,-0.0775,-0.0544,0.089,0.0607,0.0676,0.058,0.0437,0.0591,0.0797,0.0901,0.0964,0.1008,0.1079,0.1148,0.1129,0.1082,0.1027,0.1005,0.0942,0.0799,0.0678,0.0555,0.0434,0.0313,0.0214,0.0159,0.0154,0.0209,0.0352,0.0525,0.0629,0.0615,0.0459,0.025,0.0198,0.025,0.0099,-0.0179,-0.0269,-0.0025,0.0415,0.0618,0.0365,-0.0135,-0.0536,-0.0662,-0.0492,-0.0085,0.0459,0.1093,0.0813,0.0777,0.0571,0.0442,0.056,0.0711,0.081,0.089,0.0917,0.0939,0.1033,0.1132,0.1167,0.1121,0.1085,0.1052,0.0915,0.075,0.0596,0.042,0.0209,0.0066,0.0036,0.0077,0.0198,0.0404,0.0596,0.0733,0.0769,0.0632,0.0412,0.0338,0.0272,0.0,-0.0239,-0.0077,0.0313,0.0489,0.0261,-0.0118,-0.0352,-0.0247,0.0132,0.0673,0.1255,0.1761,0.1115,0.0975,0.0788,0.0558,0.0475,0.0552,0.0654,0.0786,0.0895,0.0923,0.0906,0.0983,0.1143,0.1244,0.1214,0.1148,0.1093,0.0967,0.0797,0.0637,0.0426,0.017,-0.0025,-0.0038,0.0063,0.0239,0.0472,0.0656,0.0788,0.0846,0.0711,0.0516,0.0417,0.0228,-0.006,-0.0088,0.0209,0.0428,0.0272,-0.0011,-0.0126,-0.0022,0.0272,0.0728,0.1252,0.173,0.2096,0.0909,0.0882,0.0758,0.058,0.0486,0.0492,0.0615,0.0788,0.0909,0.0945,0.0956,0.1052,0.1225,0.1346,0.1327,0.1228,0.1107,0.0964,0.081,0.0673,0.0486,0.0211,0.0033,0.0044,0.0179,0.0393,0.0629,0.0772,0.0843,0.084,0.0709,0.0533,0.0363,0.0151,0.0008,0.011,0.0363,0.033,0.0052,-0.0148,-0.0195,-0.0071,0.0236,0.0604,0.0978,0.1302,0.1544,0.07,0.0827,0.0733,0.0552,0.0379,0.0365,0.0547,0.0755,0.0887,0.0978,0.1049,0.1132,0.1266,0.139,0.1398,0.1296,0.114,0.097,0.0821,0.0703,0.0549,0.0332,0.0214,0.0266,0.0456,0.0698,0.0873,0.0926,0.0884,0.0764,0.0599,0.0434,0.0272,0.0099,-0.0074,-0.0102,0.0052,-0.0014,-0.0277,-0.0478,-0.0508,-0.0299,-0.0022,0.0206,0.0423,0.0574,0.0654,0.0588,0.0758,0.0709,0.0483,0.028,0.0258,0.0448,0.0709,0.0857,0.0978,0.1079,0.1137,0.1228,0.136,0.1409,0.1338,0.1189,0.1011,0.0851,0.0733,0.0623,0.0511,0.0475,0.0596,0.0821,0.1008,0.1033,0.0981,0.0882,0.0676,0.0409,0.025,0.0179,-0.0049,-0.0467,-0.0629,-0.0376,-0.0261,-0.0486,-0.0689,-0.0651,-0.0475,-0.0396,-0.0371,-0.0363,-0.036,-0.0365,0.0453,0.064,0.0654,0.0472,0.0313,0.0261,0.0393,0.0662,0.0868,0.0983,0.1063,0.1101,0.1151,0.1272,0.1354,0.1324,0.1206,0.1046,0.0898,0.0791,0.075,0.0739,0.0783,0.0942,0.109,0.1096,0.1003,0.0942,0.0868,0.0629,0.0343,0.0214,0.0088,-0.0231,-0.0676,-0.0827,-0.0563,-0.0313,-0.0461,-0.0692,-0.075,-0.0775,-0.089,-0.1035,-0.12,-0.1294,-0.1252]}],[{"header":{"parameterUnit":"m.s-1","parameterCategory":2,"la1":30.8641,"la2":29.7642,"lo1":-88.4676,"lo2":-86.9344,"dy":0.0333,"dx":0.0333,"nx":47,"ny":34,"refTime":"2023-03-24T00:00:00:Z","depth":"8","parameterNumber":2,"parameterNumberName":"U-component_of_CURRENTS"},"data":[0,0,0,0,0,0,0,0,0,0,0,0,0,0,0,0,0,0,0,0,0,0,0,0,0,0,0,0,0,0,0,0,0,0,0,0,0,0,0,0,0,0,0,0,0,0,0,0,0,0,0,0,0,0,0,0,0,0,0,0,0,0,0,0,0,0,0,0,0,0,0,0,0,0,0,0,0,0,0,0,0,0,0,0,0,0,0,0,0,0,0,0,0,0,0,0,0,0,0,0,0,0,0,0,0,0,0,0,0,0,0,0,0,0,0,0,0,0,0,0,0,0,0,0,0,0,0,0,0,0,0,0,0,0,0,0,0,0,0,0,0,0,0,0,0,0,0,0,0,0,0,0,0,0,0,0,0,0,0,0,0,0,0,0,0,0,0,0,0,0,0,0,0,0,0,0,0,0,0,0,0,0,0,0,0,0,0,0,0,0,0,0,0,0,0,0,0,0,0,0,0,0,0,0,0,0,0,0,0,0,0,0,0,0,0,0,0,0,0,0,0,0,0,0,0,0,0,0,0,0,0,0,0,0,0,0,0,0,0,0,0,0,0,0,0,0,0,0,0,0,0,0,0,0,0,0,0,0,0,0,0,0,0,0,0,0,0,0,0,0,0,0,0,0,0,0,0,0,0,0,0,0,0,0,0,0,0,0,0,0,0,0,0,0,0,0,-0.0214,-0.0431,0,0,0,0,0,0,0,0,0,0,0,0,0,0,0,0,0,0,0,0,0,0,0,0,0,0,0,0,0,0,0,0,0,0,0,0,0,0,0,0,0,0,0,0,0.0088,-0.0294,-0.0887,-0.1003,0,0,0,0,0,0,0,0,0,0,0,0,0,0,0,0,0,0,0,0,0,0,0,0,0,0,0,0,0,0,0,0,0,0,0,0,0,0,0,0,0,0,0,0.0459,0.0843,0.0321,-0.0107,0,0,0,0,0,0,0,0,0,0,0,0,0,0,0,0,0,0,0,0,0,0,0,0,0,0,0,0,0,0,0,0,0,0,0,0,0,0,0,0,0,0,0.0505,0.086,0.075,0.0533,0.0277,0,0,0,0,0,0,0,0,0,0,0,0,0,0,0,0,0,0,0,0,0,0,0,0,0,0,0,0,0,0,0,0,0,0,0,0,0,0,0,0,0,0,0.0168,0.0442,0.0648,0.0222,-0.0288,0,0,0,0,0,0,0,0,0,0,0,0,0,0,0,0,0,0,0,0,0,0,0,0,0,0,0,0,0,0,0,0,0,0,0,0,0,0,0,0,0,0,0.0179,0.0492,0.0695,0.0341,-0.0074,0,0,0,0,0,0,0,0,0,0,0,0,0,0,0,0,0,0,0,0,0,0,0,0,0,0,0,0,0,0,0,0,0,0,0,0,0,0,0,0,0,0,0.0992,0.1203,0.0838,0.0093,-0.028,0,0,0,0,0,0,0,0,0,0,0,0,0,0,0,0,0,0,0,0,0,0,0,0,0,0,0.0121,0.0242,0,0,0,0,0,0,0,0,0,0,0,0,0,-0.0027,0.022,0.0654,0.0475,0.0014,-0.0104,0,0,0,0,0,0,0,0,0,0,0,0,0,0,0,0,0,0,0,0,0,0,0.0505,0.0846,0.0876,0.1096,0.0953,0.0816,0,0,0,0,0,0,0,0,0,0,0,0,0,0.0236,0.0604,0.0821,0.0648,0.008,-0.0247,-0.0269,0,0,0,0,0,0,0,0,0,0,0,0,0,0,0,0,0,0,0,0,0.0613,0.1079,0.0711,0.0486,0,0,0,0,0,0,0,0,0.0203,0.0055,-0.0297,0,0,0,0,0,0.0107,0.0426,0.0799,0.0802,0.0478,0.0181,0.0236,0.0239,0,0,0,0,0,0,0,0,0,0,0,0,0,0,0,0,0,0,0.0555,0.0948,0,0,0,0,0,0,0,-0.0181,0,0.0198,0.0527,0.0667,0.053,0.0387,0,0,0,0,0,0.0074,0.025,0.0503,0.0728,0.0882,0.0623,0.042,0.0277,-0.0011,0,0,0,0,0,0,0,0,0,0,0,0,0,0,0,0,-0.0115,-0.0115,0,0,-0.0159,-0.011,-0.0126,-0.0217,-0.0275,-0.0407,-0.039,-0.0242,0.0025,0.0321,0.0489,0.0478,-0.0038,-0.0203,0.0233,0.0956,0.1456,0.1478,0.097,0.0467,0.07,0.0978,0.1101,0.0829,0.0376,-0.0066,-0.0352,-0.028,0,0,0,0,0,0,0,0,0,0,0,0,0.0187,0.0442,0.0324,-0.0038,-0.0341,-0.0266,-0.0033,-0.0071,-0.0126,-0.0209,-0.0354,-0.0456,-0.0475,-0.045,0.0275,-0.0008,-0.0176,-0.0005,0.0371,0.0442,0.0069,-0.014,-0.0173,0,0,0,0.0104,0.0876,0.1346,0.1071,0.0895,0.0769,0.0431,-0.0387,-0.092,0,0,0,0,0,0,0,-0.0121,-0.0173,0.0005,0.0288,0.0549,0.0692,0.0689,0.0623,0.0211,-0.0277,-0.0332,-0.008,-0.0124,-0.0357,-0.0544,-0.0656,-0.07,-0.0637,-0.0585,-0.0203,-0.0766,-0.0536,-0.0154,-0.006,0,0,-0.0239,-0.0319,0.0055,0.0481,0.1222,0.1003,0.025,0,0,0,0,0,0,0,0,-0.0016,0.0124,0.0203,-0.0069,-0.0124,0.0431,0.0582,0.0313,0.0283,0.0401,0.0613,0.089,0.0689,0.0192,-0.0201,-0.0275,-0.0008,-0.0107,-0.0365,-0.0629,-0.0813,-0.0843,-0.0736,-0.0623,-0.0613,0,0,-0.011,-0.0135,0.0019,0.0319,0.1071,0.047,0.0058,0.0146,0.0222,0.0151,0,-0.0393,-0.0563,-0.0206,0.0014,0.0146,0.0179,0.0179,0.0201,0.0264,0.0338,0.039,0.045,0.0486,0.0277,-0.0088,-0.0198,-0.0025,0.0132,0.0335,0.0286,-0.0033,-0.0146,-0.0376,-0.0387,0.0041,0.0005,-0.0357,-0.0656,-0.0805,-0.0838,-0.0747,-0.0634,-0.0648,-0.0758,0.0077,-0.0033,0.0019,-0.0321,0.022,0.0415,0.0211,-0.0085,-0.0088,0.0069,-0.0148,-0.0363,-0.0299,-0.0233,-0.0294,-0.0025,0.0165,0.025,0.031,0.0374,0.0478,0.053,0.0544,0.0503,0.0313,0.0003,-0.017,-0.0135,-0.0085,0.0008,-0.0025,-0.0357,-0.0577,-0.0541,-0.0437,-0.0233,0.0058,0.0047,-0.0236,-0.0431,-0.0634,-0.0777,-0.0766,-0.0736,-0.0766,-0.0887,-0.1082,-0.1038,-0.0909,-0.0423,-0.0231,-0.0211,-0.0195,-0.0299,-0.0206,-0.0027,0.0055,0.0041,-0.0198,-0.0338,-0.0217,-0.0063,0.0055,0.0104,0.0099,0.0137,0.0151,0.0118,0.0088,0.0082,0.0052,0.0025,0.0025,-0.0019,-0.0052,-0.0077,-0.0107,-0.0157,-0.0217,-0.0401,-0.0453,-0.0255,-0.0085,-0.0071,-0.0201,-0.0291,-0.0357,-0.0599,-0.0846,-0.086,-0.0862,-0.0939,-0.1057,-0.1181,-0.1077,-0.0983,-0.0747,-0.07,-0.0706,-0.0673,-0.0604,-0.0508,-0.042,-0.0365,-0.0253,-0.0225,-0.0286,-0.0231,-0.0173,-0.0192,-0.0217,-0.0211,-0.0198,-0.0176,-0.0135,-0.0104,-0.0107,-0.0129,-0.0102,-0.0038,-0.0003,-0.0005,-0.0088,-0.0244,-0.0316,-0.0233,-0.0118,-0.0091,-0.0115,-0.0137,-0.022,-0.0321,-0.0398,-0.056,-0.0835,-0.0967,-0.1052,-0.1222,-0.1338,-0.1415,-0.1382,-0.0577,-0.0758,-0.0728,-0.07,-0.0722,-0.0862,-0.1003,-0.1003,-0.0923,-0.0805,-0.0695,-0.056,-0.0445,-0.0428,-0.0459,-0.0442,-0.039,-0.0365,-0.0352,-0.0335,-0.031,-0.0277,-0.0239,-0.0192,-0.014,-0.0118,-0.0159,-0.0275,-0.0409,-0.0453,-0.0409,-0.0335,-0.0319,-0.0379,-0.0412,-0.0363,-0.0379,-0.0527,-0.0786,-0.1129,-0.117,-0.0978,-0.1014,-0.117,-0.1195,-0.1079,-0.0912,-0.008,-0.0206,-0.0272,-0.0346,-0.0437,-0.0632,-0.0821,-0.0879,-0.0884,-0.0851,-0.0802,-0.0731,-0.0637,-0.0582,-0.0571,-0.0533,-0.0475,-0.0459,-0.0439,-0.0409,-0.0396,-0.0385,-0.0352,-0.0313,-0.0316,-0.0404,-0.0522,-0.0569,-0.0547,-0.0503,-0.0442,-0.0396,-0.0415,-0.058,-0.0761,-0.0786,-0.0813,-0.1041,-0.1296,-0.125,-0.1071,-0.1046,-0.1066,-0.0994,-0.0816,-0.0695,-0.0637,-0.0063,-0.017,-0.0222,-0.0288,-0.0417,-0.0439,-0.0368,-0.0401,-0.0544,-0.0695,-0.0753,-0.0736,-0.0659,-0.0566,-0.0483,-0.0409,-0.0343,-0.0308,-0.0294,-0.0275,-0.0283,-0.0354,-0.0448,-0.0525,-0.0596,-0.0667,-0.072,-0.072,-0.0667,-0.0593,-0.0511,-0.0461,-0.0481,-0.0593,-0.0772,-0.0981,-0.1195,-0.1299,-0.1225,-0.1057,-0.0992,-0.0953,-0.0832,-0.064,-0.0481,-0.0407,-0.0379,-0.0019,-0.003,0.0014,-0.0014,-0.0074,-0.0038,0.003,-0.0044,-0.019,-0.0396,-0.0618,-0.0758,-0.0766,-0.0684,-0.056,-0.0415,-0.0291,-0.0209,-0.0159,-0.0159,-0.0272,-0.0448,-0.0596,-0.0753,-0.0893,-0.092,-0.0868,-0.0802,-0.0736,-0.0643,-0.0536,-0.0492,-0.0525,-0.0665,-0.0873,-0.1079,-0.1156,-0.1077,-0.0934,-0.0873,-0.0857,-0.0766,-0.0678,-0.0673,-0.0547,-0.033,-0.0093,0.0025,0.0066,0.0093,0.006,0.0041,0.0146,0.0154,-0.0005,-0.022,-0.0368,-0.0439,-0.0511,-0.0571,-0.0552,-0.0461,-0.0354,-0.0277,-0.0239,-0.0253,-0.0327,-0.0431,-0.0547,-0.0739,-0.0846,-0.0868,-0.0799,-0.0698,-0.0615,-0.0571,-0.0538,-0.0505,-0.0538,-0.0648,-0.0838,-0.106,-0.1132,-0.1035,-0.0829,-0.0709,-0.0706,-0.0775,-0.0849,-0.0777,-0.0492,-0.0135,0.0168,0.0335,-0.0033,-0.0233,-0.0283,-0.0294,-0.0176,-0.003,-0.0162,-0.0382,-0.0508,-0.0486,-0.0401,-0.0354,-0.0346,-0.0349,-0.0321,-0.0277,-0.0275,-0.0321,-0.0387,-0.0459,-0.0544,-0.061,-0.0596,-0.0593,-0.0494,-0.036,-0.0253,-0.0179,-0.019,-0.0286,-0.0396,-0.0514,-0.0692,-0.092,-0.1088,-0.0994,-0.0739,-0.0533,-0.0552,-0.0733,-0.0829,-0.0656,-0.0264,0.0179,0.053,0.0709,0.0717,-0.0003,-0.0294,-0.0434,-0.0439,-0.0352,-0.0401,-0.0544,-0.0613,-0.0604,-0.0505,-0.0382,-0.0319,-0.0316,-0.0352,-0.036,-0.0346,-0.0357,-0.0409,-0.0494,-0.061,-0.0615,-0.05,-0.0393,-0.0206,-0.0025,0.014,0.028,0.0324,0.0231,0.0003,-0.0244,-0.0428,-0.061,-0.0766,-0.0797,-0.0593,-0.0341,-0.0363,-0.0558,-0.0651,-0.0464,-0.0052,0.0321,0.0599,0.0753,0.0766,0.0645,0.0038,-0.0192,-0.0302,-0.0327,-0.0398,-0.0525,-0.0533,-0.0472,-0.0423,-0.0385,-0.036,-0.0357,-0.0393,-0.0456,-0.0492,-0.0489,-0.0472,-0.0503,-0.0588,-0.0623,-0.0533,-0.0385,-0.0157,0.0041,0.0211,0.0371,0.0445,0.0412,0.0316,0.0135,-0.0088,-0.0291,-0.0437,-0.0516,-0.0387,-0.0132,-0.0082,-0.0313,-0.0489,-0.0404,-0.0063,0.0275,0.0511,0.0676,0.0777,0.0711,0.0448,0.0126,-0.0005,0.003,0.0005,-0.0118,-0.0148,-0.0038,0.003,-0.0044,-0.0187,-0.0291,-0.0354,-0.0407,-0.0481,-0.0544,-0.0555,-0.0549,-0.0563,-0.0541,-0.0505,-0.0426,-0.0255,-0.0052,0.0115,0.0236,0.0258,0.0201,0.0168,0.0148,0.0088,0.0011,-0.0088,-0.0168,-0.0074,0.0159,0.0236,0.0104,-0.0168,-0.0236,-0.006,0.0228,0.0439,0.0582,0.0687,0.0747,0.0659,0.0401,0.0272,0.0275,0.0453,0.0467,0.036,0.031,0.0365,0.039,0.0277,0.0074,-0.0077,-0.0165,-0.0231,-0.0321,-0.042,-0.0486,-0.0525,-0.0486,-0.0417,-0.0371,-0.0288,-0.0148,0.0003,0.011,0.0104,0.0019,-0.0049,-0.0038,-0.008,-0.0115,-0.0038,0.0091,0.0294,0.0585,0.075,0.0692,0.0519,0.0302,0.0231,0.0354,0.0577,0.0717,0.0769,0.0755,0.0673,0.056,0.0409]},{"header":{"parameterUnit":"m.s-1","parameterCategory":2,"la1":30.8641,"la2":29.7642,"lo1":-88.4676,"lo2":-86.9344,"dy":0.0333,"dx":0.0333,"nx":47,"ny":34,"refTime":"2023-03-24T00:00:00:Z","depth":"8","parameterNumber":3,"parameterNumberName":"V-component_of_CURRENTS"},"data":[0,0,0,0,0,0,0,0,0,0,0,0,0,0,0,0,0,0,0,0,0,0,0,0,0,0,0,0,0,0,0,0,0,0,0,0,0,0,0,0,0,0,0,0,0,0,0,0,0,0,0,0,0,0,0,0,0,0,0,0,0,0,0,0,0,0,0,0,0,0,0,0,0,0,0,0,0,0,0,0,0,0,0,0,0,0,0,0,0,0,0,0,0,0,0,0,0,0,0,0,0,0,0,0,0,0,0,0,0,0,0,0,0,0,0,0,0,0,0,0,0,0,0,0,0,0,0,0,0,0,0,0,0,0,0,0,0,0,0,0,0,0,0,0,0,0,0,0,0,0,0,0,0,0,0,0,0,0,0,0,0,0,0,0,0,0,0,0,0,0,0,0,0,0,0,0,0,0,0,0,0,0,0,0,0,0,0,0,0,0,0,0,0,0,0,0,0,0,0,0,0,0,0,0,0,0,0,0,0,0,0,0,0,0,0,0,0,0,0,0,0,0,0,0,0,0,0,0,0,0,0,0,0,0,0,0,0,0,0,0,0,0,0,0,0,0,0,0,0,0,0,0,0,0,0,0,0,0,0,0,0,0,0,0,0,0,0,0,0,0,0,0,0,0,0,0,0,0,0,0,0,0,0,0,0,0,0,0,0,0,0,0,0,0,0,0,-0.0181,0.1239,0,0,0,0,0,0,0,0,0,0,0,0,0,0,0,0,0,0,0,0,0,0,0,0,0,0,0,0,0,0,0,0,0,0,0,0,0,0,0,0,0,0,0,0,0.022,0.0162,0.0992,0.0942,0,0,0,0,0,0,0,0,0,0,0,0,0,0,0,0,0,0,0,0,0,0,0,0,0,0,0,0,0,0,0,0,0,0,0,0,0,0,0,0,0,0,0,0.0656,0.0725,0.0838,0.1079,0,0,0,0,0,0,0,0,0,0,0,0,0,0,0,0,0,0,0,0,0,0,0,0,0,0,0,0,0,0,0,0,0,0,0,0,0,0,0,0,0,0,0.1437,0.0937,0.0846,0.1003,0.1214,0,0,0,0,0,0,0,0,0,0,0,0,0,0,0,0,0,0,0,0,0,0,0,0,0,0,0,0,0,0,0,0,0,0,0,0,0,0,0,0,0,0,0.1236,0.0887,0.0783,0.1244,0.1302,0,0,0,0,0,0,0,0,0,0,0,0,0,0,0,0,0,0,0,0,0,0,0,0,0,0,0,0,0,0,0,0,0,0,0,0,0,0,0,0,0,0,0.1143,0.1079,0.0791,0.1406,0.1324,0,0,0,0,0,0,0,0,0,0,0,0,0,0,0,0,0,0,0,0,0,0,0,0,0,0,0,0,0,0,0,0,0,0,0,0,0,0,0,0,0,0,0.0879,0.0703,0.0824,0.1387,0.1134,0,0,0,0,0,0,0,0,0,0,0,0,0,0,0,0,0,0,0,0,0,0,0,0,0,0,0.0472,0.0291,0,0,0,0,0,0,0,0,0,0,0,0,0,0.1079,0.0901,0.0569,0.1112,0.1329,0.0961,0,0,0,0,0,0,0,0,0,0,0,0,0,0,0,0,0,0,0,0,0,0,0.075,0.0882,0.0431,0.0,0.0236,0.0146,0,0,0,0,0,0,0,0,0,0,0,0,0,0.1203,0.1371,0.1112,0.125,0.1156,0.0808,0.0286,0,0,0,0,0,0,0,0,0,0,0,0,0,0,0,0,0,0,0,0,0.1236,0.0374,0.0439,0.0217,0,0,0,0,0,0,0,0,0.0503,0.0648,0.0409,0,0,0,0,0,0.1123,0.1379,0.1316,0.1126,0.0915,0.0846,0.0288,0.0544,0,0,0,0,0,0,0,0,0,0,0,0,0,0,0,0,0,0,0.1151,0.0618,0,0,0,0,0,0,0,-0.0374,0,0.022,-0.0066,0.0239,0.0385,0.0368,0,0,0,0,0,0.1118,0.1379,0.1225,0.0983,0.0772,0.0961,0.0299,0.0222,0.0417,0,0,0,0,0,0,0,0,0,0,0,0,0,0,0,0,0.0857,0.0992,0,0,0.0107,0.0137,0.0244,0.0343,0.0187,-0.0052,-0.0335,0.0033,0.0019,0.0206,0.0536,0.0519,0.0313,0.0393,0.0453,0.0843,0.0,0.0,0.0538,0.1434,0.1362,0.0753,0.0673,0.061,0.0088,-0.0099,-0.0137,-0.0615,0,0,0,0,0,0,0,0,0,0,0,0,0.0461,0.0492,0.0673,0.0772,0.0654,0.0168,-0.0022,0.0099,0.0253,0.0327,0.0225,0.0063,-0.0118,-0.0239,0.0126,0.0233,0.0755,0.1093,0.1049,0.0148,0.0195,0.0788,0.103,0,0,0,0.1681,0.1989,0.0308,0.0299,0.0146,-0.0066,-0.0052,-0.0277,-0.0308,0,0,0,0,0,0,0,0.0467,0.0376,0.0209,0.0005,-0.0014,0.0179,0.0294,0.0494,0.0302,0.036,0.0225,0.0025,0.0324,0.0335,0.0192,0.0,-0.0049,-0.0091,-0.0038,0.0113,0.033,0.1099,0.103,0.0992,0,0,0.1112,0.1027,0.0692,0.0678,0.1123,0.0956,0.2008,0,0,0,0,0,0,0,0,0.0269,0.0154,0.011,0.028,0.0266,0.0299,0.0382,0.0137,0.0228,0.0003,0.0181,-0.0077,-0.0407,-0.0632,-0.0192,0.0269,0.0236,0.0305,0.0409,0.0184,0.003,-0.0038,0.0038,0.0069,0.0157,0,0,0.0959,0.0769,0.0599,0.0453,0.0077,0.1121,0.0821,0.0563,0.0585,0.0805,0,0.1049,0.0217,0.0288,0.0247,0.025,0.0255,0.0264,0.0272,0.022,0.0209,0.0107,-0.003,-0.0074,-0.0019,0.0104,-0.0003,0.0195,0.0519,0.0387,0.0371,0.0206,-0.0459,-0.0626,-0.031,0.0044,0.0222,0.0291,0.0305,0.0179,0.0107,0.0093,0.0181,0.0179,0.0157,-0.0088,-0.0014,0.0711,0.0959,0.0681,0.0582,0.011,0.0096,0.0198,0.0195,0.0253,0.0365,0.0365,0.0494,0.0308,0.0253,0.0214,0.0261,0.0181,0.0137,0.0088,0.0008,-0.0088,-0.0146,-0.0247,-0.0316,-0.0181,0.0003,-0.0036,0.0313,0.0687,0.0629,0.0346,0.0058,-0.0242,-0.0258,-0.0091,0.0132,0.0151,0.0093,0.0176,0.0244,0.0211,0.0151,0.0093,-0.0027,-0.0066,-0.0104,0.0206,0.0645,0.0788,0.0742,0.0739,0.0527,0.0352,0.0472,0.0547,0.0423,0.0047,0.0055,0.0206,0.0187,0.0228,0.036,0.0368,0.0242,0.0168,0.0121,0.0096,0.0107,0.006,-0.0104,-0.0162,-0.0135,0.0036,0.017,0.0426,0.0544,0.0368,0.0198,0.0236,0.0146,0.0088,0.0151,0.0124,0.0008,0.0005,0.017,0.0137,0.0148,0.0157,0.0088,-0.0016,0.0003,-0.0005,0.0132,0.0494,0.0673,0.0797,0.1118,0.117,0.0964,0.0854,0.0846,0.0816,0.0569,0.0261,0.0324,0.0396,0.0505,0.0549,0.0459,0.0393,0.0368,0.031,0.0275,0.0242,0.0162,0.008,0.0093,0.0143,0.0255,0.0368,0.0492,0.0428,0.0233,0.0308,0.0483,0.0415,0.0214,0.011,0.0022,0.0005,0.0096,0.019,-0.0011,0.0022,0.0033,0.0022,0.0033,0.0129,0.0253,0.0181,0.0401,0.0431,0.0744,0.1137,0.1285,0.1115,0.0983,0.092,0.0879,0.0805,0.0673,0.0656,0.0706,0.0678,0.0604,0.0569,0.053,0.0492,0.0445,0.0398,0.036,0.0319,0.031,0.0382,0.0434,0.0445,0.0407,0.0332,0.0266,0.0272,0.0434,0.0656,0.0629,0.0338,0.0121,0.0102,0.0176,0.0157,0.0005,0.0091,0.0118,0.0041,0.0038,0.0102,0.0236,0.0481,0.0475,0.0461,0.0472,0.0736,0.0975,0.1093,0.1151,0.1145,0.1041,0.0917,0.0882,0.0846,0.0808,0.078,0.0728,0.0698,0.0629,0.0582,0.0527,0.0478,0.0459,0.0459,0.0456,0.047,0.0503,0.0481,0.0417,0.0349,0.0313,0.0266,0.0266,0.0423,0.0569,0.0522,0.0343,0.0242,0.0201,0.0118,-0.0016,0.0143,0.0404,0.0363,0.0179,-0.0074,-0.0255,-0.0269,0.0722,0.0761,0.0711,0.0582,0.0725,0.0692,0.0829,0.1027,0.1085,0.1129,0.1044,0.095,0.0882,0.0835,0.0819,0.0819,0.0766,0.064,0.0538,0.0489,0.0428,0.0363,0.0363,0.0379,0.039,0.0374,0.0357,0.0401,0.0456,0.0426,0.0324,0.0255,0.0299,0.0305,0.0201,0.0071,0.0036,-0.0008,-0.0027,0.0236,0.053,0.042,0.0005,-0.0475,-0.0777,-0.0832,-0.0621,0.0917,0.0882,0.0703,0.0607,0.0588,0.0511,0.0722,0.0832,0.0873,0.0912,0.0989,0.1019,0.0964,0.0915,0.0884,0.0904,0.0893,0.0766,0.0634,0.0492,0.0338,0.0286,0.0255,0.0225,0.025,0.0305,0.0415,0.0544,0.0629,0.061,0.0505,0.0365,0.0272,0.0198,0.0033,-0.0165,-0.0228,-0.008,0.0297,0.0489,0.0239,-0.0261,-0.0659,-0.0791,-0.0604,-0.019,0.0338,0.1137,0.1005,0.0651,0.0621,0.0489,0.0461,0.0626,0.0736,0.0816,0.0824,0.0871,0.0959,0.1014,0.1035,0.0997,0.0992,0.1003,0.0873,0.0684,0.0503,0.0349,0.0192,0.0118,0.0143,0.0225,0.0324,0.0442,0.0582,0.0711,0.0736,0.0604,0.0426,0.0294,0.0192,-0.0019,-0.025,-0.0132,0.0217,0.0368,0.0132,-0.0236,-0.0459,-0.0349,0.0047,0.0577,0.1145,0.1618,0.1285,0.1115,0.078,0.0659,0.0442,0.047,0.0602,0.075,0.0838,0.0816,0.0821,0.0934,0.1079,0.1173,0.1143,0.1088,0.1044,0.0912,0.0722,0.0544,0.0349,0.0203,0.0063,0.011,0.0231,0.0352,0.0459,0.0585,0.0731,0.0788,0.064,0.0439,0.0335,0.0148,-0.0102,-0.0135,0.0126,0.0313,0.0146,-0.0121,-0.0225,-0.0104,0.0201,0.064,0.1143,0.1596,0.1945,0.1261,0.1077,0.0882,0.061,0.0423,0.0453,0.0602,0.0733,0.0849,0.086,0.0879,0.1003,0.1165,0.1274,0.1258,0.1167,0.1044,0.089,0.0714,0.0577,0.0464,0.0283,0.0181,0.0214,0.0324,0.0442,0.0563,0.0665,0.075,0.0777,0.0648,0.0453,0.0261,0.0066,-0.0044,0.0077,0.0269,0.0214,-0.0055,-0.0242,-0.0286,-0.0148,0.0148,0.0494,0.0854,0.117,0.1409,0.1101,0.0989,0.0766,0.0478,0.0305,0.0365,0.0536,0.0654,0.0805,0.0906,0.0981,0.1071,0.1203,0.1324,0.1329,0.1231,0.1057,0.086,0.0728,0.0651,0.0536,0.0423,0.0352,0.0374,0.0514,0.0659,0.0769,0.0808,0.0764,0.0678,0.0519,0.0335,0.0168,0.0005,-0.011,-0.0129,-0.0033,-0.0129,-0.0385,-0.0585,-0.0607,-0.0387,-0.0132,0.0085,0.0305,0.0459,0.0536,0.0884,0.0906,0.064,0.0393,0.0201,0.025,0.0401,0.0591,0.0772,0.0904,0.1008,0.1068,0.1162,0.1296,0.1343,0.1258,0.1079,0.0904,0.078,0.067,0.0613,0.0563,0.0522,0.0613,0.0775,0.0884,0.0906,0.0871,0.0753,0.0566,0.0319,0.0148,0.006,-0.0162,-0.0525,-0.0654,-0.0434,-0.0365,-0.0607,-0.0816,-0.0758,-0.0585,-0.0511,-0.0483,-0.0478,-0.0481,-0.0497,0.0681,0.0805,0.0569,0.0374,0.0222,0.0209,0.0343,0.0558,0.0777,0.0895,0.0986,0.103,0.1085,0.1203,0.1285,0.1239,0.1096,0.0948,0.0797,0.0714,0.0709,0.07,0.0742,0.0857,0.095,0.095,0.089,0.0827,0.0739,0.0503,0.0222,0.0085,-0.0058,-0.0396,-0.0821,-0.0923,-0.0623,-0.0398,-0.0582,-0.0832,-0.0871,-0.0895,-0.1003,-0.1145,-0.1338,-0.1469,-0.1442]}],[{"header":{"parameterUnit":"m.s-1","parameterCategory":2,"la1":30.8641,"la2":29.7642,"lo1":-88.4676,"lo2":-86.9344,"dy":0.0333,"dx":0.0333,"nx":47,"ny":34,"refTime":"2023-03-24T00:00:00:Z","depth":"10","parameterNumber":2,"parameterNumberName":"U-component_of_CURRENTS"},"data":[0,0,0,0,0,0,0,0,0,0,0,0,0,0,0,0,0,0,0,0,0,0,0,0,0,0,0,0,0,0,0,0,0,0,0,0,0,0,0,0,0,0,0,0,0,0,0,0,0,0,0,0,0,0,0,0,0,0,0,0,0,0,0,0,0,0,0,0,0,0,0,0,0,0,0,0,0,0,0,0,0,0,0,0,0,0,0,0,0,0,0,0,0,0,0,0,0,0,0,0,0,0,0,0,0,0,0,0,0,0,0,0,0,0,0,0,0,0,0,0,0,0,0,0,0,0,0,0,0,0,0,0,0,0,0,0,0,0,0,0,0,0,0,0,0,0,0,0,0,0,0,0,0,0,0,0,0,0,0,0,0,0,0,0,0,0,0,0,0,0,0,0,0,0,0,0,0,0,0,0,0,0,0,0,0,0,0,0,0,0,0,0,0,0,0,0,0,0,0,0,0,0,0,0,0,0,0,0,0,0,0,0,0,0,0,0,0,0,0,0,0,0,0,0,0,0,0,0,0,0,0,0,0,0,0,0,0,0,0,0,0,0,0,0,0,0,0,0,0,0,0,0,0,0,0,0,0,0,0,0,0,0,0,0,0,0,0,0,0,0,0,0,0,0,0,0,0,0,0,0,0,0,0,0,0,0,0,0,0,0,0,0,0,0,0,0,-0.0135,-0.0269,0,0,0,0,0,0,0,0,0,0,0,0,0,0,0,0,0,0,0,0,0,0,0,0,0,0,0,0,0,0,0,0,0,0,0,0,0,0,0,0,0,0,0,0,-0.0085,-0.0308,-0.0415,-0.0385,0,0,0,0,0,0,0,0,0,0,0,0,0,0,0,0,0,0,0,0,0,0,0,0,0,0,0,0,0,0,0,0,0,0,0,0,0,0,0,0,0,0,0,-0.0022,-0.0135,-0.0225,-0.0225,0,0,0,0,0,0,0,0,0,0,0,0,0,0,0,0,0,0,0,0,0,0,0,0,0,0,0,0,0,0,0,0,0,0,0,0,0,0,0,0,0,0,0.0225,0.0376,0.0124,-0.017,-0.0286,0,0,0,0,0,0,0,0,0,0,0,0,0,0,0,0,0,0,0,0,0,0,0,0,0,0,0,0,0,0,0,0,0,0,0,0,0,0,0,0,0,0,0.0047,0.0192,0.017,-0.0126,-0.0302,0,0,0,0,0,0,0,0,0,0,0,0,0,0,0,0,0,0,0,0,0,0,0,0,0,0,0,0,0,0,0,0,0,0,0,0,0,0,0,0,0,0,0.0085,0.019,0.0118,-0.0096,-0.0225,0,0,0,0,0,0,0,0,0,0,0,0,0,0,0,0,0,0,0,0,0,0,0,0,0,0,0,0,0,0,0,0,0,0,0,0,0,0,0,0,0,0,0.0371,0.0244,-0.0022,-0.0176,-0.0228,0,0,0,0,0,0,0,0,0,0,0,0,0,0,0,0,0,0,0,0,0,0,0,0,0,0,-0.003,-0.006,0,0,0,0,0,0,0,0,0,0,0,0,0,-0.0003,0.0038,0.0014,-0.0093,-0.0118,-0.0104,0,0,0,0,0,0,0,0,0,0,0,0,0,0,0,0,0,0,0,0,0,0,0.0102,0.0266,0.0459,0.0511,0.0478,0.0525,0,0,0,0,0,0,0,0,0,0,0,0,0,0.0,0.0005,-0.003,-0.0115,-0.014,-0.0052,0.0016,0,0,0,0,0,0,0,0,0,0,0,0,0,0,0,0,0,0,0,0,0.0382,0.0695,0.0508,0.039,0,0,0,0,0,0,0,0,0.0088,-0.0036,-0.0247,0,0,0,0,0,0.0027,0.0085,0.0104,0.0041,-0.0005,0.0082,0.0165,0.0113,0,0,0,0,0,0,0,0,0,0,0,0,0,0,0,0,0,0,0.0431,0.0766,0,0,0,0,0,0,0,-0.0162,0,0.0077,0.019,0.0162,0.0055,0.0005,0,0,0,0,0,-0.0008,0.0069,0.0225,0.0302,0.0272,0.0217,0.017,0.0049,-0.0044,0,0,0,0,0,0,0,0,0,0,0,0,0,0,0,0,-0.0121,-0.0124,0,0,-0.0154,-0.011,-0.0093,-0.0165,-0.0264,-0.0379,-0.0352,-0.003,0.0113,0.0003,-0.0052,-0.0014,-0.0069,-0.0052,0.022,0.0851,0.1263,0.128,0.0827,0.0368,0.0511,0.0604,0.0456,0.0313,0.0277,0.0104,-0.011,-0.0118,0,0,0,0,0,0,0,0,0,0,0,0,0.0148,0.0313,0.0159,-0.0099,-0.0283,-0.0233,-0.0052,-0.0093,-0.011,-0.0118,-0.0184,-0.0266,-0.0371,-0.0415,0.0044,-0.0074,-0.0173,-0.0058,0.0308,0.0404,0.0091,-0.0107,-0.0165,0,0,0,0.0058,0.0632,0.0912,0.0593,0.0472,0.0371,0.0338,0.0228,0.0091,0,0,0,0,0,0,0,-0.0113,-0.0113,0.008,0.0217,0.0316,0.0332,0.0302,0.0203,0.0102,-0.0102,-0.022,-0.0255,-0.022,-0.0275,-0.0335,-0.0431,-0.0547,-0.0574,-0.0541,0.0022,-0.0464,-0.0428,-0.0151,-0.0069,0,0,-0.0179,-0.0233,0.0069,0.0428,0.1014,0.0802,0.0187,0,0,0,0,0,0,0,0,-0.0016,0.0104,0.0181,-0.0069,-0.0162,0.003,0.0058,0.0052,0.0203,0.0338,0.0525,0.0764,0.0519,0.0107,-0.0129,-0.0352,-0.028,-0.0195,-0.0327,-0.0459,-0.0571,-0.0673,-0.0681,-0.0621,-0.0577,0,0,-0.0088,-0.011,0.0019,0.0247,0.064,0.025,0.0016,0.0126,0.0198,0.0129,0,-0.0357,-0.0511,-0.0179,0.0025,0.0129,0.0162,0.0168,0.0176,0.0198,0.0217,0.0228,0.0192,0.0093,0.0165,0.0104,-0.0159,-0.0217,-0.0055,0.0258,0.0459,0.0247,-0.0198,-0.0494,-0.0621,-0.0349,-0.0159,-0.0354,-0.0533,-0.0615,-0.0662,-0.0582,-0.0483,-0.0508,-0.0615,0.0049,-0.0151,-0.0195,-0.017,-0.0005,0.0291,0.0201,-0.0049,-0.0041,-0.0033,-0.0096,-0.0184,-0.0198,-0.0198,-0.025,-0.0022,0.0137,0.0157,0.0198,0.0236,0.0291,0.0327,0.0335,0.0374,0.0382,0.0184,-0.0291,-0.0343,-0.0236,-0.0096,-0.0047,-0.0291,-0.0503,-0.0544,-0.0585,-0.0654,-0.0489,-0.0253,-0.0316,-0.0423,-0.0511,-0.0552,-0.0516,-0.0494,-0.0588,-0.0788,-0.1011,-0.0613,-0.0961,-0.0846,-0.0483,-0.0179,-0.0052,-0.0209,-0.0206,-0.0085,-0.0124,-0.0198,-0.0291,-0.0269,-0.0184,-0.0091,0.003,0.0096,0.0157,0.025,0.0354,0.0407,0.0338,0.0255,0.0184,0.0033,-0.0115,-0.0151,-0.0165,-0.017,-0.0132,-0.0118,-0.0102,-0.0231,-0.0409,-0.0445,-0.0371,-0.0236,-0.0239,-0.0302,-0.0343,-0.0423,-0.0563,-0.0725,-0.0854,-0.0972,-0.111,-0.1228,-0.0992,-0.1005,-0.0915,-0.0744,-0.0618,-0.0508,-0.0437,-0.0409,-0.0332,-0.0203,-0.0146,-0.0244,-0.0371,-0.031,-0.0192,-0.0129,-0.0074,-0.0033,0.0008,0.0041,0.0055,0.0041,0.0005,-0.0044,-0.0066,-0.0036,-0.0008,-0.0003,0.0003,-0.003,-0.0121,-0.0242,-0.0316,-0.0313,-0.0299,-0.0297,-0.0313,-0.0332,-0.0357,-0.0417,-0.0648,-0.097,-0.1173,-0.1247,-0.1277,-0.1409,-0.15,-0.0906,-0.0937,-0.0819,-0.0717,-0.0678,-0.0747,-0.0846,-0.084,-0.0744,-0.0607,-0.0489,-0.0379,-0.0357,-0.0387,-0.0368,-0.0313,-0.0247,-0.0201,-0.017,-0.0143,-0.0115,-0.0088,-0.008,-0.008,-0.0063,-0.0052,-0.006,-0.0115,-0.0206,-0.0239,-0.0159,-0.0091,-0.0129,-0.0239,-0.0316,-0.0288,-0.0272,-0.0374,-0.0563,-0.0882,-0.1129,-0.1134,-0.1222,-0.1354,-0.1365,-0.1225,-0.106,-0.0091,-0.0179,-0.0264,-0.0341,-0.0412,-0.0596,-0.0802,-0.0846,-0.0829,-0.0799,-0.0722,-0.0629,-0.0552,-0.05,-0.0475,-0.0426,-0.0338,-0.0275,-0.0239,-0.0209,-0.0181,-0.0162,-0.0148,-0.0135,-0.0146,-0.0206,-0.0302,-0.0385,-0.0409,-0.0346,-0.0233,-0.0176,-0.0231,-0.0398,-0.0552,-0.056,-0.0558,-0.0772,-0.1074,-0.1255,-0.1225,-0.1181,-0.1195,-0.1104,-0.0904,-0.0709,-0.0629,-0.0036,-0.0091,-0.0168,-0.0225,-0.0299,-0.0428,-0.047,-0.0541,-0.0678,-0.0769,-0.0788,-0.075,-0.0681,-0.0615,-0.0563,-0.0483,-0.0376,-0.0299,-0.025,-0.0206,-0.0181,-0.0192,-0.0231,-0.0291,-0.039,-0.05,-0.0558,-0.0558,-0.0503,-0.0398,-0.0288,-0.0233,-0.0294,-0.0492,-0.0728,-0.0879,-0.0983,-0.1151,-0.1285,-0.1203,-0.1112,-0.1041,-0.0942,-0.0742,-0.0489,-0.0354,-0.0341,-0.0074,-0.0066,0.0005,0.0071,-0.0008,-0.0099,-0.0129,-0.0206,-0.0374,-0.0569,-0.075,-0.0838,-0.0805,-0.0728,-0.064,-0.0511,-0.036,-0.0264,-0.0228,-0.0236,-0.0283,-0.0349,-0.047,-0.0607,-0.0698,-0.0709,-0.067,-0.0621,-0.0566,-0.0472,-0.0349,-0.0294,-0.0428,-0.0698,-0.0948,-0.111,-0.1209,-0.1228,-0.1085,-0.0992,-0.0934,-0.0821,-0.0681,-0.0654,-0.0667,-0.0549,-0.0335,-0.0198,-0.0159,-0.0055,0.0074,0.0041,-0.0011,-0.0063,-0.0228,-0.0409,-0.053,-0.0618,-0.0714,-0.0755,-0.0684,-0.0571,-0.0437,-0.0316,-0.0308,-0.0385,-0.0442,-0.0437,-0.0481,-0.0582,-0.0673,-0.0678,-0.0629,-0.0582,-0.0563,-0.0547,-0.05,-0.0434,-0.0456,-0.0665,-0.0923,-0.1096,-0.1244,-0.12,-0.1008,-0.084,-0.0777,-0.0832,-0.0986,-0.0994,-0.0711,-0.0275,0.0036,0.0203,-0.0203,-0.0286,-0.0209,-0.017,-0.0203,-0.0209,-0.0302,-0.0442,-0.0514,-0.0538,-0.0558,-0.0544,-0.05,-0.0453,-0.039,-0.0324,-0.0324,-0.0434,-0.0533,-0.0547,-0.0533,-0.0481,-0.0464,-0.0423,-0.0363,-0.0321,-0.0294,-0.0288,-0.0319,-0.0385,-0.0483,-0.064,-0.0827,-0.0989,-0.1129,-0.1165,-0.0934,-0.0714,-0.0722,-0.0912,-0.1027,-0.0862,-0.042,0.0063,0.0404,0.0566,0.056,-0.0102,-0.0269,-0.0297,-0.0335,-0.0382,-0.0415,-0.0478,-0.058,-0.0656,-0.0648,-0.0577,-0.0481,-0.0417,-0.0417,-0.0415,-0.0415,-0.0481,-0.0577,-0.0637,-0.064,-0.0536,-0.0387,-0.0253,-0.014,-0.0027,0.0047,0.0082,0.008,0.0003,-0.0159,-0.0352,-0.0547,-0.075,-0.0895,-0.0945,-0.0766,-0.0541,-0.0522,-0.0689,-0.078,-0.0637,-0.0247,0.0192,0.047,0.0613,0.0604,0.0453,-0.0008,-0.0162,-0.0236,-0.0319,-0.0398,-0.0448,-0.0525,-0.0599,-0.0632,-0.0599,-0.0511,-0.045,-0.0459,-0.0514,-0.0582,-0.064,-0.0654,-0.0659,-0.0654,-0.0604,-0.0486,-0.0316,-0.0143,0.0008,0.0137,0.0222,0.0228,0.019,0.0102,-0.0052,-0.0228,-0.0423,-0.0585,-0.0656,-0.0492,-0.0277,-0.0244,-0.0385,-0.0511,-0.0437,-0.0258,0.0124,0.0393,0.0552,0.064,0.0522,0.0236,0.003,-0.0077,-0.0099,-0.0082,-0.0102,-0.014,-0.0214,-0.0264,-0.0308,-0.0363,-0.0401,-0.0431,-0.0481,-0.0566,-0.0667,-0.0717,-0.0695,-0.0632,-0.0571,-0.0514,-0.0404,-0.0247,-0.008,0.006,0.0143,0.0143,0.0096,0.0049,-0.0052,-0.0148,-0.0129,-0.019,-0.0242,-0.011,0.011,0.0102,-0.0132,-0.0288,-0.0299,-0.0159,0.006,0.0327,0.0475,0.0563,0.058,0.0497,0.0341,0.0074,0.006,0.0115,0.0192,0.022,0.0233,0.0159,0.0091,0.0019,-0.0102,-0.0201,-0.0269,-0.0346,-0.0461,-0.0602,-0.067,-0.0634,-0.0547,-0.0456,-0.0385,-0.0288,-0.0157,-0.0033,0.0049,0.0044,-0.0014,-0.0063,-0.0124,-0.0211,-0.0231,-0.0228,-0.0055,0.0214,0.0525,0.0711,0.0492,0.0181,0.0077,0.011,0.0244,0.0442,0.0607,0.0659,0.0621,0.0527,0.0497,0.0423]},{"header":{"parameterUnit":"m.s-1","parameterCategory":2,"la1":30.8641,"la2":29.7642,"lo1":-88.4676,"lo2":-86.9344,"dy":0.0333,"dx":0.0333,"nx":47,"ny":34,"refTime":"2023-03-24T00:00:00:Z","depth":"10","parameterNumber":3,"parameterNumberName":"V-component_of_CURRENTS"},"data":[0,0,0,0,0,0,0,0,0,0,0,0,0,0,0,0,0,0,0,0,0,0,0,0,0,0,0,0,0,0,0,0,0,0,0,0,0,0,0,0,0,0,0,0,0,0,0,0,0,0,0,0,0,0,0,0,0,0,0,0,0,0,0,0,0,0,0,0,0,0,0,0,0,0,0,0,0,0,0,0,0,0,0,0,0,0,0,0,0,0,0,0,0,0,0,0,0,0,0,0,0,0,0,0,0,0,0,0,0,0,0,0,0,0,0,0,0,0,0,0,0,0,0,0,0,0,0,0,0,0,0,0,0,0,0,0,0,0,0,0,0,0,0,0,0,0,0,0,0,0,0,0,0,0,0,0,0,0,0,0,0,0,0,0,0,0,0,0,0,0,0,0,0,0,0,0,0,0,0,0,0,0,0,0,0,0,0,0,0,0,0,0,0,0,0,0,0,0,0,0,0,0,0,0,0,0,0,0,0,0,0,0,0,0,0,0,0,0,0,0,0,0,0,0,0,0,0,0,0,0,0,0,0,0,0,0,0,0,0,0,0,0,0,0,0,0,0,0,0,0,0,0,0,0,0,0,0,0,0,0,0,0,0,0,0,0,0,0,0,0,0,0,0,0,0,0,0,0,0,0,0,0,0,0,0,0,0,0,0,0,0,0,0,0,0,0,-0.0217,0.0159,0,0,0,0,0,0,0,0,0,0,0,0,0,0,0,0,0,0,0,0,0,0,0,0,0,0,0,0,0,0,0,0,0,0,0,0,0,0,0,0,0,0,0,0,0.0159,0.0041,0.0181,0.0461,0,0,0,0,0,0,0,0,0,0,0,0,0,0,0,0,0,0,0,0,0,0,0,0,0,0,0,0,0,0,0,0,0,0,0,0,0,0,0,0,0,0,0,0.0371,0.0382,0.0313,0.0541,0,0,0,0,0,0,0,0,0,0,0,0,0,0,0,0,0,0,0,0,0,0,0,0,0,0,0,0,0,0,0,0,0,0,0,0,0,0,0,0,0,0,0.028,0.0544,0.0461,0.0448,0.0648,0,0,0,0,0,0,0,0,0,0,0,0,0,0,0,0,0,0,0,0,0,0,0,0,0,0,0,0,0,0,0,0,0,0,0,0,0,0,0,0,0,0,0.045,0.0547,0.0492,0.0582,0.0714,0,0,0,0,0,0,0,0,0,0,0,0,0,0,0,0,0,0,0,0,0,0,0,0,0,0,0,0,0,0,0,0,0,0,0,0,0,0,0,0,0,0,0.0725,0.0591,0.0541,0.0731,0.0755,0,0,0,0,0,0,0,0,0,0,0,0,0,0,0,0,0,0,0,0,0,0,0,0,0,0,0,0,0,0,0,0,0,0,0,0,0,0,0,0,0,0,0.0632,0.0571,0.0596,0.0764,0.0772,0,0,0,0,0,0,0,0,0,0,0,0,0,0,0,0,0,0,0,0,0,0,0,0,0,0,0.0374,0.0244,0,0,0,0,0,0,0,0,0,0,0,0,0,0.0448,0.047,0.0544,0.0599,0.0703,0.0733,0,0,0,0,0,0,0,0,0,0,0,0,0,0,0,0,0,0,0,0,0,0,0.056,0.0299,0.0365,0.0,0.0187,0.0121,0,0,0,0,0,0,0,0,0,0,0,0,0,0.0549,0.0574,0.0574,0.0563,0.0569,0.0536,0.0269,0,0,0,0,0,0,0,0,0,0,0,0,0,0,0,0,0,0,0,0,0.1005,0.028,0.0148,0.0184,0,0,0,0,0,0,0,0,0.0319,0.039,0.0319,0,0,0,0,0,0.0634,0.0711,0.0665,0.0591,0.0494,0.0393,0.0302,0.0368,0,0,0,0,0,0,0,0,0,0,0,0,0,0,0,0,0,0,0.0854,0.0503,0,0,0,0,0,0,0,-0.0332,0,0.0047,0.0077,0.0291,0.036,0.0376,0,0,0,0,0,0.0786,0.0904,0.0819,0.0596,0.0464,0.0376,0.0319,0.0299,0.0352,0,0,0,0,0,0,0,0,0,0,0,0,0,0,0,0,0.0599,0.0761,0,0,0.0113,0.0066,0.0082,0.0132,0.0107,-0.0121,-0.0308,0.0107,0.0102,0.0233,0.0426,0.0494,0.0363,0.0173,0.0417,0.0769,0.0,0.0,0.0461,0.1005,0.1079,0.0505,0.036,0.0294,0.0217,0.0201,-0.0003,-0.0357,0,0,0,0,0,0,0,0,0,0,0,0,0.0368,0.0398,0.0519,0.0514,0.0464,0.017,0.0146,0.0016,0.0107,0.0148,0.0063,-0.003,-0.0217,-0.0302,-0.0071,0.0121,0.0527,0.0733,0.0832,0.0146,0.0085,0.0593,0.0876,0,0,0,0.1236,0.1588,0.0217,0.0146,0.0118,0.0066,0.0085,-0.0104,-0.0179,0,0,0,0,0,0,0,0.0434,0.0316,0.0173,0.025,0.0283,0.0319,0.0374,0.0538,0.042,0.0335,0.0179,-0.0074,0.0082,0.0107,0.008,-0.0168,-0.0255,-0.0335,-0.0253,-0.0126,0.0041,0.0747,0.0846,0.0849,0,0,0.0851,0.0835,0.0602,0.0621,0.0948,0.0742,0.1656,0,0,0,0,0,0,0,0,0.0261,0.0129,0.0113,0.0277,0.0341,0.0527,0.0376,0.0264,0.0217,0.0069,-0.0047,-0.0244,-0.0063,-0.0088,0.0033,0.0332,0.008,0.0008,0.0107,-0.0041,-0.0129,-0.0275,-0.025,-0.0231,-0.0124,0,0,0.067,0.0629,0.0516,0.0461,0.0602,0.081,0.0626,0.0494,0.053,0.0698,0,0.0934,0.0206,0.0286,0.0272,0.0266,0.0255,0.0261,0.0275,0.0255,0.0228,0.0121,0.0129,0.0272,0.0409,0.0319,0.0201,0.0168,0.0261,0.0041,-0.0107,-0.0288,-0.0604,-0.0533,-0.0036,0.0033,-0.0058,-0.0005,0.0011,-0.0104,-0.0085,-0.0066,-0.0036,-0.0038,-0.0014,0.0522,0.042,0.0527,0.047,0.0385,0.0118,0.0179,0.0437,0.0472,0.0338,0.0382,0.039,0.0354,0.0456,0.0297,0.0266,0.0244,0.0247,0.0217,0.0201,0.019,0.0157,0.0082,0.0,0.0008,-0.0124,-0.0151,0.0005,-0.008,0.0099,0.025,0.0126,-0.0027,-0.0195,-0.0467,-0.0327,-0.0115,-0.0088,-0.0148,-0.0157,-0.0102,0.0069,0.0107,0.0135,0.0107,0.0093,0.0135,0.0115,0.0063,0.0222,0.0492,0.0302,0.0244,0.025,0.0124,0.0206,0.0258,0.0121,0.008,0.0316,0.0382,0.0244,0.0206,0.0195,0.0184,0.008,-0.0014,-0.0154,-0.0258,-0.0302,-0.0324,-0.0335,-0.0343,-0.0316,-0.0143,-0.006,0.0132,0.0211,0.0038,-0.0074,0.0003,-0.014,-0.0225,-0.0154,-0.0168,-0.0239,-0.0239,-0.0044,0.0239,0.0269,0.0299,0.0214,0.0093,0.0124,0.0063,0.0154,0.0255,0.0305,0.0382,0.0673,0.0742,0.0602,0.0571,0.0533,0.047,0.0272,0.0129,0.0165,0.0206,0.0275,0.0264,0.0173,0.0107,0.0063,-0.0003,-0.0085,-0.0129,-0.0143,-0.019,-0.0165,-0.0093,0.0049,0.0201,0.0363,0.0305,-0.0014,-0.0014,0.0206,0.0115,-0.0113,-0.0176,-0.0214,-0.0231,-0.0113,0.0203,0.0228,0.0107,0.0102,0.0096,0.0126,0.0239,0.0184,0.0074,0.0115,0.0195,0.0461,0.0788,0.0862,0.0805,0.0733,0.0665,0.0602,0.0522,0.0431,0.0459,0.05,0.0428,0.0327,0.0266,0.0239,0.0211,0.0176,0.0124,0.0085,0.0063,0.0063,0.0137,0.0217,0.0297,0.0385,0.0387,0.0277,0.0148,0.0217,0.0426,0.0368,0.0069,-0.0091,-0.0069,0.0027,0.0159,0.0222,0.0126,0.0088,0.0033,0.0069,0.0157,0.0286,0.0299,0.0217,0.0214,0.0236,0.0445,0.0676,0.0819,0.0884,0.0854,0.0764,0.0656,0.0613,0.0602,0.0574,0.0536,0.0467,0.0453,0.0467,0.0415,0.0365,0.0335,0.031,0.0288,0.0266,0.0275,0.0332,0.0387,0.0437,0.045,0.0387,0.0283,0.0222,0.0341,0.0549,0.0492,0.0236,0.0102,0.0143,0.0184,0.017,0.0157,0.0332,0.0327,0.0157,-0.0074,-0.022,-0.0225,0.0475,0.0544,0.0404,0.036,0.0516,0.072,0.0813,0.0956,0.1003,0.0917,0.078,0.0703,0.0645,0.0582,0.0541,0.0569,0.0692,0.0654,0.056,0.05,0.0445,0.0409,0.0382,0.0368,0.0374,0.0387,0.0415,0.0467,0.0494,0.0439,0.0321,0.0261,0.0368,0.0492,0.0398,0.0217,0.0173,0.0173,0.0165,0.022,0.0445,0.0382,-0.0027,-0.0464,-0.0769,-0.0832,-0.0673,0.0728,0.0791,0.0445,0.0374,0.056,0.0626,0.0684,0.081,0.0876,0.0937,0.0873,0.078,0.0761,0.0722,0.0684,0.0728,0.0824,0.0725,0.0577,0.0514,0.0453,0.0417,0.0385,0.0357,0.0327,0.0343,0.0428,0.0544,0.0621,0.0582,0.0434,0.0321,0.0368,0.0401,0.0253,0.0096,0.0069,0.008,0.0239,0.0398,0.0181,-0.0302,-0.0698,-0.0846,-0.0673,-0.0308,0.017,0.0994,0.0849,0.0439,0.0431,0.0569,0.0514,0.0645,0.0755,0.0829,0.0813,0.0827,0.0832,0.0876,0.0909,0.0893,0.0893,0.0928,0.0788,0.0651,0.0569,0.0472,0.0371,0.0286,0.0288,0.0291,0.0335,0.045,0.0585,0.07,0.0709,0.0558,0.0415,0.0417,0.0368,0.0168,-0.0008,-0.0014,0.019,0.0288,0.0049,-0.033,-0.0538,-0.0431,-0.0066,0.0445,0.0986,0.1423,0.1173,0.092,0.0632,0.0613,0.0591,0.0547,0.0656,0.0753,0.0824,0.0821,0.0846,0.0895,0.0978,0.1077,0.1055,0.1008,0.095,0.0827,0.072,0.061,0.0489,0.0349,0.0214,0.019,0.0233,0.0341,0.0497,0.0607,0.0706,0.0739,0.0613,0.05,0.0467,0.0291,0.0082,0.0016,0.0159,0.025,0.0052,-0.0201,-0.0272,-0.0162,0.0121,0.0547,0.1019,0.1445,0.1769,0.1173,0.0997,0.0794,0.0687,0.0558,0.0541,0.0623,0.0711,0.0794,0.0827,0.0862,0.0939,0.106,0.1176,0.1165,0.1082,0.0948,0.084,0.075,0.0678,0.0544,0.0327,0.019,0.0173,0.0255,0.0426,0.0571,0.0634,0.07,0.0703,0.0577,0.0445,0.0316,0.0157,0.0099,0.0157,0.0247,0.0113,-0.0168,-0.0316,-0.0354,-0.0242,0.0049,0.0374,0.072,0.1027,0.125,0.1014,0.0923,0.0794,0.0596,0.0434,0.0464,0.0574,0.0687,0.0788,0.0849,0.0909,0.0978,0.111,0.1228,0.1233,0.1134,0.0972,0.0865,0.0791,0.0706,0.0541,0.0343,0.0231,0.0272,0.0417,0.0588,0.0665,0.0681,0.0722,0.0645,0.0481,0.0302,0.0168,0.0052,-0.0055,-0.0099,-0.0063,-0.0214,-0.0492,-0.0681,-0.0711,-0.0516,-0.0255,-0.0049,0.0165,0.033,0.0396,0.0783,0.0882,0.0739,0.0494,0.0313,0.0327,0.0514,0.0676,0.0758,0.0846,0.0926,0.0986,0.1079,0.1206,0.1241,0.1156,0.1025,0.0895,0.0766,0.067,0.0549,0.0415,0.0382,0.0486,0.0645,0.0736,0.0722,0.0714,0.0711,0.0571,0.0316,0.0124,0.0038,-0.0168,-0.0492,-0.0607,-0.0409,-0.0423,-0.0698,-0.0953,-0.0923,-0.0722,-0.0643,-0.0621,-0.0632,-0.0626,-0.0656,0.0599,0.0873,0.0703,0.0453,0.0297,0.0253,0.0448,0.0654,0.0758,0.0838,0.0912,0.0956,0.1003,0.1118,0.1184,0.114,0.1019,0.0865,0.0742,0.0659,0.0593,0.0549,0.0588,0.0698,0.078,0.0764,0.0711,0.0698,0.0643,0.0437,0.0159,0.0025,-0.0121,-0.0453,-0.0821,-0.0904,-0.0588,-0.0437,-0.0681,-0.1022,-0.1041,-0.1038,-0.1134,-0.1302,-0.1552,-0.1673,-0.1659]}],[{"header":{"parameterUnit":"m.s-1","parameterCategory":2,"la1":30.8641,"la2":29.7642,"lo1":-88.4676,"lo2":-86.9344,"dy":0.0333,"dx":0.0333,"nx":47,"ny":34,"refTime":"2023-03-24T00:00:00:Z","depth":"12","parameterNumber":2,"parameterNumberName":"U-component_of_CURRENTS"},"data":[0,0,0,0,0,0,0,0,0,0,0,0,0,0,0,0,0,0,0,0,0,0,0,0,0,0,0,0,0,0,0,0,0,0,0,0,0,0,0,0,0,0,0,0,0,0,0,0,0,0,0,0,0,0,0,0,0,0,0,0,0,0,0,0,0,0,0,0,0,0,0,0,0,0,0,0,0,0,0,0,0,0,0,0,0,0,0,0,0,0,0,0,0,0,0,0,0,0,0,0,0,0,0,0,0,0,0,0,0,0,0,0,0,0,0,0,0,0,0,0,0,0,0,0,0,0,0,0,0,0,0,0,0,0,0,0,0,0,0,0,0,0,0,0,0,0,0,0,0,0,0,0,0,0,0,0,0,0,0,0,0,0,0,0,0,0,0,0,0,0,0,0,0,0,0,0,0,0,0,0,0,0,0,0,0,0,0,0,0,0,0,0,0,0,0,0,0,0,0,0,0,0,0,0,0,0,0,0,0,0,0,0,0,0,0,0,0,0,0,0,0,0,0,0,0,0,0,0,0,0,0,0,0,0,0,0,0,0,0,0,0,0,0,0,0,0,0,0,0,0,0,0,0,0,0,0,0,0,0,0,0,0,0,0,0,0,0,0,0,0,0,0,0,0,0,0,0,0,0,0,0,0,0,0,0,0,0,0,0,0,0,0,0,0,0,0,0,0,0,0,0,0,0,0,0,0,0,0,0,0,0,0,0,0,0,0,0,0,0,0,0,0,0,0,0,0,0,0,0,0,0,0,0,0,0,0,0,0,0,0,0,0,0,0,0,0,0,0,0,0,0,0,0,0,0,0,0,0,0,0,0,0,0,0,0,0,0,0,0,0,0,0,0,0,0,0,0,0,0,0,0,0,0,0,0,0,0,0,0,0,0,0,0,0,0,0,0,0,0,0,0,0,0,0,0,0,0,0,0,0,0,0,0,0,0,0,0,0,0,0,0,0,0,0,0,0,0,0,0,0,0,0,0,0,0,0,0,0,0,0,0,0,0,0,0,0,0,0,0,0,0,0,0,0,0,0,0,0,0,0,0,0,0,0,0,0,0,0,0,0,0,0,0,0,0,0,0,0,0,0,0,0,0,0,0,0,0,0,0,0,0,0,0,0,0,0,0,0,0,0,0,0,0,0,0,0,0,0,0,0,0,0,0,0,0,0,0,0,0,0,0,0,0,0,0,0,0,0,0,0,0,0,0,0,0,0,0,0,0,0,0,0,0,0,0,0,0,0,0,0,0,0,0,0,0,0,0,0,0,0,0,0,0,0,0,0,0,0,0,0,0,0,0,0,0,0,0,0,0,0,0,0,0,0,0,0,0,0,0,0,0,0,0,0,0,0,0,0,0,0,0,0,0,0,0,0,0,0,0,0,0,0,0,0,0,0,0,0,0,0,0,0,0,0,0,0,0,0,0,0,0,0,0,0,0,0,0,0,0,0,0,0,0,0,0,0,0,0,0,0,0,0,0,0,0,0,0,0,0,0,0,0,0,0,0,0,0,0,0,0,0,0,0,0,0,0,0,0,0,0,0,0,0,0,0,0,0,0,0,0,0,0,0,0,0,0,0,0,0,0,0,0,0,0,0,0,0,0,0,0,0,0,0,0,0,0,0,0,0,0,0,0,0,0,0,0,0,0,0,0,0,0,0,0,0,0,0,0,0,0,0,0,0,0,0,0,0,0,0,0,0,-0.0129,0,0,0,0,0,0,0,0,0,0,0,0,0,0,0,0,0,0,0,0,0,0,0,0,0,0,0,0,0,0,0,0,0,0,0,0,0,0,0,0,0,-0.0104,-0.0088,-0.0115,-0.0179,-0.028,-0.0297,0,0,0,0,0,0,0,0,0,0,0,0,0,0,0,0,0,0,0,0,0,0,0,0,0,0,0,0,0,0,0,0,0,0,0,0,0,0,-0.0184,-0.0036,-0.0052,-0.0058,-0.0088,-0.0137,-0.0203,-0.0286,-0.0346,0,0,0,0,0,0,0,0,0,0,0,0,0,0,0,0,0,0,0,0,0,0,0,0,0,0,0,0,0,0,0,0,0,0,0,0,-0.0016,-0.0082,-0.0214,-0.0291,-0.0272,-0.025,-0.0247,-0.0308,-0.0404,-0.045,-0.0461,0,0,0,0,0,0,0,0,0,0,0,0,0,0,0,0,0,0,0,0,0,0,0,0,0,0,0,0,0,0.0005,0.0066,0.0168,0.033,0.0492,0.0299,0.0049,-0.0069,-0.0319,-0.0398,-0.0335,-0.0338,-0.036,-0.0434,-0.0549,-0.0602,-0.0577,-0.0533,0,0,0,0,0,0.0135,0.0335,0,0,0,0,0,0,0,0,0,0,0,0,0,0,0,0,0,0,0,-0.0113,0.0041,0.0071,-0.0121,-0.0077,0.014,0.0401,0.0376,-0.008,-0.042,-0.053,-0.0588,-0.0393,-0.0442,-0.0492,-0.0514,-0.0618,-0.0621,-0.058,-0.0588,-0.0648,-0.017,-0.0247,-0.017,-0.0027,0.0058,0.0115,0.006,-0.0058,-0.0107,-0.0055,-0.0047,0,-0.0176,0,-0.0236,-0.0019,0.0126,0.0151,0.019,0.0217,0.0239,0.0244,0.025,0.0255,0.0179,0.0055,-0.0077,-0.0461,-0.0398,-0.025,-0.0206,-0.0297,-0.0434,-0.0516,-0.0552,-0.0621,-0.0717,-0.053,-0.0434,-0.0489,-0.0522,-0.0558,-0.0577,-0.0585,-0.0665,-0.0786,-0.0945,-0.0159,-0.0346,-0.053,-0.0431,-0.0181,0.0003,-0.0025,-0.0118,-0.017,-0.0258,-0.0349,-0.0283,-0.0173,-0.014,-0.0074,0.0033,0.0071,0.0099,0.0157,0.0201,0.0236,0.0258,0.0277,0.0294,0.0272,-0.006,-0.0393,-0.031,-0.0228,-0.0184,-0.0206,-0.028,-0.0376,-0.0533,-0.064,-0.0659,-0.0541,-0.0387,-0.0371,-0.0423,-0.0456,-0.0453,-0.0508,-0.0676,-0.0909,-0.1088,-0.1189,-0.0651,-0.0802,-0.0898,-0.072,-0.0522,-0.0459,-0.0439,-0.0401,-0.031,-0.0201,-0.0198,-0.0327,-0.0393,-0.0272,-0.0146,-0.0085,-0.0033,0.0016,0.0074,0.0129,0.014,0.0107,0.0066,-0.0011,-0.0104,-0.011,-0.0069,-0.0036,0.0008,0.0022,-0.0091,-0.0302,-0.0464,-0.0492,-0.0464,-0.0445,-0.0426,-0.0401,-0.0409,-0.0417,-0.0489,-0.0733,-0.1044,-0.1181,-0.1154,-0.1195,-0.1338,-0.103,-0.0981,-0.086,-0.0753,-0.075,-0.0766,-0.0758,-0.0709,-0.061,-0.0492,-0.0385,-0.0294,-0.0313,-0.036,-0.0319,-0.025,-0.0184,-0.0137,-0.0099,-0.0071,-0.0041,-0.0022,-0.0038,-0.0063,-0.0063,-0.0055,-0.0049,-0.0058,-0.0085,-0.008,-0.0038,-0.0036,-0.011,-0.0231,-0.033,-0.0354,-0.0308,-0.0352,-0.0472,-0.0695,-0.0945,-0.106,-0.1296,-0.1478,-0.1494,-0.1327,-0.1154,-0.0566,-0.0398,-0.0398,-0.0442,-0.053,-0.0689,-0.0819,-0.0819,-0.0769,-0.0722,-0.0648,-0.0566,-0.0494,-0.0445,-0.0417,-0.0374,-0.0294,-0.0222,-0.0187,-0.0162,-0.0132,-0.011,-0.0102,-0.0099,-0.0113,-0.0154,-0.0211,-0.0247,-0.025,-0.0206,-0.0137,-0.0121,-0.0187,-0.0297,-0.039,-0.0407,-0.0407,-0.0585,-0.0854,-0.1104,-0.1258,-0.1299,-0.1305,-0.1225,-0.1011,-0.0769,-0.0673,-0.0324,-0.025,-0.0247,-0.0261,-0.0308,-0.0387,-0.0475,-0.0588,-0.07,-0.0758,-0.0755,-0.0709,-0.0651,-0.0593,-0.0536,-0.0464,-0.0352,-0.0247,-0.019,-0.0157,-0.0126,-0.0118,-0.0143,-0.0192,-0.0275,-0.0371,-0.0437,-0.0426,-0.0363,-0.0286,-0.0203,-0.0157,-0.0192,-0.0324,-0.0511,-0.0667,-0.0777,-0.0898,-0.1145,-0.1258,-0.1203,-0.1145,-0.1077,-0.0931,-0.0695,-0.0503,-0.0376,-0.0286,-0.0206,-0.0113,0.0016,0.0038,-0.0044,-0.0162,-0.0288,-0.0434,-0.0602,-0.0755,-0.0821,-0.0788,-0.072,-0.0648,-0.0558,-0.0423,-0.0299,-0.0217,-0.0168,-0.0173,-0.0236,-0.033,-0.0448,-0.0547,-0.0588,-0.0577,-0.0538,-0.0475,-0.0379,-0.0272,-0.0222,-0.0299,-0.0516,-0.075,-0.0898,-0.106,-0.1209,-0.1162,-0.106,-0.0989,-0.0909,-0.0805,-0.0687,-0.0613,-0.0522,-0.0428,-0.0439,-0.033,-0.0173,0.0041,0.0071,0.0005,-0.0088,-0.0255,-0.0401,-0.0514,-0.0632,-0.0764,-0.0821,-0.0755,-0.0659,-0.0541,-0.0437,-0.0385,-0.0379,-0.0376,-0.0349,-0.0335,-0.042,-0.053,-0.0585,-0.0591,-0.056,-0.0522,-0.0472,-0.0407,-0.0343,-0.0349,-0.0492,-0.0698,-0.0882,-0.1071,-0.1181,-0.106,-0.0884,-0.0744,-0.0703,-0.0862,-0.1014,-0.0862,-0.0511,-0.0181,0.0014,-0.042,-0.0338,-0.0195,-0.0091,-0.0088,-0.0124,-0.022,-0.036,-0.0461,-0.0527,-0.058,-0.0607,-0.061,-0.0569,-0.0497,-0.0439,-0.0448,-0.0497,-0.0503,-0.0464,-0.0417,-0.0385,-0.0374,-0.0371,-0.0365,-0.0349,-0.033,-0.0313,-0.031,-0.0335,-0.0401,-0.0536,-0.0709,-0.0843,-0.0959,-0.1055,-0.097,-0.0747,-0.0681,-0.0832,-0.1025,-0.0959,-0.0629,-0.0148,0.0225,0.0387,0.0374,-0.0277,-0.028,-0.0239,-0.0228,-0.0258,-0.0327,-0.0461,-0.0604,-0.0676,-0.0673,-0.064,-0.0613,-0.0566,-0.053,-0.0522,-0.0544,-0.0571,-0.0577,-0.0569,-0.0555,-0.0492,-0.0374,-0.0269,-0.0187,-0.0115,-0.0049,-0.0019,-0.0016,-0.0055,-0.017,-0.0327,-0.0494,-0.0651,-0.0813,-0.092,-0.0766,-0.0533,-0.05,-0.0654,-0.0775,-0.0676,-0.0415,-0.0014,0.0291,0.0431,0.0409,0.0242,-0.0154,-0.0179,-0.0187,-0.0233,-0.0319,-0.0428,-0.0541,-0.0626,-0.0673,-0.0687,-0.0659,-0.061,-0.0604,-0.0654,-0.0706,-0.07,-0.0662,-0.0618,-0.0588,-0.056,-0.0478,-0.0352,-0.0211,-0.0082,0.0038,0.0121,0.0132,0.0115,0.0063,-0.0055,-0.0181,-0.033,-0.0536,-0.0667,-0.0533,-0.0253,-0.0157,-0.0255,-0.0379,-0.0368,-0.0211,-0.006,0.0209,0.039,0.0461,0.0354,0.0184,-0.0176,-0.0176,-0.0124,-0.0074,-0.0104,-0.0192,-0.0297,-0.0404,-0.0492,-0.0541,-0.0552,-0.0571,-0.0643,-0.0728,-0.0755,-0.0725,-0.0659,-0.0593,-0.0538,-0.0497,-0.0423,-0.0305,-0.0162,-0.0025,0.0069,0.008,0.0047,0.003,-0.0025,-0.0085,-0.0058,-0.008,-0.0206,-0.0165,0.0091,0.022,-0.0049,-0.0228,-0.0217,-0.0118,-0.0008,0.0168,0.0324,0.0398,0.0434,0.0464,0.0371,-0.0222,-0.0151,-0.0038,0.0099,0.0143,0.0099,0.0005,-0.011,-0.0222,-0.0313,-0.0368,-0.0434,-0.0527,-0.0623,-0.0684,-0.0678,-0.0618,-0.053,-0.0448,-0.0385,-0.0308,-0.0203,-0.0093,-0.0005,0.0003,-0.0041,-0.0074,-0.0107,-0.0154,-0.0143,-0.0099,-0.0019,0.0201,0.0461,0.067,0.0582,0.0162,0.0014,0.0113,0.0258,0.0341,0.0459,0.05,0.0448,0.0412,0.0437,0.0379]},{"header":{"parameterUnit":"m.s-1","parameterCategory":2,"la1":30.8641,"la2":29.7642,"lo1":-88.4676,"lo2":-86.9344,"dy":0.0333,"dx":0.0333,"nx":47,"ny":34,"refTime":"2023-03-24T00:00:00:Z","depth":"12","parameterNumber":3,"parameterNumberName":"V-component_of_CURRENTS"},"data":[0,0,0,0,0,0,0,0,0,0,0,0,0,0,0,0,0,0,0,0,0,0,0,0,0,0,0,0,0,0,0,0,0,0,0,0,0,0,0,0,0,0,0,0,0,0,0,0,0,0,0,0,0,0,0,0,0,0,0,0,0,0,0,0,0,0,0,0,0,0,0,0,0,0,0,0,0,0,0,0,0,0,0,0,0,0,0,0,0,0,0,0,0,0,0,0,0,0,0,0,0,0,0,0,0,0,0,0,0,0,0,0,0,0,0,0,0,0,0,0,0,0,0,0,0,0,0,0,0,0,0,0,0,0,0,0,0,0,0,0,0,0,0,0,0,0,0,0,0,0,0,0,0,0,0,0,0,0,0,0,0,0,0,0,0,0,0,0,0,0,0,0,0,0,0,0,0,0,0,0,0,0,0,0,0,0,0,0,0,0,0,0,0,0,0,0,0,0,0,0,0,0,0,0,0,0,0,0,0,0,0,0,0,0,0,0,0,0,0,0,0,0,0,0,0,0,0,0,0,0,0,0,0,0,0,0,0,0,0,0,0,0,0,0,0,0,0,0,0,0,0,0,0,0,0,0,0,0,0,0,0,0,0,0,0,0,0,0,0,0,0,0,0,0,0,0,0,0,0,0,0,0,0,0,0,0,0,0,0,0,0,0,0,0,0,0,0,0,0,0,0,0,0,0,0,0,0,0,0,0,0,0,0,0,0,0,0,0,0,0,0,0,0,0,0,0,0,0,0,0,0,0,0,0,0,0,0,0,0,0,0,0,0,0,0,0,0,0,0,0,0,0,0,0,0,0,0,0,0,0,0,0,0,0,0,0,0,0,0,0,0,0,0,0,0,0,0,0,0,0,0,0,0,0,0,0,0,0,0,0,0,0,0,0,0,0,0,0,0,0,0,0,0,0,0,0,0,0,0,0,0,0,0,0,0,0,0,0,0,0,0,0,0,0,0,0,0,0,0,0,0,0,0,0,0,0,0,0,0,0,0,0,0,0,0,0,0,0,0,0,0,0,0,0,0,0,0,0,0,0,0,0,0,0,0,0,0,0,0,0,0,0,0,0,0,0,0,0,0,0,0,0,0,0,0,0,0,0,0,0,0,0,0,0,0,0,0,0,0,0,0,0,0,0,0,0,0,0,0,0,0,0,0,0,0,0,0,0,0,0,0,0,0,0,0,0,0,0,0,0,0,0,0,0,0,0,0,0,0,0,0,0,0,0,0,0,0,0,0,0,0,0,0,0,0,0,0,0,0,0,0,0,0,0,0,0,0,0,0,0,0,0,0,0,0,0,0,0,0,0,0,0,0,0,0,0,0,0,0,0,0,0,0,0,0,0,0,0,0,0,0,0,0,0,0,0,0,0,0,0,0,0,0,0,0,0,0,0,0,0,0,0,0,0,0,0,0,0,0,0,0,0,0,0,0,0,0,0,0,0,0,0,0,0,0,0,0,0,0,0,0,0,0,0,0,0,0,0,0,0,0,0,0,0,0,0,0,0,0,0,0,0,0,0,0,0,0,0,0,0,0,0,0,0,0,0,0,0,0,0,0,0,0,0,0,0,0,0,0,0,0,0,0,0,0,0,0,0,0,0,0,0,0,0,0,0,0,0,0,0,0,0,0,0,0,0,0,0,0,0,0,0,0,0,0,0,0,0,0,0,0,0,0,0,0,0,0,0,0,0,0,-0.0247,0,0,0,0,0,0,0,0,0,0,0,0,0,0,0,0,0,0,0,0,0,0,0,0,0,0,0,0,0,0,0,0,0,0,0,0,0,0,0,0,0,0.0047,0.006,0.0033,-0.0005,-0.0173,-0.0209,0,0,0,0,0,0,0,0,0,0,0,0,0,0,0,0,0,0,0,0,0,0,0,0,0,0,0,0,0,0,0,0,0,0,0,0,0,0,0.0165,0.0146,-0.0044,0.0014,0.0066,0.0005,-0.0091,-0.0214,-0.0209,0,0,0,0,0,0,0,0,0,0,0,0,0,0,0,0,0,0,0,0,0,0,0,0,0,0,0,0,0,0,0,0,0,0,0,0,0.0283,0.0236,0.0179,-0.0077,-0.0069,0.0016,0.0016,-0.0179,-0.0283,-0.0316,-0.022,0,0,0,0,0,0,0,0,0,0,0,0,0,0,0,0,0,0,0,0,0,0,0,0,0,0,0,0,0,0.0179,0.0151,0.0143,0.0041,-0.0019,0.0239,0.0305,0.0085,0.0244,0.0066,-0.0088,-0.0052,-0.0102,-0.0168,-0.0327,-0.031,-0.0264,-0.0157,0,0,0,0,0,0.0398,0.0582,0,0,0,0,0,0,0,0,0,0,0,0,0,0,0,0,0,0,0,0.031,0.0393,0.0338,0.022,0.0126,-0.0107,-0.0297,-0.0527,-0.0368,-0.0297,0.0143,0.0107,-0.0181,-0.0192,-0.0162,-0.0201,-0.0231,-0.0217,-0.0176,-0.0154,-0.0146,0.0417,0.0448,0.0365,0.0294,0.0266,0.0396,0.0615,0.0665,0.05,0.0338,0.0363,0,0.0316,0,0.0288,0.0266,0.0242,0.0244,0.0214,0.0201,0.0195,0.017,0.011,0.0052,0.0132,0.0231,0.0283,0.0033,-0.0027,-0.0014,-0.0036,-0.025,-0.0327,-0.0354,-0.0407,-0.0184,-0.0049,-0.0233,-0.0343,-0.0319,-0.0275,-0.017,-0.0154,-0.0115,-0.0121,-0.0126,-0.0102,0.0343,0.0428,0.0222,0.0162,0.0222,0.0157,0.0165,0.0104,0.0192,0.0244,0.0192,0.0206,0.0341,0.0371,0.0266,0.0209,0.0206,0.0181,0.0124,0.0082,0.0033,-0.0038,-0.0115,-0.0154,-0.0118,-0.022,-0.0305,-0.025,-0.0198,-0.0066,-0.0055,-0.0195,-0.0203,-0.0135,-0.0244,-0.0297,-0.0299,-0.0335,-0.0401,-0.0398,-0.0275,0.0019,0.0077,0.0074,0.0033,0.0041,0.0113,0.0074,0.0129,0.0093,0.0113,0.0247,0.0426,0.0423,0.0313,0.0374,0.0398,0.0341,0.0195,0.0201,0.0242,0.0198,0.0225,0.0195,0.0113,0.0036,-0.0041,-0.0148,-0.0247,-0.0299,-0.0319,-0.0332,-0.0319,-0.0264,-0.0121,0.0033,0.0151,0.0088,-0.0168,-0.0201,0.0008,-0.0102,-0.0365,-0.0374,-0.0371,-0.0407,-0.0305,-0.0008,0.0233,0.0154,0.0063,0.003,0.0047,0.0184,0.0192,0.0005,-0.006,0.0091,0.036,0.0574,0.0615,0.0607,0.0591,0.0533,0.0483,0.0382,0.0305,0.0341,0.0376,0.0302,0.0214,0.014,0.008,0.0019,-0.0036,-0.0091,-0.0132,-0.0146,-0.0126,-0.0044,0.0049,0.0137,0.0217,0.022,0.0077,-0.0038,0.003,0.0222,0.0126,-0.0187,-0.0297,-0.0253,-0.0181,0.0014,0.0225,0.0148,0.0014,-0.0003,0.0033,0.0148,0.0316,0.0231,0.0019,0.0011,0.0118,0.0324,0.0516,0.064,0.0703,0.0684,0.0613,0.0519,0.0467,0.0456,0.045,0.0423,0.0352,0.0321,0.031,0.0247,0.0192,0.0154,0.0124,0.0104,0.0091,0.0107,0.0165,0.0217,0.0266,0.031,0.0242,0.0082,0.0022,0.0135,0.036,0.033,0.0049,-0.0113,-0.0033,0.0077,0.0187,0.0228,0.0288,0.0275,0.0126,-0.008,-0.0214,-0.0222,0.0352,0.0299,0.019,0.0209,0.0338,0.0541,0.0736,0.0868,0.089,0.0761,0.0632,0.0552,0.0494,0.045,0.0426,0.0423,0.0481,0.0538,0.0437,0.0357,0.0291,0.0247,0.0222,0.0201,0.0198,0.0222,0.0264,0.0316,0.0341,0.0272,0.0135,0.0077,0.0198,0.0354,0.0291,0.0113,0.0063,0.0113,0.0201,0.0286,0.0428,0.033,-0.0052,-0.0475,-0.0794,-0.0923,-0.0838,0.0626,0.0591,0.0233,0.0222,0.0393,0.0582,0.0711,0.0849,0.0884,0.0832,0.0728,0.0645,0.0613,0.0574,0.0536,0.0552,0.0654,0.0681,0.0544,0.0453,0.0357,0.0308,0.028,0.0244,0.0209,0.0211,0.0272,0.036,0.0423,0.0385,0.0233,0.011,0.0181,0.0286,0.0206,0.011,0.0102,0.022,0.0321,0.0371,0.0143,-0.0327,-0.0744,-0.0934,-0.0813,-0.0508,-0.0074,0.0915,0.0678,0.0305,0.0294,0.0461,0.0533,0.0643,0.0761,0.0772,0.0755,0.0711,0.0711,0.0761,0.078,0.0764,0.0766,0.0799,0.0764,0.0637,0.0525,0.0396,0.0299,0.0242,0.0206,0.0176,0.0203,0.0308,0.0428,0.0538,0.0538,0.0363,0.0192,0.0258,0.0341,0.0231,0.0063,0.0132,0.0239,0.0242,-0.0019,-0.0409,-0.0651,-0.0544,-0.0195,0.028,0.0755,0.1184,0.1079,0.0755,0.0494,0.0475,0.0522,0.053,0.0604,0.0673,0.0689,0.0698,0.0692,0.0764,0.0884,0.0975,0.097,0.092,0.0884,0.0797,0.0678,0.056,0.0417,0.025,0.0132,0.0088,0.0107,0.022,0.0376,0.0475,0.0593,0.0607,0.0456,0.0357,0.0417,0.0316,0.0113,0.0102,0.0187,0.019,-0.0055,-0.0338,-0.0396,-0.0244,0.0014,0.0423,0.0865,0.1269,0.1577,0.1063,0.0816,0.0629,0.056,0.0483,0.0456,0.0489,0.0577,0.0662,0.07,0.0742,0.0835,0.0961,0.106,0.1049,0.0986,0.0895,0.0791,0.0692,0.058,0.0407,0.0201,0.0066,0.0044,0.0126,0.0302,0.0448,0.0489,0.0574,0.0574,0.0434,0.0387,0.0346,0.0157,0.0096,0.0165,0.0211,0.0005,-0.0313,-0.0439,-0.0439,-0.0335,-0.0071,0.025,0.0585,0.0876,0.1088,0.089,0.0744,0.0637,0.0492,0.0357,0.0332,0.0437,0.0591,0.0714,0.0755,0.0819,0.0904,0.1008,0.1088,0.1074,0.1016,0.0898,0.0769,0.0659,0.056,0.0385,0.0195,0.0102,0.0146,0.0286,0.0448,0.0519,0.0519,0.056,0.0533,0.0363,0.0198,0.0121,0.0052,-0.0019,-0.0113,-0.014,-0.0338,-0.0629,-0.0786,-0.0824,-0.0692,-0.0398,-0.0184,0.0027,0.0181,0.0244,0.0692,0.0728,0.0632,0.0412,0.0222,0.022,0.0423,0.0662,0.0744,0.0788,0.0849,0.0906,0.0983,0.1066,0.1093,0.1033,0.0884,0.0722,0.0604,0.0514,0.0379,0.0261,0.0244,0.0343,0.0492,0.058,0.0563,0.0541,0.0541,0.0486,0.0239,0.0003,-0.0069,-0.0233,-0.0536,-0.067,-0.0497,-0.0516,-0.084,-0.1099,-0.1085,-0.0915,-0.0786,-0.0769,-0.0772,-0.0753,-0.0794,0.0588,0.0766,0.0678,0.0445,0.022,0.0159,0.0376,0.0684,0.0772,0.0797,0.0851,0.0879,0.0906,0.0983,0.1038,0.0992,0.0851,0.07,0.0571,0.0492,0.0423,0.0387,0.0431,0.0533,0.0615,0.0607,0.0555,0.0533,0.0489,0.0335,0.0121,-0.0058,-0.0239,-0.0571,-0.0953,-0.1005,-0.0621,-0.05,-0.0805,-0.12,-0.1258,-0.1209,-0.1277,-0.1478,-0.1689,-0.1783,-0.1785]}],[{"header":{"parameterUnit":"m.s-1","parameterCategory":2,"la1":30.8641,"la2":29.7642,"lo1":-88.4676,"lo2":-86.9344,"dy":0.0333,"dx":0.0333,"nx":47,"ny":34,"refTime":"2023-03-24T00:00:00:Z","depth":"15","parameterNumber":2,"parameterNumberName":"U-component_of_CURRENTS"},"data":[0,0,0,0,0,0,0,0,0,0,0,0,0,0,0,0,0,0,0,0,0,0,0,0,0,0,0,0,0,0,0,0,0,0,0,0,0,0,0,0,0,0,0,0,0,0,0,0,0,0,0,0,0,0,0,0,0,0,0,0,0,0,0,0,0,0,0,0,0,0,0,0,0,0,0,0,0,0,0,0,0,0,0,0,0,0,0,0,0,0,0,0,0,0,0,0,0,0,0,0,0,0,0,0,0,0,0,0,0,0,0,0,0,0,0,0,0,0,0,0,0,0,0,0,0,0,0,0,0,0,0,0,0,0,0,0,0,0,0,0,0,0,0,0,0,0,0,0,0,0,0,0,0,0,0,0,0,0,0,0,0,0,0,0,0,0,0,0,0,0,0,0,0,0,0,0,0,0,0,0,0,0,0,0,0,0,0,0,0,0,0,0,0,0,0,0,0,0,0,0,0,0,0,0,0,0,0,0,0,0,0,0,0,0,0,0,0,0,0,0,0,0,0,0,0,0,0,0,0,0,0,0,0,0,0,0,0,0,0,0,0,0,0,0,0,0,0,0,0,0,0,0,0,0,0,0,0,0,0,0,0,0,0,0,0,0,0,0,0,0,0,0,0,0,0,0,0,0,0,0,0,0,0,0,0,0,0,0,0,0,0,0,0,0,0,0,0,0,0,0,0,0,0,0,0,0,0,0,0,0,0,0,0,0,0,0,0,0,0,0,0,0,0,0,0,0,0,0,0,0,0,0,0,0,0,0,0,0,0,0,0,0,0,0,0,0,0,0,0,0,0,0,0,0,0,0,0,0,0,0,0,0,0,0,0,0,0,0,0,0,0,0,0,0,0,0,0,0,0,0,0,0,0,0,0,0,0,0,0,0,0,0,0,0,0,0,0,0,0,0,0,0,0,0,0,0,0,0,0,0,0,0,0,0,0,0,0,0,0,0,0,0,0,0,0,0,0,0,0,0,0,0,0,0,0,0,0,0,0,0,0,0,0,0,0,0,0,0,0,0,0,0,0,0,0,0,0,0,0,0,0,0,0,0,0,0,0,0,0,0,0,0,0,0,0,0,0,0,0,0,0,0,0,0,0,0,0,0,0,0,0,0,0,0,0,0,0,0,0,0,0,0,0,0,0,0,0,0,0,0,0,0,0,0,0,0,0,0,0,0,0,0,0,0,0,0,0,0,0,0,0,0,0,0,0,0,0,0,0,0,0,0,0,0,0,0,0,0,0,0,0,0,0,0,0,0,0,0,0,0,0,0,0,0,0,0,0,0,0,0,0,0,0,0,0,0,0,0,0,0,0,0,0,0,0,0,0,0,0,0,0,0,0,0,0,0,0,0,0,0,0,0,0,0,0,0,0,0,0,0,0,0,0,0,0,0,0,0,0,0,0,0,0,0,0,0,0,0,0,0,0,0,0,0,0,0,0,0,0,0,0,0,0,0,0,0,0,0,0,0,0,0,0,0,0,0,0,0,0,0,0,0,0,0,0,0,0,0,0,0,0,0,0,0,0,0,0,0,0,0,0,0,0,0,0,0,0,0,0,0,0,0,0,0,0,0,0,0,0,0,0,0,0,0,0,0,0,0,0,0,0,0,0,0,0,0,0,0,0,0,0,0,0,0,0,0,0,0,0,0,0,0,0,0,0,0,0,0,0,0,0,0,0,0,0,0,0,0,0,0,0,-0.011,0,0,0,0,0,0,0,0,0,0,0,0,0,0,0,0,0,0,0,0,0,0,0,0,0,0,0,0,0,0,0,0,0,0,0,0,0,0,0,0,0,0,-0.0074,-0.0093,-0.014,-0.022,-0.025,0,0,0,0,0,0,0,0,0,0,0,0,0,0,0,0,0,0,0,0,0,0,0,0,0,0,0,0,0,0,0,0,0,0,0,0,0,0,0,0,0,0.0022,-0.0019,-0.0077,-0.0154,-0.0236,-0.0294,0,0,0,0,0,0,0,0,0,0,0,0,0,0,0,0,0,0,0,0,0,0,0,0,0,0,0,0,0,0,0,0,0,0,0,0,0,0,-0.0137,-0.0151,-0.0187,-0.0184,-0.0159,-0.0211,-0.0302,-0.0368,-0.039,0,0,0,0,0,0,0,0,0,0,0,0,0,0,0,0,0,0,0,0,0,0,0,0,0,0,0,0,0,0,0,0,0,0,0,-0.0077,-0.0016,-0.0179,-0.0407,-0.0407,-0.0324,-0.0272,-0.0299,-0.0382,-0.0461,-0.0467,-0.0461,0,0,0,0,0,0,0,0,0,0,0,0,0,0,0,0,0,0,0,0,0,0,0,0,0,0,0,0,0.0011,0.0008,-0.0014,0.0019,0.0203,0.0206,-0.0176,-0.0302,-0.0264,-0.0448,-0.0599,-0.0563,-0.0423,-0.0407,-0.0483,-0.0552,-0.0591,-0.0593,-0.0632,0,0,0,0,0,0,0.0016,-0.006,0,0,0,0,0,0,0,0,0,0,0,0,0,0,0,0,0,0,-0.0173,-0.0217,-0.0346,-0.0343,-0.0305,-0.0124,-0.0044,-0.022,-0.0404,-0.0417,-0.0475,-0.0673,-0.0673,-0.0596,-0.0481,-0.0494,-0.0577,-0.0643,-0.0709,-0.0775,-0.0906,0,0,-0.019,-0.0069,-0.0033,-0.0115,-0.0184,-0.0198,-0.0168,-0.0225,-0.0242,0,0,0,0,0,0,0,0,0,0,0,0,0,0.0104,-0.0055,-0.0277,-0.0442,-0.0335,-0.0319,-0.0346,-0.0489,-0.0667,-0.0684,-0.0566,-0.0569,-0.0744,-0.0755,-0.0623,-0.0536,-0.0503,-0.053,-0.0566,-0.0656,-0.0895,-0.1068,-0.1206,-0.0319,-0.0335,-0.0374,-0.0371,-0.0305,-0.028,-0.0275,-0.0244,-0.0209,-0.0168,-0.0201,-0.0286,-0.0288,-0.0203,-0.0118,-0.0066,-0.0022,0.0022,0.0074,0.011,0.0118,0.0115,0.011,0.0088,-0.0008,-0.0181,-0.0239,-0.0168,-0.0096,-0.0085,-0.0225,-0.0475,-0.0634,-0.0634,-0.0634,-0.0725,-0.0769,-0.0662,-0.0574,-0.0538,-0.0547,-0.0662,-0.0906,-0.1134,-0.1206,-0.1187,-0.1239,-0.0602,-0.0623,-0.064,-0.0651,-0.0728,-0.072,-0.0621,-0.0547,-0.0475,-0.0409,-0.0343,-0.0264,-0.0264,-0.0286,-0.025,-0.0198,-0.0137,-0.0082,-0.003,-0.0003,0.0008,-0.0014,-0.0088,-0.0192,-0.022,-0.0135,-0.0093,-0.0052,-0.0044,-0.0071,-0.0151,-0.0239,-0.0319,-0.0396,-0.0494,-0.0645,-0.0645,-0.0541,-0.0547,-0.0623,-0.0802,-0.0893,-0.1011,-0.1398,-0.1568,-0.1461,-0.1274,-0.1079,-0.0959,-0.075,-0.0665,-0.0725,-0.0769,-0.0772,-0.0728,-0.0667,-0.0604,-0.0547,-0.0483,-0.0423,-0.0379,-0.0354,-0.031,-0.0244,-0.0176,-0.0135,-0.0126,-0.0126,-0.0135,-0.0151,-0.0146,-0.0132,-0.0135,-0.0146,-0.0159,-0.0173,-0.0187,-0.0201,-0.0228,-0.0266,-0.0297,-0.0349,-0.0461,-0.0492,-0.0588,-0.0783,-0.0906,-0.1129,-0.1379,-0.1483,-0.1469,-0.1318,-0.1137,-0.1055,-0.0942,-0.0695,-0.0464,-0.0363,-0.0412,-0.0478,-0.0582,-0.0711,-0.0744,-0.0717,-0.0676,-0.0621,-0.0571,-0.053,-0.0483,-0.0426,-0.0335,-0.0239,-0.0187,-0.0184,-0.0179,-0.0148,-0.0137,-0.0154,-0.0209,-0.0294,-0.0374,-0.0387,-0.0335,-0.0266,-0.0228,-0.0225,-0.0233,-0.0283,-0.0396,-0.0544,-0.0695,-0.0805,-0.0937,-0.1187,-0.1332,-0.1387,-0.1445,-0.1379,-0.1173,-0.0978,-0.0851,-0.0799,-0.0516,-0.0299,-0.0115,-0.0069,-0.0146,-0.0286,-0.0407,-0.0519,-0.0643,-0.0725,-0.075,-0.0717,-0.0662,-0.0607,-0.0538,-0.0431,-0.0313,-0.022,-0.0159,-0.0159,-0.0209,-0.0264,-0.0341,-0.0442,-0.0533,-0.0577,-0.0558,-0.0464,-0.0352,-0.0269,-0.0266,-0.0297,-0.039,-0.058,-0.0755,-0.0884,-0.1099,-0.1203,-0.1176,-0.1173,-0.1217,-0.1178,-0.1025,-0.0794,-0.0615,-0.0536,-0.0827,-0.0588,-0.0313,-0.0069,-0.0022,-0.008,-0.0176,-0.0294,-0.0398,-0.0533,-0.0659,-0.0775,-0.0805,-0.0744,-0.067,-0.0582,-0.0478,-0.0387,-0.0341,-0.0343,-0.0346,-0.0327,-0.0363,-0.0461,-0.056,-0.0618,-0.0618,-0.0558,-0.0464,-0.0374,-0.033,-0.0338,-0.0401,-0.056,-0.0761,-0.0906,-0.1035,-0.1027,-0.0884,-0.0764,-0.0709,-0.0808,-0.0942,-0.0887,-0.0659,-0.0426,-0.0253,-0.0728,-0.0497,-0.0272,-0.0121,-0.0113,-0.0162,-0.025,-0.0382,-0.0492,-0.0566,-0.0626,-0.0656,-0.0681,-0.0667,-0.0623,-0.0577,-0.0536,-0.0505,-0.0486,-0.0456,-0.0434,-0.0412,-0.0393,-0.0415,-0.045,-0.0467,-0.0448,-0.0412,-0.036,-0.0324,-0.0357,-0.0464,-0.0637,-0.0799,-0.0873,-0.0909,-0.0879,-0.0673,-0.0544,-0.0656,-0.0904,-0.0989,-0.0777,-0.0459,-0.0118,0.0069,0.0069,-0.064,-0.0448,-0.0313,-0.0264,-0.0288,-0.0368,-0.0508,-0.0632,-0.0689,-0.0698,-0.0681,-0.0662,-0.0648,-0.0645,-0.0656,-0.0645,-0.0599,-0.0569,-0.0558,-0.0569,-0.0582,-0.0538,-0.0445,-0.0385,-0.0327,-0.0253,-0.0203,-0.0168,-0.0151,-0.0192,-0.0297,-0.0437,-0.0588,-0.0662,-0.0816,-0.0758,-0.0486,-0.0376,-0.0492,-0.0703,-0.0722,-0.0519,-0.0291,-0.0041,0.0124,0.0102,-0.0052,-0.0569,-0.0387,-0.0294,-0.0308,-0.0374,-0.0478,-0.0607,-0.0689,-0.0717,-0.0728,-0.0728,-0.0717,-0.0722,-0.0747,-0.0755,-0.072,-0.0667,-0.0632,-0.0615,-0.0621,-0.0626,-0.0569,-0.0456,-0.0327,-0.0198,-0.0085,-0.0036,-0.0016,-0.0011,-0.0063,-0.0165,-0.0299,-0.0459,-0.0632,-0.0626,-0.0357,-0.0148,-0.0165,-0.0338,-0.0417,-0.0338,-0.0203,-0.006,0.0115,0.0179,0.0124,0.0011,-0.0643,-0.045,-0.0327,-0.0253,-0.0299,-0.0398,-0.0492,-0.0552,-0.0593,-0.0634,-0.0673,-0.0703,-0.0739,-0.0775,-0.078,-0.0739,-0.0684,-0.0634,-0.0602,-0.0596,-0.0582,-0.053,-0.0412,-0.0253,-0.0129,-0.0085,-0.008,-0.0055,-0.0044,-0.006,-0.0055,-0.0096,-0.0239,-0.0346,-0.0192,0.0069,0.0052,-0.0096,-0.0154,-0.0173,-0.0129,-0.0041,0.0069,0.014,0.0228,0.028,0.0179,-0.081,-0.0558,-0.0327,-0.017,-0.0181,-0.0269,-0.031,-0.0335,-0.0401,-0.0456,-0.0492,-0.0538,-0.0602,-0.0673,-0.0711,-0.07,-0.0659,-0.0602,-0.053,-0.0486,-0.0445,-0.0376,-0.0277,-0.0173,-0.014,-0.0154,-0.0151,-0.0148,-0.0143,-0.0088,-0.0022,0.0008,0.0049,0.0176,0.0374,0.0428,0.0264,0.0102,0.0165,0.0206,0.0198,0.0244,0.0247,0.0165,0.0099,0.0132,0.0132]},{"header":{"parameterUnit":"m.s-1","parameterCategory":2,"la1":30.8641,"la2":29.7642,"lo1":-88.4676,"lo2":-86.9344,"dy":0.0333,"dx":0.0333,"nx":47,"ny":34,"refTime":"2023-03-24T00:00:00:Z","depth":"15","parameterNumber":3,"parameterNumberName":"V-component_of_CURRENTS"},"data":[0,0,0,0,0,0,0,0,0,0,0,0,0,0,0,0,0,0,0,0,0,0,0,0,0,0,0,0,0,0,0,0,0,0,0,0,0,0,0,0,0,0,0,0,0,0,0,0,0,0,0,0,0,0,0,0,0,0,0,0,0,0,0,0,0,0,0,0,0,0,0,0,0,0,0,0,0,0,0,0,0,0,0,0,0,0,0,0,0,0,0,0,0,0,0,0,0,0,0,0,0,0,0,0,0,0,0,0,0,0,0,0,0,0,0,0,0,0,0,0,0,0,0,0,0,0,0,0,0,0,0,0,0,0,0,0,0,0,0,0,0,0,0,0,0,0,0,0,0,0,0,0,0,0,0,0,0,0,0,0,0,0,0,0,0,0,0,0,0,0,0,0,0,0,0,0,0,0,0,0,0,0,0,0,0,0,0,0,0,0,0,0,0,0,0,0,0,0,0,0,0,0,0,0,0,0,0,0,0,0,0,0,0,0,0,0,0,0,0,0,0,0,0,0,0,0,0,0,0,0,0,0,0,0,0,0,0,0,0,0,0,0,0,0,0,0,0,0,0,0,0,0,0,0,0,0,0,0,0,0,0,0,0,0,0,0,0,0,0,0,0,0,0,0,0,0,0,0,0,0,0,0,0,0,0,0,0,0,0,0,0,0,0,0,0,0,0,0,0,0,0,0,0,0,0,0,0,0,0,0,0,0,0,0,0,0,0,0,0,0,0,0,0,0,0,0,0,0,0,0,0,0,0,0,0,0,0,0,0,0,0,0,0,0,0,0,0,0,0,0,0,0,0,0,0,0,0,0,0,0,0,0,0,0,0,0,0,0,0,0,0,0,0,0,0,0,0,0,0,0,0,0,0,0,0,0,0,0,0,0,0,0,0,0,0,0,0,0,0,0,0,0,0,0,0,0,0,0,0,0,0,0,0,0,0,0,0,0,0,0,0,0,0,0,0,0,0,0,0,0,0,0,0,0,0,0,0,0,0,0,0,0,0,0,0,0,0,0,0,0,0,0,0,0,0,0,0,0,0,0,0,0,0,0,0,0,0,0,0,0,0,0,0,0,0,0,0,0,0,0,0,0,0,0,0,0,0,0,0,0,0,0,0,0,0,0,0,0,0,0,0,0,0,0,0,0,0,0,0,0,0,0,0,0,0,0,0,0,0,0,0,0,0,0,0,0,0,0,0,0,0,0,0,0,0,0,0,0,0,0,0,0,0,0,0,0,0,0,0,0,0,0,0,0,0,0,0,0,0,0,0,0,0,0,0,0,0,0,0,0,0,0,0,0,0,0,0,0,0,0,0,0,0,0,0,0,0,0,0,0,0,0,0,0,0,0,0,0,0,0,0,0,0,0,0,0,0,0,0,0,0,0,0,0,0,0,0,0,0,0,0,0,0,0,0,0,0,0,0,0,0,0,0,0,0,0,0,0,0,0,0,0,0,0,0,0,0,0,0,0,0,0,0,0,0,0,0,0,0,0,0,0,0,0,0,0,0,0,0,0,0,0,0,0,0,0,0,0,0,0,0,0,0,0,0,0,0,0,0,0,0,0,0,0,0,0,0,0,0,0,0,0,0,0,0,0,0,0,0,0,0,0,0,0,0,0,0,0,0,0,0,0,0,0,0,0,0,0,0,0,0,0,0,0,0,0,0,0,0,0,0,0,0,0,0,0,0,0,0,0,0,-0.0162,0,0,0,0,0,0,0,0,0,0,0,0,0,0,0,0,0,0,0,0,0,0,0,0,0,0,0,0,0,0,0,0,0,0,0,0,0,0,0,0,0,0,0.0022,0.0016,0.0019,-0.008,-0.0099,0,0,0,0,0,0,0,0,0,0,0,0,0,0,0,0,0,0,0,0,0,0,0,0,0,0,0,0,0,0,0,0,0,0,0,0,0,0,0,0,0,-0.0033,0.0019,0.0011,-0.0038,-0.0121,-0.0082,0,0,0,0,0,0,0,0,0,0,0,0,0,0,0,0,0,0,0,0,0,0,0,0,0,0,0,0,0,0,0,0,0,0,0,0,0,0,0.0154,-0.006,-0.0253,-0.0066,0.0022,-0.0088,-0.0173,-0.0198,-0.0135,0,0,0,0,0,0,0,0,0,0,0,0,0,0,0,0,0,0,0,0,0,0,0,0,0,0,0,0,0,0,0,0,0,0,0,0.0294,0.0033,0.0113,0.0052,-0.0206,-0.0187,-0.0104,-0.0102,-0.0214,-0.0266,-0.0217,-0.0135,0,0,0,0,0,0,0,0,0,0,0,0,0,0,0,0,0,0,0,0,0,0,0,0,0,0,0,0,0.0222,0.014,-0.0022,-0.011,-0.0187,-0.0091,0.0121,0.0011,-0.0014,0.0044,-0.0159,-0.0305,-0.025,-0.0201,-0.0231,-0.0277,-0.0266,-0.0214,-0.0168,0,0,0,0,0,0,0.0508,0.058,0,0,0,0,0,0,0,0,0,0,0,0,0,0,0,0,0,0,0.0231,0.0162,0.008,-0.011,-0.0242,-0.0277,-0.0272,-0.0236,-0.0151,-0.0201,-0.008,-0.0151,-0.0335,-0.0456,-0.0335,-0.0253,-0.0299,-0.031,-0.0313,-0.0319,-0.0343,0,0,0.0121,0.0011,0.0206,0.0338,0.0374,0.0261,0.0209,0.0231,0.0176,0,0,0,0,0,0,0,0,0,0,0,0,0,0.0126,0.0201,0.0044,-0.0154,-0.0291,-0.0266,-0.0305,-0.0242,-0.011,-0.003,-0.011,-0.0181,-0.0244,-0.0376,-0.05,-0.0503,-0.0357,-0.025,-0.0269,-0.0368,-0.0483,-0.0409,-0.0255,0.0113,0.0047,-0.006,-0.0115,0.0209,0.0338,0.0266,0.0102,0.0211,0.0308,0.0258,0.0181,0.022,0.022,0.0192,0.0209,0.0187,0.0118,0.006,0.0014,-0.0025,-0.0077,-0.0113,-0.0093,-0.0099,-0.0195,-0.0327,-0.0352,-0.0214,-0.0129,-0.0203,-0.0253,-0.0206,-0.0099,-0.0255,-0.0442,-0.0489,-0.0489,-0.0536,-0.0472,-0.0341,-0.0179,-0.0044,-0.0126,-0.0244,-0.0187,-0.0074,0.008,-0.0093,-0.0225,-0.0104,0.0222,0.0286,0.0343,0.0374,0.0434,0.0442,0.0434,0.0341,0.0225,0.0225,0.0286,0.0244,0.0179,0.0102,0.0014,-0.0074,-0.0165,-0.0255,-0.0335,-0.0343,-0.0291,-0.025,-0.0211,-0.0099,-0.0016,-0.0069,-0.0239,-0.0258,-0.0198,-0.0077,-0.0236,-0.0522,-0.0541,-0.0478,-0.0478,-0.0338,-0.0093,-0.0132,-0.0242,-0.0269,-0.017,-0.003,0.0179,0.0236,-0.0135,-0.0195,0.0019,0.0231,0.033,0.0431,0.0503,0.0511,0.0475,0.0428,0.0371,0.0338,0.033,0.0332,0.0275,0.022,0.0162,0.0066,-0.0016,-0.0091,-0.0132,-0.0146,-0.0146,-0.0115,-0.0052,0.0011,0.0055,0.0055,-0.0038,-0.0244,-0.0275,-0.0173,0.0025,-0.0041,-0.0299,-0.0437,-0.0423,-0.0321,-0.0104,0.0019,0.0016,0.0,-0.0082,-0.0231,-0.0291,-0.025,0.0346,0.0074,-0.0008,0.008,0.0201,0.039,0.0574,0.07,0.0698,0.0602,0.0503,0.0431,0.0387,0.036,0.0352,0.0332,0.0354,0.0368,0.0244,0.0159,0.0077,0.0014,-0.0011,-0.0019,-0.0014,0.0014,0.0041,0.0052,0.0069,0.0,-0.0173,-0.0209,-0.0129,-0.0005,-0.0085,-0.0275,-0.0374,-0.0299,-0.0115,0.0088,0.0258,0.0118,-0.0211,-0.0569,-0.0857,-0.1011,-0.0992,0.056,0.0338,0.008,0.0096,0.0209,0.0407,0.0566,0.0728,0.0758,0.0695,0.0582,0.05,0.0475,0.045,0.0428,0.0417,0.0475,0.0508,0.0346,0.0247,0.0126,0.0058,0.0066,0.0038,0.0,0.0008,0.0049,0.0093,0.0143,0.011,-0.0052,-0.0179,-0.0146,-0.0088,-0.019,-0.0305,-0.0209,-0.0027,0.0192,0.0253,0.0027,-0.0439,-0.0843,-0.106,-0.106,-0.0838,-0.0445,0.081,0.0445,0.0159,0.0151,0.0258,0.0365,0.0483,0.0645,0.0623,0.0621,0.058,0.058,0.0607,0.0621,0.0599,0.0593,0.0602,0.0582,0.0412,0.0277,0.0137,0.0058,0.0047,0.0019,-0.0005,0.0033,0.0121,0.0209,0.0288,0.0264,0.0074,-0.0132,-0.0143,-0.0102,-0.0201,-0.014,-0.0003,0.0184,0.0135,-0.0154,-0.0541,-0.0819,-0.0799,-0.0497,-0.0055,0.0379,0.0832,0.0926,0.0527,0.0294,0.0255,0.0283,0.0302,0.0396,0.0514,0.0533,0.0555,0.0566,0.0643,0.0755,0.0816,0.0805,0.0758,0.0687,0.0588,0.0423,0.0275,0.0124,-0.0003,-0.0058,-0.008,-0.0038,0.0082,0.0222,0.0297,0.0363,0.0343,0.0143,-0.0019,0.0003,-0.0022,-0.0091,-0.0052,0.0074,0.0041,-0.0247,-0.0544,-0.0659,-0.0519,-0.022,0.0151,0.0585,0.0986,0.1288,0.0868,0.0571,0.0382,0.0313,0.0266,0.0261,0.0316,0.042,0.053,0.0563,0.0613,0.0703,0.0821,0.0898,0.0871,0.0797,0.0706,0.0549,0.0401,0.0269,0.0102,-0.0055,-0.0118,-0.0102,-0.0003,0.0173,0.0302,0.0324,0.0365,0.031,0.0115,0.003,0.0047,-0.0058,-0.0121,0.0,0.0047,-0.0187,-0.0505,-0.0673,-0.0643,-0.0519,-0.0313,0.0025,0.0368,0.0656,0.0857,0.0706,0.0508,0.0401,0.0288,0.0228,0.0214,0.0316,0.0472,0.0599,0.0623,0.0665,0.0742,0.084,0.089,0.0851,0.0786,0.0676,0.05,0.0368,0.0272,0.0107,-0.0036,-0.0074,0.0003,0.0143,0.0291,0.0354,0.0352,0.0357,0.0258,0.0038,-0.0129,-0.0184,-0.0206,-0.0209,-0.0261,-0.0332,-0.0569,-0.084,-0.0986,-0.1008,-0.0898,-0.0648,-0.0385,-0.0165,-0.0011,0.0071,0.0566,0.0483,0.0368,0.0209,0.0121,0.0157,0.0332,0.0558,0.0648,0.0667,0.0698,0.0742,0.0819,0.0873,0.0843,0.0791,0.0648,0.0472,0.0343,0.0261,0.0135,0.0052,0.0071,0.0179,0.031,0.0385,0.0379,0.0379,0.0343,0.0239,-0.0033,-0.0338,-0.0437,-0.0475,-0.0689,-0.0843,-0.0739,-0.0802,-0.1085,-0.1285,-0.131,-0.1184,-0.0994,-0.0945,-0.0898,-0.0868,-0.0876,0.0599,0.0547,0.0385,0.0176,0.0036,0.0085,0.0313,0.061,0.0676,0.0681,0.0722,0.0733,0.0772,0.0827,0.0849,0.0791,0.0643,0.0483,0.0343,0.0277,0.0206,0.019,0.0255,0.0343,0.0417,0.042,0.0387,0.0382,0.031,0.0135,-0.0107,-0.0371,-0.0571,-0.0827,-0.114,-0.1189,-0.0824,-0.0709,-0.109,-0.1431,-0.148,-0.1437,-0.1458,-0.1593,-0.1714,-0.1777,-0.1774]}],[{"header":{"parameterUnit":"m.s-1","parameterCategory":2,"la1":30.8641,"la2":29.7642,"lo1":-88.4676,"lo2":-86.9344,"dy":0.0333,"dx":0.0333,"nx":47,"ny":34,"refTime":"2023-03-24T00:00:00:Z","depth":"20","parameterNumber":2,"parameterNumberName":"U-component_of_CURRENTS"},"data":[0,0,0,0,0,0,0,0,0,0,0,0,0,0,0,0,0,0,0,0,0,0,0,0,0,0,0,0,0,0,0,0,0,0,0,0,0,0,0,0,0,0,0,0,0,0,0,0,0,0,0,0,0,0,0,0,0,0,0,0,0,0,0,0,0,0,0,0,0,0,0,0,0,0,0,0,0,0,0,0,0,0,0,0,0,0,0,0,0,0,0,0,0,0,0,0,0,0,0,0,0,0,0,0,0,0,0,0,0,0,0,0,0,0,0,0,0,0,0,0,0,0,0,0,0,0,0,0,0,0,0,0,0,0,0,0,0,0,0,0,0,0,0,0,0,0,0,0,0,0,0,0,0,0,0,0,0,0,0,0,0,0,0,0,0,0,0,0,0,0,0,0,0,0,0,0,0,0,0,0,0,0,0,0,0,0,0,0,0,0,0,0,0,0,0,0,0,0,0,0,0,0,0,0,0,0,0,0,0,0,0,0,0,0,0,0,0,0,0,0,0,0,0,0,0,0,0,0,0,0,0,0,0,0,0,0,0,0,0,0,0,0,0,0,0,0,0,0,0,0,0,0,0,0,0,0,0,0,0,0,0,0,0,0,0,0,0,0,0,0,0,0,0,0,0,0,0,0,0,0,0,0,0,0,0,0,0,0,0,0,0,0,0,0,0,0,0,0,0,0,0,0,0,0,0,0,0,0,0,0,0,0,0,0,0,0,0,0,0,0,0,0,0,0,0,0,0,0,0,0,0,0,0,0,0,0,0,0,0,0,0,0,0,0,0,0,0,0,0,0,0,0,0,0,0,0,0,0,0,0,0,0,0,0,0,0,0,0,0,0,0,0,0,0,0,0,0,0,0,0,0,0,0,0,0,0,0,0,0,0,0,0,0,0,0,0,0,0,0,0,0,0,0,0,0,0,0,0,0,0,0,0,0,0,0,0,0,0,0,0,0,0,0,0,0,0,0,0,0,0,0,0,0,0,0,0,0,0,0,0,0,0,0,0,0,0,0,0,0,0,0,0,0,0,0,0,0,0,0,0,0,0,0,0,0,0,0,0,0,0,0,0,0,0,0,0,0,0,0,0,0,0,0,0,0,0,0,0,0,0,0,0,0,0,0,0,0,0,0,0,0,0,0,0,0,0,0,0,0,0,0,0,0,0,0,0,0,0,0,0,0,0,0,0,0,0,0,0,0,0,0,0,0,0,0,0,0,0,0,0,0,0,0,0,0,0,0,0,0,0,0,0,0,0,0,0,0,0,0,0,0,0,0,0,0,0,0,0,0,0,0,0,0,0,0,0,0,0,0,0,0,0,0,0,0,0,0,0,0,0,0,0,0,0,0,0,0,0,0,0,0,0,0,0,0,0,0,0,0,0,0,0,0,0,0,0,0,0,0,0,0,0,0,0,0,0,0,0,0,0,0,0,0,0,0,0,0,0,0,0,0,0,0,0,0,0,0,0,0,0,0,0,0,0,0,0,0,0,0,0,0,0,0,0,0,0,0,0,0,0,0,0,0,0,0,0,0,0,0,0,0,0,0,0,0,0,0,0,0,0,0,0,0,0,0,0,0,0,0,0,0,0,0,0,0,0,0,0,0,0,0,0,0,0,0,0,0,0,0,0,0,0,0,0,0,0,0,0,0,0,0,0,0,0,0,0,0,0,0,0,0,0,0,0,0,0,0,0,0,0,0,0,0,0,0,0,0,0,0,0,0,0,0,0,0,0,0,0,0,0,0,0,0,0,0,0,0,0,0,0,0,0,0,0,0,0,0,0,0,0,0,0,0,0,0,0,0,-0.0176,-0.0203,0,0,0,0,0,0,0,0,0,0,0,0,0,0,0,0,0,0,0,0,0,0,0,0,0,0,0,0,0,0,0,0,0,0,0,0,0,0,0,0,0,0,0,0,-0.0093,-0.0159,-0.0211,0,0,0,0,0,0,0,0,0,0,0,0,0,0,0,0,0,0,0,0,0,0,0,0,0,0,0,0,0,0,0,0,0,0,0,0,0,0,0,0,0,-0.0082,-0.008,-0.0115,-0.0179,-0.0247,-0.0291,0,0,0,0,0,0,0,0,0,0,0,0,0,0,0,0,0,0,0,0,0,0,0,0,0,0,0,0,0,0,0,0,0,0,0,0,0,0,-0.0244,-0.0176,-0.0124,-0.0121,-0.0173,-0.0239,-0.0308,-0.0346,-0.0371,0,0,0,0,0,0,0,0,0,0,0,0,0,0,0,0,0,0,0,0,0,0,0,0,0,0,0,0,0,0,0,0,0,0,0,0,0,-0.0308,-0.0368,-0.0365,-0.0272,-0.0247,-0.0327,-0.0382,-0.0431,-0.0461,-0.0486,0,0,0,0,0,0,0,0,0,0,0,0,0,0,0,0,0,0,0,0,0,0,0,0,0,0,0,0,0,-0.0203,-0.0115,-0.0085,-0.0099,-0.0157,-0.025,-0.0264,-0.0297,-0.0401,-0.0472,-0.045,-0.0382,-0.0376,-0.0417,-0.0428,-0.0453,-0.0527,-0.0643,0,0,0,0,0,0,0,0,0,0,0,0,0,0,0,0,0,0,0,0,0,0,0,0,0,0,0,0,-0.025,-0.0228,-0.0214,-0.0288,-0.033,-0.0297,-0.0313,-0.0363,-0.0417,-0.0519,-0.056,-0.0472,-0.0431,-0.0434,-0.0467,-0.0569,-0.0813,-0.1118,-0.1398,0,0,0,0,0,0,0,0,0,0,0,0,0,0,0,0,0,0,0,0,0,0,0,0,0,0,-0.0176,-0.0209,-0.0244,-0.0247,-0.0244,-0.0379,-0.0527,-0.0508,-0.045,-0.0461,-0.053,-0.0591,-0.0547,-0.0475,-0.0527,-0.0632,-0.0816,-0.1151,-0.1458,-0.1511,-0.1505,0,0,0,0,-0.0407,-0.0483,-0.0448,0,0,0,0,0,0,0,0,0,0,0,0,0,0,0,0,0,-0.0146,-0.0181,-0.0233,-0.0266,-0.0264,-0.0244,-0.0327,-0.0467,-0.0563,-0.056,-0.0527,-0.0547,-0.0591,-0.0618,-0.0623,-0.0684,-0.0956,-0.1247,-0.131,-0.128,-0.1511,-0.1579,-0.1464,-0.0341,-0.0354,-0.0343,-0.039,-0.0497,-0.053,-0.0527,-0.0525,-0.0492,-0.0453,-0.0428,-0.0398,0,0,0,0,0,-0.0126,-0.0077,-0.0074,-0.0099,-0.0118,-0.0129,-0.0187,-0.0297,-0.0371,-0.0352,-0.0275,-0.0272,-0.0324,-0.0426,-0.0527,-0.058,-0.0577,-0.056,-0.0588,-0.0621,-0.0758,-0.0939,-0.1107,-0.0961,-0.1211,-0.1711,-0.192,-0.1906,-0.1763,-0.1733,-0.0651,-0.0802,-0.0758,-0.0684,-0.0698,-0.0709,-0.07,-0.0662,-0.0604,-0.0549,-0.0508,-0.0478,-0.0461,-0.0439,-0.0404,-0.0349,-0.0288,-0.0233,-0.0214,-0.025,-0.0291,-0.0338,-0.0385,-0.0396,-0.0363,-0.0327,-0.0349,-0.0396,-0.0431,-0.0467,-0.0519,-0.0599,-0.0665,-0.0629,-0.0596,-0.0613,-0.0742,-0.1104,-0.1016,-0.1055,-0.153,-0.1865,-0.2071,-0.2082,-0.198,-0.184,-0.1667,-0.0832,-0.0895,-0.0703,-0.0522,-0.0525,-0.0634,-0.0733,-0.0788,-0.0799,-0.0733,-0.0645,-0.0604,-0.058,-0.0547,-0.0508,-0.0459,-0.0426,-0.0426,-0.0412,-0.0401,-0.0398,-0.0404,-0.0417,-0.0404,-0.0442,-0.0516,-0.0558,-0.0544,-0.0525,-0.053,-0.0522,-0.0549,-0.0613,-0.0626,-0.0593,-0.0761,-0.1206,-0.1044,-0.1285,-0.1527,-0.1714,-0.1868,-0.1824,-0.1741,-0.1524,-0.1252,-0.1063,-0.0865,-0.0819,-0.0522,-0.0407,-0.0486,-0.0733,-0.0882,-0.0797,-0.0637,-0.0626,-0.0709,-0.0747,-0.0709,-0.0637,-0.0571,-0.0525,-0.05,-0.0489,-0.0448,-0.0431,-0.0522,-0.07,-0.075,-0.0662,-0.0689,-0.0742,-0.0733,-0.0681,-0.0596,-0.0563,-0.0566,-0.0555,-0.056,-0.0596,-0.0865,-0.1241,-0.1151,-0.1266,-0.1263,-0.1294,-0.1228,-0.1148,-0.1173,-0.1063,-0.0884,-0.0728,-0.0623,-0.0838,-0.0744,-0.0489,-0.0415,-0.0519,-0.0684,-0.0725,-0.0681,-0.0637,-0.0662,-0.0706,-0.0739,-0.0753,-0.0733,-0.0692,-0.0654,-0.0634,-0.0629,-0.0643,-0.0714,-0.0808,-0.078,-0.0698,-0.07,-0.0736,-0.0722,-0.0665,-0.0593,-0.0541,-0.0536,-0.0582,-0.0637,-0.0728,-0.0948,-0.1192,-0.1148,-0.1068,-0.0959,-0.0799,-0.0722,-0.092,-0.1046,-0.0981,-0.0772,-0.0569,-0.0445,-0.0453,-0.0904,-0.0871,-0.0678,-0.0591,-0.061,-0.0673,-0.0742,-0.0769,-0.0775,-0.0775,-0.0766,-0.0744,-0.0736,-0.0742,-0.0744,-0.0753,-0.0766,-0.0813,-0.0857,-0.0851,-0.0857,-0.0882,-0.0906,-0.0871,-0.0791,-0.067,-0.0558,-0.0461,-0.0387,-0.0417,-0.0549,-0.0706,-0.0871,-0.1033,-0.0992,-0.0956,-0.0772,-0.0585,-0.0582,-0.0772,-0.0904,-0.0824,-0.0662,-0.0516,-0.0417,-0.0448,-0.0569,-0.0986,-0.0928,-0.0766,-0.0739,-0.078,-0.0802,-0.0846,-0.086,-0.0832,-0.0824,-0.0805,-0.0791,-0.0797,-0.0802,-0.0813,-0.0843,-0.0876,-0.0893,-0.0915,-0.0931,-0.0964,-0.1038,-0.1044,-0.0939,-0.0783,-0.0585,-0.0417,-0.0288,-0.0214,-0.0247,-0.0415,-0.0613,-0.0794,-0.0898,-0.1022,-0.0862,-0.0544,-0.0396,-0.0527,-0.0692,-0.0687,-0.058,-0.0475,-0.0376,-0.0324,-0.0371,-0.0519,-0.1035,-0.1022,-0.0917,-0.0901,-0.0915,-0.0928,-0.0923,-0.0873,-0.0802,-0.0764,-0.0775,-0.0802,-0.0827,-0.0829,-0.0827,-0.0843,-0.0873,-0.0904,-0.0937,-0.0978,-0.1046,-0.1082,-0.1025,-0.0876,-0.0676,-0.05,-0.0374,-0.0266,-0.0184,-0.0209,-0.0324,-0.0475,-0.064,-0.0843,-0.089,-0.061,-0.0209,-0.0099,-0.0258,-0.0398,-0.0439,-0.0412,-0.0398,-0.0404,-0.0352,-0.0324,-0.0431,-0.1005,-0.114,-0.1071,-0.097,-0.0931,-0.0945,-0.0917,-0.0802,-0.0703,-0.0634,-0.0623,-0.0681,-0.0764,-0.0824,-0.0854,-0.0873,-0.0893,-0.0893,-0.0923,-0.0975,-0.0989,-0.0959,-0.0854,-0.0698,-0.0555,-0.0464,-0.0374,-0.0269,-0.019,-0.0165,-0.0209,-0.0294,-0.0442,-0.0508,-0.0376,-0.0181,-0.003,0.0107,0.0129,-0.0008,-0.0129,-0.0187,-0.0291,-0.0464,-0.0569,-0.0533,-0.0475]},{"header":{"parameterUnit":"m.s-1","parameterCategory":2,"la1":30.8641,"la2":29.7642,"lo1":-88.4676,"lo2":-86.9344,"dy":0.0333,"dx":0.0333,"nx":47,"ny":34,"refTime":"2023-03-24T00:00:00:Z","depth":"20","parameterNumber":3,"parameterNumberName":"V-component_of_CURRENTS"},"data":[0,0,0,0,0,0,0,0,0,0,0,0,0,0,0,0,0,0,0,0,0,0,0,0,0,0,0,0,0,0,0,0,0,0,0,0,0,0,0,0,0,0,0,0,0,0,0,0,0,0,0,0,0,0,0,0,0,0,0,0,0,0,0,0,0,0,0,0,0,0,0,0,0,0,0,0,0,0,0,0,0,0,0,0,0,0,0,0,0,0,0,0,0,0,0,0,0,0,0,0,0,0,0,0,0,0,0,0,0,0,0,0,0,0,0,0,0,0,0,0,0,0,0,0,0,0,0,0,0,0,0,0,0,0,0,0,0,0,0,0,0,0,0,0,0,0,0,0,0,0,0,0,0,0,0,0,0,0,0,0,0,0,0,0,0,0,0,0,0,0,0,0,0,0,0,0,0,0,0,0,0,0,0,0,0,0,0,0,0,0,0,0,0,0,0,0,0,0,0,0,0,0,0,0,0,0,0,0,0,0,0,0,0,0,0,0,0,0,0,0,0,0,0,0,0,0,0,0,0,0,0,0,0,0,0,0,0,0,0,0,0,0,0,0,0,0,0,0,0,0,0,0,0,0,0,0,0,0,0,0,0,0,0,0,0,0,0,0,0,0,0,0,0,0,0,0,0,0,0,0,0,0,0,0,0,0,0,0,0,0,0,0,0,0,0,0,0,0,0,0,0,0,0,0,0,0,0,0,0,0,0,0,0,0,0,0,0,0,0,0,0,0,0,0,0,0,0,0,0,0,0,0,0,0,0,0,0,0,0,0,0,0,0,0,0,0,0,0,0,0,0,0,0,0,0,0,0,0,0,0,0,0,0,0,0,0,0,0,0,0,0,0,0,0,0,0,0,0,0,0,0,0,0,0,0,0,0,0,0,0,0,0,0,0,0,0,0,0,0,0,0,0,0,0,0,0,0,0,0,0,0,0,0,0,0,0,0,0,0,0,0,0,0,0,0,0,0,0,0,0,0,0,0,0,0,0,0,0,0,0,0,0,0,0,0,0,0,0,0,0,0,0,0,0,0,0,0,0,0,0,0,0,0,0,0,0,0,0,0,0,0,0,0,0,0,0,0,0,0,0,0,0,0,0,0,0,0,0,0,0,0,0,0,0,0,0,0,0,0,0,0,0,0,0,0,0,0,0,0,0,0,0,0,0,0,0,0,0,0,0,0,0,0,0,0,0,0,0,0,0,0,0,0,0,0,0,0,0,0,0,0,0,0,0,0,0,0,0,0,0,0,0,0,0,0,0,0,0,0,0,0,0,0,0,0,0,0,0,0,0,0,0,0,0,0,0,0,0,0,0,0,0,0,0,0,0,0,0,0,0,0,0,0,0,0,0,0,0,0,0,0,0,0,0,0,0,0,0,0,0,0,0,0,0,0,0,0,0,0,0,0,0,0,0,0,0,0,0,0,0,0,0,0,0,0,0,0,0,0,0,0,0,0,0,0,0,0,0,0,0,0,0,0,0,0,0,0,0,0,0,0,0,0,0,0,0,0,0,0,0,0,0,0,0,0,0,0,0,0,0,0,0,0,0,0,0,0,0,0,0,0,0,0,0,0,0,0,0,0,0,0,0,0,0,0,0,0,0,0,0,0,0,0,0,0,0,0,0,0,0,0,0,0,0,0,0,0,0,0,0,0,0,0,0,0,0,0,0,0,0,0,0,0,0,0,0,0,0,0,0,0,0,0,0,0,0,0,0,0,0,0,0,0,0,0,0,0,0,0,0,0,0,0,0,0,0,0,0,0,0,0,0,0,0,0,0,0,0,0,0,0,0,0,0,0,0,0,0.0,-0.0036,0,0,0,0,0,0,0,0,0,0,0,0,0,0,0,0,0,0,0,0,0,0,0,0,0,0,0,0,0,0,0,0,0,0,0,0,0,0,0,0,0,0,0,0,0.0047,0.0019,0.0044,0,0,0,0,0,0,0,0,0,0,0,0,0,0,0,0,0,0,0,0,0,0,0,0,0,0,0,0,0,0,0,0,0,0,0,0,0,0,0,0,0,-0.0104,0.0033,0.0041,0.0003,-0.0025,-0.0014,0,0,0,0,0,0,0,0,0,0,0,0,0,0,0,0,0,0,0,0,0,0,0,0,0,0,0,0,0,0,0,0,0,0,0,0,0,0,0.0036,-0.0239,-0.0261,-0.0082,0.0022,-0.0055,-0.0121,-0.0115,-0.0088,0,0,0,0,0,0,0,0,0,0,0,0,0,0,0,0,0,0,0,0,0,0,0,0,0,0,0,0,0,0,0,0,0,0,0,0,0,0.0019,-0.0148,-0.031,-0.0266,-0.0096,-0.011,-0.0203,-0.0242,-0.0206,-0.014,0,0,0,0,0,0,0,0,0,0,0,0,0,0,0,0,0,0,0,0,0,0,0,0,0,0,0,0,0,-0.0132,-0.0217,0.003,0.0165,0.017,0.0041,-0.0154,-0.0121,-0.0154,-0.0308,-0.0407,-0.0297,-0.0157,-0.0233,-0.0288,-0.0313,-0.0291,-0.0302,0,0,0,0,0,0,0,0,0,0,0,0,0,0,0,0,0,0,0,0,0,0,0,0,0,0,0,0,-0.019,-0.0299,-0.019,0.0157,0.0195,0.008,-0.0058,-0.0173,-0.0228,-0.033,-0.0453,-0.0456,-0.0269,-0.022,-0.0385,-0.0552,-0.0673,-0.0698,-0.072,0,0,0,0,0,0,0,0,0,0,0,0,0,0,0,0,0,0,0,0,0,0,0,0,0,0,-0.0096,-0.0222,-0.0269,-0.0269,-0.0126,0.0038,0.0019,-0.0093,-0.0225,-0.0299,-0.0352,-0.0459,-0.0541,-0.0426,-0.0393,-0.0481,-0.0591,-0.0747,-0.0843,-0.0788,-0.0571,0,0,0,0,0.0124,0.014,0.0179,0,0,0,0,0,0,0,0,0,0,0,0,0,0,0,0,0,-0.0099,-0.0162,-0.0253,-0.0255,-0.0214,-0.0214,-0.0148,-0.0085,-0.0135,-0.0272,-0.0428,-0.0486,-0.0456,-0.0525,-0.0607,-0.0615,-0.0651,-0.075,-0.0711,-0.075,-0.0816,-0.0634,-0.0407,0.0091,-0.0063,-0.0157,-0.0052,0.0041,0.0055,0.0173,0.0266,0.0324,0.0338,0.0341,0.031,0,0,0,0,0,0.0069,-0.0036,-0.0102,-0.0118,-0.0143,-0.017,-0.0209,-0.0255,-0.0258,-0.0228,-0.0198,-0.0187,-0.0231,-0.0214,-0.0176,-0.0195,-0.0288,-0.0423,-0.0558,-0.0558,-0.0656,-0.0786,-0.0838,-0.0714,-0.0761,-0.081,-0.0656,-0.0563,-0.0522,-0.0398,0.0148,-0.0132,-0.0299,-0.0157,-0.0011,0.0019,0.0104,0.0206,0.0299,0.0321,0.0332,0.0313,0.0288,0.028,0.0275,0.0244,0.0151,0.0008,-0.0093,-0.0168,-0.0211,-0.0242,-0.0253,-0.0247,-0.0236,-0.022,-0.017,-0.0154,-0.0181,-0.0272,-0.0283,-0.0247,-0.0236,-0.0316,-0.0483,-0.0656,-0.0717,-0.0887,-0.0928,-0.072,-0.0426,-0.0475,-0.061,-0.0838,-0.1005,-0.1035,-0.0961,0.0291,0.0113,-0.0154,-0.0088,-0.0008,0.0104,0.0261,0.0371,0.0398,0.042,0.0354,0.0343,0.0346,0.0338,0.0321,0.0275,0.019,0.0069,-0.0077,-0.019,-0.025,-0.0272,-0.0258,-0.0269,-0.0269,-0.0211,-0.0146,-0.0099,-0.0102,-0.0209,-0.0286,-0.0299,-0.0341,-0.0467,-0.0676,-0.0824,-0.0942,-0.0851,-0.0547,-0.0305,-0.039,-0.0706,-0.1055,-0.1209,-0.1195,-0.1079,-0.078,0.0417,0.0214,-0.0165,-0.014,-0.0146,0.003,0.0217,0.0335,0.0376,0.0439,0.0409,0.0407,0.0404,0.0393,0.0368,0.0335,0.0253,0.014,0.0,-0.0154,-0.0291,-0.0352,-0.028,-0.0236,-0.0222,-0.0132,-0.0016,0.0044,0.0049,-0.0071,-0.0299,-0.0417,-0.0563,-0.0766,-0.0937,-0.0978,-0.0747,-0.0396,-0.033,-0.0533,-0.0879,-0.1107,-0.1071,-0.0882,-0.0571,-0.017,0.0244,0.0478,0.0157,-0.0181,-0.0228,-0.0214,-0.0049,0.0093,0.0225,0.028,0.0354,0.0374,0.0445,0.0508,0.0511,0.0472,0.0398,0.0291,0.0146,-0.0033,-0.0209,-0.0313,-0.0335,-0.0299,-0.0275,-0.0173,-0.0014,0.0088,0.0132,0.0146,0.0011,-0.0305,-0.0577,-0.0772,-0.092,-0.095,-0.0673,-0.0379,-0.0407,-0.0665,-0.0928,-0.0953,-0.0857,-0.0665,-0.0324,0.0093,0.0492,0.0769,0.0415,0.0115,-0.0063,-0.0135,-0.0115,-0.0025,0.0063,0.0214,0.0321,0.0327,0.0387,0.047,0.0569,0.0607,0.0544,0.0434,0.0264,0.0118,-0.0008,-0.0137,-0.0269,-0.0352,-0.0335,-0.0239,-0.0071,0.0085,0.0146,0.0129,0.0143,-0.0036,-0.0409,-0.0673,-0.0744,-0.0794,-0.075,-0.0538,-0.0456,-0.0648,-0.0904,-0.0975,-0.0981,-0.0876,-0.0662,-0.0376,-0.0016,0.0286,0.0478,0.0264,0.0066,0.0003,-0.006,-0.0049,0.0033,0.011,0.0288,0.0401,0.0401,0.042,0.0492,0.0569,0.0599,0.0544,0.0387,0.022,0.0113,0.0019,-0.0093,-0.0242,-0.0305,-0.0236,-0.0104,0.0052,0.0129,0.0118,0.0129,0.0107,-0.011,-0.0503,-0.0736,-0.0788,-0.084,-0.0777,-0.0692,-0.0709,-0.0871,-0.1082,-0.1209,-0.1236,-0.114,-0.0953,-0.0703,-0.0431,-0.0222,-0.0093,0.0176,0.0025,-0.0047,-0.0096,-0.0041,0.008,0.0228,0.0398,0.0467,0.0481,0.0489,0.0527,0.0577,0.0591,0.0525,0.0385,0.0258,0.0143,0.0036,-0.0052,-0.0165,-0.0179,-0.0088,0.0044,0.0129,0.0126,0.011,0.0151,0.0093,-0.0096,-0.0453,-0.0827,-0.0975,-0.0997,-0.1016,-0.1063,-0.1025,-0.1079,-0.1277,-0.1447,-0.1489,-0.1401,-0.1277,-0.1137,-0.0975,-0.0851,-0.0783,0.0192,0.0074,-0.0066,-0.0146,-0.0118,0.0091,0.0286,0.0461,0.0478,0.0497,0.0527,0.0538,0.0591,0.0626,0.0599,0.0494,0.039,0.0236,0.0099,0.0016,-0.006,-0.0025,0.0066,0.0124,0.0129,0.0118,0.017,0.0181,0.0077,-0.0121,-0.0415,-0.0777,-0.1055,-0.1209,-0.134,-0.1327,-0.109,-0.1071,-0.1354,-0.1612,-0.1659,-0.164,-0.1626,-0.1588,-0.1535,-0.1458,-0.1395]}],[{"header":{"parameterUnit":"m.s-1","parameterCategory":2,"la1":30.8641,"la2":29.7642,"lo1":-88.4676,"lo2":-86.9344,"dy":0.0333,"dx":0.0333,"nx":47,"ny":34,"refTime":"2023-03-24T00:00:00:Z","depth":"25","parameterNumber":2,"parameterNumberName":"U-component_of_CURRENTS"},"data":[0,0,0,0,0,0,0,0,0,0,0,0,0,0,0,0,0,0,0,0,0,0,0,0,0,0,0,0,0,0,0,0,0,0,0,0,0,0,0,0,0,0,0,0,0,0,0,0,0,0,0,0,0,0,0,0,0,0,0,0,0,0,0,0,0,0,0,0,0,0,0,0,0,0,0,0,0,0,0,0,0,0,0,0,0,0,0,0,0,0,0,0,0,0,0,0,0,0,0,0,0,0,0,0,0,0,0,0,0,0,0,0,0,0,0,0,0,0,0,0,0,0,0,0,0,0,0,0,0,0,0,0,0,0,0,0,0,0,0,0,0,0,0,0,0,0,0,0,0,0,0,0,0,0,0,0,0,0,0,0,0,0,0,0,0,0,0,0,0,0,0,0,0,0,0,0,0,0,0,0,0,0,0,0,0,0,0,0,0,0,0,0,0,0,0,0,0,0,0,0,0,0,0,0,0,0,0,0,0,0,0,0,0,0,0,0,0,0,0,0,0,0,0,0,0,0,0,0,0,0,0,0,0,0,0,0,0,0,0,0,0,0,0,0,0,0,0,0,0,0,0,0,0,0,0,0,0,0,0,0,0,0,0,0,0,0,0,0,0,0,0,0,0,0,0,0,0,0,0,0,0,0,0,0,0,0,0,0,0,0,0,0,0,0,0,0,0,0,0,0,0,0,0,0,0,0,0,0,0,0,0,0,0,0,0,0,0,0,0,0,0,0,0,0,0,0,0,0,0,0,0,0,0,0,0,0,0,0,0,0,0,0,0,0,0,0,0,0,0,0,0,0,0,0,0,0,0,0,0,0,0,0,0,0,0,0,0,0,0,0,0,0,0,0,0,0,0,0,0,0,0,0,0,0,0,0,0,0,0,0,0,0,0,0,0,0,0,0,0,0,0,0,0,0,0,0,0,0,0,0,0,0,0,0,0,0,0,0,0,0,0,0,0,0,0,0,0,0,0,0,0,0,0,0,0,0,0,0,0,0,0,0,0,0,0,0,0,0,0,0,0,0,0,0,0,0,0,0,0,0,0,0,0,0,0,0,0,0,0,0,0,0,0,0,0,0,0,0,0,0,0,0,0,0,0,0,0,0,0,0,0,0,0,0,0,0,0,0,0,0,0,0,0,0,0,0,0,0,0,0,0,0,0,0,0,0,0,0,0,0,0,0,0,0,0,0,0,0,0,0,0,0,0,0,0,0,0,0,0,0,0,0,0,0,0,0,0,0,0,0,0,0,0,0,0,0,0,0,0,0,0,0,0,0,0,0,0,0,0,0,0,0,0,0,0,0,0,0,0,0,0,0,0,0,0,0,0,0,0,0,0,0,0,0,0,0,0,0,0,0,0,0,0,0,0,0,0,0,0,0,0,0,0,0,0,0,0,0,0,0,0,0,0,0,0,0,0,0,0,0,0,0,0,0,0,0,0,0,0,0,0,0,0,0,0,0,0,0,0,0,0,0,0,0,0,0,0,0,0,0,0,0,0,0,0,0,0,0,0,0,0,0,0,0,0,0,0,0,0,0,0,0,0,0,0,0,0,0,0,0,0,0,0,0,0,0,0,0,0,0,0,0,0,0,0,0,0,0,0,0,0,0,0,0,0,0,0,0,0,0,0,0,0,0,0,0,0,0,0,0,0,0,0,0,0,0,0,0,0,0,0,0,0,0,0,0,0,0,0,0,0,0,0,0,0,0,0,0,0,0,0,0,0,0,0,0,0,0,0,0,0,0,0,0,0,0,0,0,0,0,0,0,0,0,0,0,0,0,0,0,0,0,0,0,0,0,0,0,0,0,0,0,0,0,0,0,0,0,0,0,0,0,0,0,0,0,0,0,0,0,0,0,0,0,0,0,0,0,0,0,0,0,0,0,0,0,0,0,0,0,0,0,0,0,0,0,0,0,0,0,0,0,0,0,0,0,0,0,0,0,0,0,0,0,0,0,0,0,0,0,0,0,0,0,0,0,0,0,0,0,0,0,0,0,0,0,0,0,0,0,0,0,0,0,0,0,0,0,0,0,0,0,0,0,0,0,0,0,0,0,0,0,0,0,0,0,0,0,0,0,0,0,0,0,0,0,0,0,0,0,0,0,0,0,0,0,0,-0.0239,-0.028,-0.0321,0,0,0,0,0,0,0,0,0,0,0,0,0,0,0,0,0,0,0,0,0,0,0,0,0,0,0,0,0,0,0,0,0,0,0,0,0,0,0,-0.0269,-0.0154,-0.0165,-0.0261,-0.0305,-0.0338,-0.0352,-0.0352,0,0,0,0,0,0,0,0,0,0,0,0,0,0,0,0,0,0,0,0,0,0,0,0,0,0,0,0,0,0,0,0,0,0,0,0,0,0,-0.0376,-0.0352,-0.0305,-0.0302,-0.0327,-0.0313,-0.0291,-0.0324,-0.0387,0,0,0,0,0,0,0,0,0,0,0,0,0,0,0,0,0,0,0,0,0,0,0,0,0,0,0,0,0,0,0,0,0,0,0,0,0,-0.0407,-0.0417,-0.0396,-0.0376,-0.0368,-0.0371,-0.0407,-0.056,-0.0838,-0.12,0,0,0,0,0,0,0,0,0,0,0,0,0,0,0,0,0,0,0,0,0,0,0,0,0,0,0,0,0,0,0,0,0,-0.0442,-0.0396,-0.0407,-0.0439,-0.0445,-0.0407,-0.0382,-0.0415,-0.0461,-0.053,-0.0739,-0.1198,-0.164,-0.1879,0,0,0,0,0,0,0,0,0,0,0,0,0,0,0,0,0,0,0,0,0,0,0,0,0,0,0,0,0,-0.0173,-0.0244,-0.0357,-0.0448,-0.0445,-0.0404,-0.0439,-0.0497,-0.0481,-0.0442,-0.047,-0.0602,-0.0849,-0.117,-0.1697,-0.1695,-0.1763,-0.1675,0,0,0,0,0,0,0,0,0,0,0,0,0,0,0,0,0,0,0,0,0,0,0,0,0,0,-0.022,-0.0225,-0.022,-0.0242,-0.031,-0.0379,-0.0423,-0.0412,-0.036,-0.0396,-0.05,-0.0563,-0.0629,-0.0838,-0.1162,-0.1585,-0.178,-0.2123,-0.231,-0.2318,-0.2296,-0.0319,-0.0308,-0.0319,-0.0371,-0.0448,-0.0475,-0.0522,0,0,0,0,0,0,0,0,0,0,0,0,0,0,0,0,-0.0201,-0.022,-0.0236,-0.0258,-0.025,-0.0258,-0.0299,-0.0368,-0.0412,-0.0412,-0.0396,-0.0374,-0.0409,-0.0525,-0.0692,-0.1025,-0.1346,-0.1527,-0.1989,-0.248,-0.2527,-0.2423,-0.2387,-0.2373,-0.0417,-0.0459,-0.0486,-0.0483,-0.0511,-0.0536,-0.058,-0.061,-0.0558,-0.0489,-0.0467,-0.0483,0,0,0,0,0,-0.0327,-0.0288,-0.025,-0.0236,-0.025,-0.0255,-0.028,-0.0316,-0.0368,-0.0407,-0.0409,-0.0379,-0.0357,-0.039,-0.0417,-0.0396,-0.0343,-0.0354,-0.05,-0.0733,-0.1184,-0.145,-0.1601,-0.2101,-0.2417,-0.2343,-0.2178,-0.2153,-0.2,-0.1802,-0.053,-0.0571,-0.0448,-0.0478,-0.0566,-0.0571,-0.0604,-0.0687,-0.0722,-0.067,-0.0613,-0.0566,-0.0527,-0.0492,-0.0456,-0.0417,-0.0401,-0.0396,-0.0357,-0.0297,-0.0302,-0.036,-0.0428,-0.0494,-0.0549,-0.0602,-0.061,-0.0571,-0.053,-0.0467,-0.0431,-0.0415,-0.0352,-0.0363,-0.0538,-0.0871,-0.1519,-0.1519,-0.1684,-0.1942,-0.1928,-0.1653,-0.1601,-0.1568,-0.1384,-0.1225,-0.1126,-0.0577,-0.0574,-0.0409,-0.047,-0.0566,-0.0615,-0.0667,-0.0709,-0.0742,-0.078,-0.0799,-0.0758,-0.0681,-0.0588,-0.0508,-0.0475,-0.0472,-0.0481,-0.0464,-0.0439,-0.0442,-0.0514,-0.0692,-0.0808,-0.0821,-0.0808,-0.0755,-0.0695,-0.0645,-0.0585,-0.0538,-0.0516,-0.0522,-0.0692,-0.1063,-0.1711,-0.1522,-0.1549,-0.1472,-0.1217,-0.1132,-0.1327,-0.1299,-0.1143,-0.0994,-0.0939,-0.0983,-0.0602,-0.0678,-0.0626,-0.064,-0.0722,-0.0805,-0.0788,-0.0758,-0.0755,-0.0744,-0.0736,-0.0747,-0.0764,-0.0722,-0.0637,-0.0602,-0.0613,-0.0591,-0.0552,-0.053,-0.0541,-0.0698,-0.0805,-0.0783,-0.0819,-0.0882,-0.0849,-0.0736,-0.0643,-0.0602,-0.0626,-0.0766,-0.103,-0.1288,-0.1546,-0.1442,-0.1307,-0.1107,-0.0945,-0.0986,-0.1206,-0.125,-0.1137,-0.1046,-0.103,-0.1112,-0.1255,-0.0659,-0.0777,-0.081,-0.0904,-0.1008,-0.1115,-0.1071,-0.0926,-0.0868,-0.0835,-0.0783,-0.0764,-0.0766,-0.075,-0.07,-0.0692,-0.07,-0.0692,-0.0662,-0.0659,-0.0742,-0.0791,-0.0753,-0.0714,-0.0777,-0.0846,-0.0799,-0.0637,-0.0527,-0.0516,-0.0673,-0.0967,-0.1167,-0.1329,-0.1426,-0.1423,-0.1101,-0.0777,-0.0777,-0.1005,-0.1148,-0.1143,-0.1085,-0.1068,-0.1077,-0.1165,-0.1335,-0.0678,-0.0838,-0.0953,-0.0978,-0.0972,-0.1077,-0.1203,-0.1145,-0.0975,-0.0884,-0.0846,-0.0802,-0.0788,-0.0758,-0.0731,-0.0731,-0.0753,-0.0766,-0.0788,-0.0829,-0.0838,-0.0805,-0.0766,-0.0769,-0.081,-0.0769,-0.0651,-0.0549,-0.0494,-0.0552,-0.0706,-0.0862,-0.1068,-0.1261,-0.1417,-0.1269,-0.0788,-0.0445,-0.0549,-0.0777,-0.089,-0.0964,-0.1057,-0.1159,-0.1187,-0.1192,-0.1261,-0.0623,-0.0794,-0.0959,-0.0945,-0.0857,-0.0876,-0.1019,-0.1198,-0.1068,-0.0871,-0.0824,-0.081,-0.0829,-0.084,-0.0802,-0.0777,-0.0791,-0.0829,-0.0876,-0.0887,-0.0851,-0.0827,-0.0827,-0.0821,-0.0777,-0.0692,-0.0585,-0.0516,-0.0453,-0.0467,-0.0574,-0.0706,-0.0873,-0.1022,-0.0975,-0.0769,-0.053,-0.025,-0.0192,-0.0379,-0.0582,-0.0747,-0.0948,-0.1126,-0.1173,-0.1107,-0.1014]},{"header":{"parameterUnit":"m.s-1","parameterCategory":2,"la1":30.8641,"la2":29.7642,"lo1":-88.4676,"lo2":-86.9344,"dy":0.0333,"dx":0.0333,"nx":47,"ny":34,"refTime":"2023-03-24T00:00:00:Z","depth":"25","parameterNumber":3,"parameterNumberName":"V-component_of_CURRENTS"},"data":[0,0,0,0,0,0,0,0,0,0,0,0,0,0,0,0,0,0,0,0,0,0,0,0,0,0,0,0,0,0,0,0,0,0,0,0,0,0,0,0,0,0,0,0,0,0,0,0,0,0,0,0,0,0,0,0,0,0,0,0,0,0,0,0,0,0,0,0,0,0,0,0,0,0,0,0,0,0,0,0,0,0,0,0,0,0,0,0,0,0,0,0,0,0,0,0,0,0,0,0,0,0,0,0,0,0,0,0,0,0,0,0,0,0,0,0,0,0,0,0,0,0,0,0,0,0,0,0,0,0,0,0,0,0,0,0,0,0,0,0,0,0,0,0,0,0,0,0,0,0,0,0,0,0,0,0,0,0,0,0,0,0,0,0,0,0,0,0,0,0,0,0,0,0,0,0,0,0,0,0,0,0,0,0,0,0,0,0,0,0,0,0,0,0,0,0,0,0,0,0,0,0,0,0,0,0,0,0,0,0,0,0,0,0,0,0,0,0,0,0,0,0,0,0,0,0,0,0,0,0,0,0,0,0,0,0,0,0,0,0,0,0,0,0,0,0,0,0,0,0,0,0,0,0,0,0,0,0,0,0,0,0,0,0,0,0,0,0,0,0,0,0,0,0,0,0,0,0,0,0,0,0,0,0,0,0,0,0,0,0,0,0,0,0,0,0,0,0,0,0,0,0,0,0,0,0,0,0,0,0,0,0,0,0,0,0,0,0,0,0,0,0,0,0,0,0,0,0,0,0,0,0,0,0,0,0,0,0,0,0,0,0,0,0,0,0,0,0,0,0,0,0,0,0,0,0,0,0,0,0,0,0,0,0,0,0,0,0,0,0,0,0,0,0,0,0,0,0,0,0,0,0,0,0,0,0,0,0,0,0,0,0,0,0,0,0,0,0,0,0,0,0,0,0,0,0,0,0,0,0,0,0,0,0,0,0,0,0,0,0,0,0,0,0,0,0,0,0,0,0,0,0,0,0,0,0,0,0,0,0,0,0,0,0,0,0,0,0,0,0,0,0,0,0,0,0,0,0,0,0,0,0,0,0,0,0,0,0,0,0,0,0,0,0,0,0,0,0,0,0,0,0,0,0,0,0,0,0,0,0,0,0,0,0,0,0,0,0,0,0,0,0,0,0,0,0,0,0,0,0,0,0,0,0,0,0,0,0,0,0,0,0,0,0,0,0,0,0,0,0,0,0,0,0,0,0,0,0,0,0,0,0,0,0,0,0,0,0,0,0,0,0,0,0,0,0,0,0,0,0,0,0,0,0,0,0,0,0,0,0,0,0,0,0,0,0,0,0,0,0,0,0,0,0,0,0,0,0,0,0,0,0,0,0,0,0,0,0,0,0,0,0,0,0,0,0,0,0,0,0,0,0,0,0,0,0,0,0,0,0,0,0,0,0,0,0,0,0,0,0,0,0,0,0,0,0,0,0,0,0,0,0,0,0,0,0,0,0,0,0,0,0,0,0,0,0,0,0,0,0,0,0,0,0,0,0,0,0,0,0,0,0,0,0,0,0,0,0,0,0,0,0,0,0,0,0,0,0,0,0,0,0,0,0,0,0,0,0,0,0,0,0,0,0,0,0,0,0,0,0,0,0,0,0,0,0,0,0,0,0,0,0,0,0,0,0,0,0,0,0,0,0,0,0,0,0,0,0,0,0,0,0,0,0,0,0,0,0,0,0,0,0,0,0,0,0,0,0,0,0,0,0,0,0,0,0,0,0,0,0,0,0,0,0,0,0,0,0,0,0,0,0,0,0,0,0,0,0,0,0,0,0,0,0,0,0,0,0,0,0,0,0,0,0,0,0,0,0,0,0,0,0,0,0,0,0,0,0,0,0,0,0,0,0,0,0,0,0,0,0,0,0,0,0,0,0,0,0,0,0,0,0,0,0,0,0,0,0,0,0,0,0,0,0,0,0,0,0,0,0,0,0,0,0,0,0,0,0,0,0,0,0,0,0,0,0,0,0,0,0,0,0,0,0,0,0,0,0,0,0,0,0,0,0,0,0,0,0,0,0,0,0,0,0,0,0,0,0,0,0,0,0,0,0,0,0,0,0,0,0,0,0,0,0,0,0,0,0,0,0,0,0,0,0,0,0,0,-0.006,-0.0069,-0.0063,0,0,0,0,0,0,0,0,0,0,0,0,0,0,0,0,0,0,0,0,0,0,0,0,0,0,0,0,0,0,0,0,0,0,0,0,0,0,0,-0.0272,-0.0211,-0.0055,-0.0049,-0.0135,-0.0176,-0.0151,-0.0088,0,0,0,0,0,0,0,0,0,0,0,0,0,0,0,0,0,0,0,0,0,0,0,0,0,0,0,0,0,0,0,0,0,0,0,0,0,0,-0.0264,-0.0346,-0.0228,-0.0102,-0.0159,-0.0211,-0.0231,-0.0211,-0.0187,0,0,0,0,0,0,0,0,0,0,0,0,0,0,0,0,0,0,0,0,0,0,0,0,0,0,0,0,0,0,0,0,0,0,0,0,0,-0.0286,-0.0376,-0.0385,-0.0198,-0.0154,-0.028,-0.0428,-0.0508,-0.0558,-0.0637,0,0,0,0,0,0,0,0,0,0,0,0,0,0,0,0,0,0,0,0,0,0,0,0,0,0,0,0,0,0,0,0,0,-0.0085,-0.0201,-0.0269,-0.031,-0.0374,-0.0428,-0.033,-0.0258,-0.0382,-0.053,-0.0769,-0.0967,-0.109,-0.1008,0,0,0,0,0,0,0,0,0,0,0,0,0,0,0,0,0,0,0,0,0,0,0,0,0,0,0,0,0,-0.0137,-0.0003,-0.0014,-0.0115,-0.0255,-0.0376,-0.0401,-0.0396,-0.0434,-0.0478,-0.0439,-0.0563,-0.0786,-0.0948,-0.1096,-0.1134,-0.1049,-0.0898,0,0,0,0,0,0,0,0,0,0,0,0,0,0,0,0,0,0,0,0,0,0,0,0,0,0,-0.0217,-0.019,-0.017,-0.011,-0.0058,-0.0096,-0.0176,-0.0283,-0.0387,-0.0426,-0.0475,-0.0555,-0.0678,-0.0835,-0.1003,-0.1192,-0.1324,-0.1266,-0.1112,-0.0909,-0.0706,0.0066,-0.0063,-0.0113,-0.0088,-0.0025,-0.0025,0.0066,0,0,0,0,0,0,0,0,0,0,0,0,0,0,0,0,-0.0228,-0.0233,-0.0211,-0.0181,-0.0157,-0.0143,-0.0121,-0.0118,-0.0146,-0.0206,-0.0302,-0.0407,-0.0497,-0.0623,-0.081,-0.1112,-0.1285,-0.131,-0.1294,-0.1189,-0.1143,-0.1184,-0.1115,-0.0942,0.0074,0.0011,-0.0135,-0.0162,-0.0121,-0.0096,-0.003,0.0038,0.0071,0.0088,0.017,0.0258,0,0,0,0,0,-0.0071,-0.0126,-0.017,-0.0201,-0.0225,-0.0236,-0.0253,-0.0258,-0.0244,-0.0179,-0.0118,-0.0126,-0.0157,-0.0165,-0.0159,-0.0225,-0.0376,-0.0538,-0.07,-0.0975,-0.128,-0.148,-0.1239,-0.0978,-0.1066,-0.1225,-0.1346,-0.1285,-0.1115,-0.0879,0.0129,0.0146,-0.0132,-0.0288,-0.0225,-0.0135,-0.0055,0.0,0.0016,0.003,0.0069,0.0157,0.0231,0.0247,0.0244,0.0201,0.0085,-0.0058,-0.0102,-0.0168,-0.0228,-0.0277,-0.0324,-0.0341,-0.0297,-0.022,-0.0151,-0.0085,-0.0104,-0.0157,-0.0209,-0.022,-0.0385,-0.0634,-0.092,-0.1159,-0.1357,-0.1313,-0.1035,-0.097,-0.1145,-0.1327,-0.1324,-0.1148,-0.0909,-0.0626,-0.0341,0.0146,0.0137,-0.0165,-0.033,-0.028,-0.0181,-0.0115,-0.0088,-0.0058,-0.0005,0.0135,0.0181,0.0198,0.0187,0.0154,0.0124,0.003,-0.0049,-0.008,-0.017,-0.0272,-0.031,-0.031,-0.0236,-0.0173,-0.008,-0.0027,-0.0016,-0.003,-0.0148,-0.028,-0.0494,-0.0777,-0.1079,-0.128,-0.1395,-0.1217,-0.0986,-0.1112,-0.1318,-0.1409,-0.1236,-0.1038,-0.0766,-0.0407,-0.0077,0.014,0.0137,-0.0027,-0.0275,-0.0332,-0.0302,-0.0242,-0.0203,-0.0135,-0.0071,0.0049,0.0132,0.0184,0.0222,0.0195,0.0143,0.0085,0.0014,-0.0036,-0.0088,-0.0184,-0.0275,-0.0288,-0.0228,-0.0132,-0.0036,0.0025,0.0019,-0.0019,-0.0019,-0.0198,-0.0494,-0.0879,-0.1156,-0.1305,-0.1434,-0.1266,-0.1027,-0.12,-0.1456,-0.15,-0.1329,-0.1195,-0.1019,-0.0766,-0.0437,-0.0159,0.0005,0.0093,-0.0113,-0.0275,-0.0305,-0.0266,-0.0211,-0.0099,0.0014,0.0049,0.0159,0.0157,0.0173,0.0236,0.0266,0.0206,0.0129,0.0047,-0.0003,-0.008,-0.0176,-0.0236,-0.022,-0.0143,-0.0049,0.0036,0.0038,-0.0016,-0.0052,-0.0093,-0.0374,-0.0816,-0.1134,-0.1228,-0.1382,-0.1395,-0.1217,-0.1181,-0.1384,-0.153,-0.15,-0.148,-0.1387,-0.1228,-0.1005,-0.0709,-0.0464,-0.0302,0.0058,-0.0129,-0.0275,-0.0308,-0.0244,-0.0157,0.0005,0.0168,0.0192,0.0211,0.0201,0.0195,0.0269,0.0324,0.0275,0.0184,0.0088,0.0022,-0.0055,-0.0124,-0.0168,-0.014,-0.0077,-0.0016,0.0,-0.0044,-0.0063,-0.0027,-0.0201,-0.0514,-0.0873,-0.1176,-0.1346,-0.1478,-0.1464,-0.1365,-0.1368,-0.1437,-0.1571,-0.164,-0.1645,-0.1574,-0.1456,-0.1252,-0.0997,-0.0791,-0.0626,0.0025,-0.0096,-0.0266,-0.0305,-0.0255,-0.0148,0.0014,0.0179,0.0244,0.0198,0.019,0.0206,0.0286,0.0357,0.0302,0.0239,0.0137,0.006,-0.0014,-0.0069,-0.0107,-0.0082,-0.0049,-0.0041,-0.0071,-0.0085,-0.0019,0.003,-0.022,-0.0478,-0.0766,-0.1112,-0.1373,-0.1508,-0.1505,-0.1428,-0.1318,-0.1343,-0.1574,-0.1725,-0.1755,-0.1747,-0.1643,-0.1467,-0.1274,-0.1099,-0.095]}]]